Date StartTime U_cm/s V_cm/s W_cm/s Ustd_cm/s Vstd_cm/s Wstd_cm/s Uvar_(cm/s)^2 Vvar_(cm/s)^2 Wvar_(cm/s)^2 KE_(m/s)^2 TurbulentKE_(m/s)^2 HorizWindSpeed_cm/s FrictionSpeec_cm/s DragCoef SpeedOfSound_m/s SonicTemperature_C Pressure_mb 
03/29/2014  00:00:00      -22.952     -148.966       -2.813      118.228      136.192       66.131    13977.892    18548.326     4373.322        2.981        1.845      150.724       41.511        0.076      338.542       11.261      860.056
03/29/2014  00:01:00       17.996     -122.734       12.608       83.582      112.351       60.092     6985.909    12622.796     3611.098        1.938        1.161      124.046       41.112        0.110      338.563       11.300      860.049
03/29/2014  00:02:00      -78.049     -245.536       -5.659       73.775       91.592       51.973     5442.735     8389.168     2701.206        4.147        0.827      257.643       27.313        0.011      338.628       11.405      860.048
03/29/2014  00:03:00     -249.083     -249.582      -20.070      113.390      112.286       52.989    12857.322    12608.060     2807.883        7.650        1.414      352.610       48.957        0.019      338.489       11.172      860.046
03/29/2014  00:04:00      -92.802     -148.769        2.938      122.044       67.919       57.079    14894.762     4612.940     3258.049        2.675        1.138      175.341       56.014        0.102      338.479       11.157      860.063
03/29/2014  00:05:00       40.427      -94.214       15.582       88.974      101.163       59.289     7916.369    10233.966     3515.221        1.621        1.083      102.521       51.207        0.249      338.608       11.374      860.036
03/29/2014  00:06:00      -59.937       -2.475       40.334      132.048      103.283       66.323    17436.690    10667.421     4398.761        1.886        1.625       59.988       84.519        1.985      338.545       11.269      859.890
03/29/2014  00:07:00      207.088     -163.825       39.632      156.729      175.735       91.072    24564.084    30882.731     8294.119        6.751        3.187      264.053       89.733        0.115      338.511       11.209      859.856
03/29/2014  00:08:00       68.083     -274.594       -2.437      182.366      202.587       71.520    33257.238    41041.512     5115.137        7.971        3.971      282.909       74.510        0.069      338.554       11.281      859.879
03/29/2014  00:09:00       75.640     -178.280        9.312      104.416      133.074       72.413    10902.724    17708.614     5243.690        3.572        1.693      193.662       69.717        0.130      338.578       11.322      859.949
03/29/2014  00:10:00      124.263     -103.148       59.894      132.442      159.066      102.626    17540.768    25301.953    10532.194        4.151        2.669      161.496      115.770        0.514      338.525       11.233      859.959
03/29/2014  00:11:00      149.246     -250.808       -5.592      135.033      204.624       84.790    18233.808    41870.815     7189.268        7.624        3.365      291.854       96.974        0.110      338.573       11.314      859.980
03/29/2014  00:12:00      177.253     -326.646      -38.938      108.160      166.038       91.755    11698.632    27568.474     8419.007        9.365        2.384      371.640       79.574        0.046      338.610       11.375      859.994
03/29/2014  00:13:00      -38.072     -140.954       40.341       64.723       94.814       73.073     4189.023     8989.647     5339.657        2.073        0.926      146.005       59.037        0.164      338.633       11.417      859.947
03/29/2014  00:14:00      -19.214     -235.366      -14.280       84.316      101.129       50.503     7109.250    10227.103     2550.589        3.792        0.994      236.149       22.919        0.009      338.755       11.619      859.905
03/29/2014  00:15:00      -53.583     -152.385       30.722      231.180      168.100       74.412    53444.010    28257.629     5537.152        5.712        4.362      161.531       87.150        0.291      338.626       11.403      859.838
03/29/2014  00:16:00     -196.296     -189.923       12.554      156.990      134.872       65.241    24645.850    18190.453     4256.440        6.092        2.355      273.135       69.382        0.065      338.598       11.355      859.890
03/29/2014  00:17:00     -204.586     -168.014       -3.381      150.193       96.545       52.712    22557.901     9320.992     2778.540        5.237        1.733      264.735       53.930        0.041      338.598       11.354      859.956
03/29/2014  00:18:00     -109.737      -99.715       19.498      122.085      132.652       75.040    14904.765    17596.662     5631.041        3.024        1.907      148.274       88.418        0.356      338.588       11.340      860.013
03/29/2014  00:19:00      -37.387      -76.143        1.669       56.446       65.047       40.638     3186.160     4231.064     1651.436        0.813        0.453       84.827        4.913        0.003      338.600       11.361      859.975
03/29/2014  00:20:00     -136.004      -60.673       -3.093       97.469       54.257       51.202     9500.296     2943.783     2621.689        1.862        0.753      148.923       46.671        0.098      338.594       11.349      859.925
03/29/2014  00:21:00     -107.621      -89.980        7.650       94.086       80.139       47.560     8852.107     6422.305     2261.972        1.863        0.877      140.281       44.151        0.099      338.554       11.285      859.969
03/29/2014  00:22:00     -138.664     -170.699       -0.560       87.790       96.396       48.540     7707.091     9292.224     2356.116        3.386        0.968      219.922       44.590        0.041      338.534       11.250      860.016
03/29/2014  00:23:00     -190.860     -121.386       13.258      136.583      101.639       55.258    18654.848    10330.528     3053.446        4.168        1.602      226.190       55.453        0.060      338.524       11.231      859.958
03/29/2014  00:24:00     -140.924     -228.651      -12.637      158.093       82.221       49.128    24993.528     6760.238     2413.591        5.323        1.708      268.591       34.302        0.016      338.591       11.345      859.883
03/29/2014  00:25:00      -26.680      -77.417       10.840       71.444       87.362       51.848     5104.223     7632.191     2688.216        1.112        0.771       81.885       46.711        0.325      338.642       11.433      859.896
03/29/2014  00:26:00       56.160     -181.539        7.772      132.448      126.143       84.497    17542.396    15912.043     7139.811        3.837        2.030      190.028       81.669        0.185      338.759       11.626      859.896
03/29/2014  00:27:00      110.390     -171.220       -8.876       95.193      127.561       63.673     9061.736    16271.904     4054.306        3.548        1.469      203.721       67.563        0.110      338.709       11.542      859.792
03/29/2014  00:28:00       38.363     -105.601       -4.489      100.499       80.880       55.554    10100.000     6541.581     3086.206        1.618        0.986      112.354       55.352        0.243      338.657       11.457      859.748
03/29/2014  00:29:00     -138.417      -83.097      -12.720      117.024       71.648       58.100    13694.639     5133.488     3375.622        2.421        1.110      161.444       54.262        0.113      338.661       11.462      859.764
03/29/2014  00:30:00       60.871     -170.770       -5.087      139.338       95.275       58.305    19415.016     9077.292     3399.476        3.239        1.595      181.295       53.477        0.087      338.650       11.444      859.838
03/29/2014  00:31:00     -148.885     -209.085      -21.323       84.787      108.462       61.363     7188.842    11763.922     3765.403        4.452        1.136      256.677       49.911        0.038      338.597       11.354      859.858
03/29/2014  00:32:00     -122.878     -265.641      -11.866      143.524      201.671       67.697    20599.035    40671.042     4582.858        7.582        3.293      292.684       82.149        0.079      338.656       11.454      859.847
03/29/2014  00:33:00     -101.563      -92.326       -6.304      105.621       59.965       40.925    11155.690     3595.760     1674.863        1.765        0.821      137.256       42.312        0.095      338.596       11.354      859.806
03/29/2014  00:34:00      -98.788      -78.077       16.614      102.263       74.824       44.151    10457.657     5598.662     1949.292        1.706        0.900      125.917       43.652        0.120      338.562       11.297      859.730
03/29/2014  00:35:00      -46.248      -71.378       24.432       55.560       72.666       38.718     3086.959     5280.345     1499.085        0.885        0.493       85.051       38.386        0.204      338.538       11.256      859.724
03/29/2014  00:36:00       53.005     -127.335      -11.822       88.216       54.679       36.520     7782.091     2989.765     1333.698        1.563        0.605      137.926       30.316        0.048      338.583       11.333      859.749
03/29/2014  00:37:00      -67.213      -76.091       -1.897       90.781       66.375       35.316     8241.276     4405.704     1247.222        1.210        0.695      101.525       36.045        0.126      338.630       11.410      859.826
03/29/2014  00:38:00     -153.353     -219.470      -10.099      119.653      105.491       44.781    14316.817    11128.333     2005.344        4.961        1.373      267.739       42.359        0.025      338.585       11.334      859.838
03/29/2014  00:39:00     -158.768     -169.720       -1.253      128.644      114.164       64.199    16549.300    13033.530     4121.524        4.385        1.685      232.405       53.279        0.053      338.548       11.271      859.882
03/29/2014  00:40:00     -164.794     -241.126       -9.444       93.866      113.386       48.189     8810.880    12856.483     2322.168        5.468        1.199      292.059       44.038        0.023      338.571       11.311      859.820
03/29/2014  00:41:00      -12.466     -161.832        8.569       54.233      130.885       52.803     2941.206    17130.843     2788.161        2.463        1.143      162.312       66.480        0.168      338.587       11.338      859.810
03/29/2014  00:42:00      -93.864      -53.392       32.876       72.677       97.930       55.579     5281.992     9590.227     3089.002        1.535        0.898      107.987       56.527        0.274      338.559       11.293      859.749
03/29/2014  00:43:00      -40.233     -101.205       -2.961       57.772       61.472       33.704     3337.569     3778.817     1135.962        1.006        0.413      108.909       17.444        0.026      338.650       11.445      859.739
03/29/2014  00:44:00      -21.986      -75.344        9.619       57.112       31.371       36.389     3261.800      984.133     1324.189        0.591        0.279       78.487       28.095        0.128      338.680       11.496      859.747
03/29/2014  00:45:00     -104.342      -78.207       -4.365       56.074       35.637       30.305     3144.333     1269.999      918.414        1.118        0.267      130.398       23.901        0.034      338.627       11.406      859.723
03/29/2014  00:46:00     -106.856      -38.890       10.085       67.070       50.636       33.197     4498.344     2563.957     1102.022        1.060        0.408      113.713       27.944        0.060      338.559       11.293      859.690
03/29/2014  00:47:00     -138.690      -71.774        3.896       84.671       59.248       32.849     7169.185     3510.333     1079.027        1.808        0.588      156.161       32.270        0.043      338.534       11.250      859.685
03/29/2014  00:48:00     -177.019     -141.858        1.406      100.456       79.139       44.361    10091.462     6263.031     1967.912        3.489        0.916      226.847       50.007        0.049      338.565       11.301      859.726
03/29/2014  00:49:00     -205.192     -141.954        2.415      149.471      122.786       72.286    22341.714    15076.421     5225.237        5.244        2.132      249.508       80.770        0.105      338.538       11.254      859.742
03/29/2014  00:50:00     -318.694      -35.259       -9.621      133.868      118.052       70.191    17920.632    13936.239     4926.808        6.984        1.839      320.639       68.213        0.045      338.533       11.246      859.748
03/29/2014  00:51:00     -144.703     -123.657       15.378      141.809      116.320       70.302    20109.862    13530.424     4942.332        3.752        1.929      190.342       77.101        0.164      338.501       11.193      859.718
03/29/2014  00:52:00     -118.261     -204.396       -5.207      102.136       95.597       53.487    10431.852     9138.882     2860.841        3.911        1.122      236.142       54.471        0.053      338.545       11.267      859.728
03/29/2014  00:53:00     -165.754     -114.997       -6.828      105.523       88.383       44.416    11135.069     7811.626     1972.745        3.083        1.046      201.739       41.191        0.042      338.533       11.245      859.693
03/29/2014  00:54:00     -343.412     -221.254      -15.657      129.791      105.678       67.668    16845.630    11167.779     4578.962        9.985        1.630      408.516       70.022        0.029      338.508       11.203      859.633
03/29/2014  00:55:00     -174.230     -109.852       -0.450      106.814      104.833       45.376    11409.273    10990.048     2058.951        3.344        1.223      205.970       49.547        0.058      338.512       11.212      859.627
03/29/2014  00:56:00     -270.027     -170.068      -11.973      102.135       80.948       53.384    10431.512     6552.659     2849.901        6.090        0.992      319.120       56.409        0.031      338.500       11.189      859.584
03/29/2014  00:57:00     -249.900      -78.352        5.744      121.768       90.294       59.725    14827.335     8152.983     3567.082        4.758        1.327      261.895       61.640        0.055      338.486       11.168      859.560
03/29/2014  00:58:00     -348.424     -106.332       11.388      168.643      120.354       72.384    28440.594    14485.147     5239.456        9.049        2.408      364.288       79.707        0.048      338.547       11.269      859.568
03/29/2014  00:59:00     -400.669     -237.467        0.351      207.957      186.123       91.019    43246.078    34641.735     8284.441       15.153        4.309      465.753       92.593        0.040      338.598       11.354      859.715
03/29/2014  01:00:00      -69.081     -189.928        2.403       45.221       53.586       31.161     2044.978     2871.433      971.032        2.337        0.294      202.101       17.086        0.007      338.671       11.477      859.746
03/29/2014  01:01:00       51.256     -123.522       31.166      109.889      173.552      103.148    12075.674    30120.149    10639.414        3.584        2.642      133.734      117.830        0.776      338.720       11.561      859.718
03/29/2014  01:02:00      106.680     -127.231       53.104      122.219      194.284      120.005    14937.371    37746.085    14401.260        4.872        3.354      166.037      137.349        0.684      338.707       11.539      859.579
03/29/2014  01:03:00       73.984     -134.690        0.522      135.164      154.590       77.401    18269.294    23898.088     5990.989        3.588        2.408      153.672       92.782        0.365      338.723       11.567      859.603
03/29/2014  01:04:00     -111.746      -30.675       -9.651       80.190       50.768       36.245     6430.376     2577.353     1313.712        1.192        0.516      115.880       34.725        0.090      338.776       11.656      859.629
03/29/2014  01:05:00     -180.979     -128.541       -4.598       78.665       55.226       40.178     6188.258     3049.965     1614.294        3.007        0.543      221.982       34.495        0.024      338.680       11.493      859.631
03/29/2014  01:06:00     -122.147     -151.218       -1.894      106.404      138.941       64.735    11321.844    19304.470     4190.584        3.630        1.741      194.388       58.398        0.090      338.648       11.441      859.592
03/29/2014  01:07:00     -143.873     -131.638       -0.802      126.319       85.844       54.777    15956.446     7369.235     3000.545        3.217        1.316      195.008       28.971        0.022      338.630       11.410      859.583
03/29/2014  01:08:00     -395.008     -168.504      -19.445      223.476      124.606       79.336    49941.577    15526.763     6294.143       12.827        3.588      429.447       81.538        0.036      338.590       11.342      859.581
03/29/2014  01:09:00     -443.413     -274.294      -24.102      153.479      133.418       79.775    23555.653    17800.326     6364.104       16.007        2.386      521.395       70.652        0.018      338.592       11.347      859.547
03/29/2014  01:10:00     -422.748     -170.224      -15.221      192.373      139.481       83.452    37007.472    19454.986     6964.240       13.566        3.171      455.733       90.011        0.039      338.587       11.336      859.497
03/29/2014  01:11:00     -321.847     -115.351        5.804      158.385      101.037       65.078    25085.754    10208.385     4235.175        7.822        1.976      341.894       64.522        0.036      338.576       11.318      859.573
03/29/2014  01:12:00     -208.097     -108.294       16.178      180.394      142.248       78.029    32541.831    20234.436     6088.579        5.707        2.943      234.589       84.564        0.130      338.575       11.318      859.574
03/29/2014  01:13:00     -366.949     -131.384       -6.806      171.509      134.664       71.686    29415.216    18134.469     5138.930       10.231        2.634      389.761       77.808        0.040      338.577       11.321      859.561
03/29/2014  01:14:00     -283.674     -217.470       10.139      161.496      134.319       76.686    26080.970    18041.535     5880.763        8.892        2.500      357.441       82.386        0.053      338.581       11.327      859.635
03/29/2014  01:15:00     -336.233     -231.356       13.385      273.538      223.977       97.825    74823.163    50165.605     9569.674       15.063        6.728      408.140      128.443        0.099      338.592       11.346      859.638
03/29/2014  01:16:00     -392.306     -292.404       -2.933      227.017      183.065       94.273    51536.757    33512.846     8887.348       16.666        4.697      489.290       87.634        0.032      338.674       11.482      859.587
03/29/2014  01:17:00     -549.226     -258.685       -9.462      294.056      249.718      117.969    86468.865    62358.868    13916.792       26.567        8.137      607.097      132.168        0.047      338.667       11.471      859.490
03/29/2014  01:18:00     -547.141     -316.935      -20.858      221.161      198.714       99.776    48912.344    39487.102     9955.173       24.928        4.918      632.306       93.084        0.022      338.676       11.485      859.596
03/29/2014  01:19:00     -473.502     -235.025      -17.865      205.193      172.687      102.349    42104.282    29820.700    10475.401       18.106        4.120      528.621      109.441        0.043      338.659       11.458      859.645
03/29/2014  01:20:00     -367.048     -205.316       -1.445      254.984      215.063      113.490    65016.972    46252.294    12880.051       15.049        6.207      420.570      121.629        0.084      338.661       11.460      859.598
03/29/2014  01:21:00     -514.937     -182.115      -11.936      166.808      174.298       91.601    27824.880    30379.886     8390.691       18.252        3.330      546.192       86.650        0.025      338.637       11.421      859.600
03/29/2014  01:22:00     -488.648     -132.632       -1.225      221.645      163.800       91.622    49126.639    26830.563     8394.510       17.034        4.218      506.328      107.351        0.045      338.642       11.430      859.522
03/29/2014  01:23:00     -587.225     -185.478        1.108      207.331      167.521       93.150    42986.242    28063.162     8676.952       22.947        3.986      615.821       96.622        0.025      338.640       11.425      859.537
03/29/2014  01:24:00     -283.544     -100.521        8.246      203.953      111.034       65.109    41596.761    12328.587     4239.232        7.436        2.908      300.835       72.005        0.057      338.657       11.454      859.681
03/29/2014  01:25:00     -162.473     -123.374       -9.124      128.472      111.156       57.239    16504.979    12355.710     3276.280        3.691        1.607      204.007       66.319        0.106      338.692       11.513      859.692
03/29/2014  01:26:00     -172.103     -179.106       -4.423      140.590      148.679       42.656    19765.536    22105.548     1819.540        5.270        2.185      248.391       52.676        0.045      338.670       11.476      859.673
03/29/2014  01:27:00       12.871     -394.018      -14.035      242.748      191.119      101.707    58926.794    36526.429    10344.340       13.068        5.290      394.228       94.670        0.058      338.798       11.690      859.721
03/29/2014  01:28:00       20.422       -2.976       95.740       92.759      154.267      101.913     8604.152    23798.250    10386.197        2.618        2.139       20.638       86.809       17.693      338.740       11.596      859.607
03/29/2014  01:29:00       86.222     -120.179       61.296      127.631      210.182      130.138    16289.725    44176.482    16935.789        5.150        3.870      147.910      129.184        0.763      338.729       11.575      859.622
03/29/2014  01:30:00       76.133     -116.121       58.546      131.027      253.926      174.772    17168.160    64478.497    30545.094        6.743        5.610      138.853      192.597        1.924      338.720       11.559      859.682
03/29/2014  01:31:00       81.626      -49.938       84.019      128.688      154.790      106.766    16560.688    23959.943    11399.029        3.406        2.596       95.691       98.677        1.063      338.668       11.472      859.564
03/29/2014  01:32:00      169.870     -367.352      -11.058      180.829      263.462      155.764    32698.951    69412.409    24262.501       14.512        6.319      404.726      161.425        0.159      338.708       11.539      859.506
03/29/2014  01:33:00       39.110     -169.059       -1.440      109.721       92.628       57.790    12038.661     8579.937     3339.740        2.703        1.198      173.524       52.062        0.090      338.745       11.603      859.608
03/29/2014  01:34:00       99.640      -51.866       35.336      126.407      103.869       58.088    15978.682    10788.843     3374.265        2.200        1.507      112.331       51.991        0.214      338.705       11.537      859.551
03/29/2014  01:35:00      -32.442      -86.223        7.302      115.754       64.755       49.978    13398.916     4193.175     2497.764        1.431        1.004       92.124       57.976        0.396      338.741       11.597      859.566
03/29/2014  01:36:00      -18.052      -55.936       15.047       96.371      100.810       49.314     9287.300    10162.610     2431.872        1.278        1.094       58.776       45.187        0.591      338.755       11.621      859.603
03/29/2014  01:37:00      -44.375      -68.925        9.892      161.392       93.761       62.739    26047.319     8791.214     3936.224        2.279        1.939       81.975       49.563        0.366      338.781       11.666      859.599
03/29/2014  01:38:00       54.063     -129.767       -4.438       81.882       86.032       49.374     6704.633     7401.589     2437.794        1.816        0.827      140.578       37.679        0.072      338.789       11.678      859.671
03/29/2014  01:39:00     -100.534      -35.558       11.844       85.442       47.638       35.770     7300.325     2269.400     1279.460        1.118        0.542      106.637       42.154        0.156      338.661       11.462      859.686
03/29/2014  01:40:00      -19.339       -0.806       17.276       67.814       83.680       40.766     4598.762     7002.298     1661.903        0.697        0.663       19.355       45.604        5.551      338.631       11.412      859.603
03/29/2014  01:41:00      -84.162       79.758      -25.435       55.561       34.550       25.356     3087.071     1193.731      642.903        0.951        0.246      115.951       11.643        0.010      338.654       11.453      859.559
03/29/2014  01:42:00      -98.097      -28.823        3.908       58.877       42.726       35.300     3466.545     1825.500     1246.063        0.850        0.327      102.243       37.513        0.135      338.678       11.491      859.608
03/29/2014  01:43:00      -87.856     -109.200       -0.212       60.681       69.035       40.228     3682.235     4765.784     1618.297        1.485        0.503      140.154       22.839        0.027      338.635       11.420      859.640
03/29/2014  01:44:00     -181.580      -97.615       12.237      117.800      121.711       60.041    13876.784    14813.602     3604.948        3.747        1.615      206.156       66.300        0.103      338.547       11.271      859.661
03/29/2014  01:45:00      -66.853      -58.545       14.025       70.654       52.973       39.925     4991.940     2806.176     1593.966        0.874        0.470       88.864       41.078        0.214      338.543       11.267      859.650
03/29/2014  01:46:00      -83.639     -113.384        4.963      121.955       77.185       55.445    14873.070     5957.513     3074.095        2.189        1.195      140.895       36.721        0.068      338.602       11.364      859.612
03/29/2014  01:47:00     -166.070      -87.915        0.891      159.667      138.816       62.917    25493.691    19270.006     3958.574        4.201        2.436      187.905       63.215        0.113      338.513       11.213      859.638
03/29/2014  01:48:00     -169.046     -161.730        6.964      131.636       93.221       50.738    17327.952     8690.142     2574.359        4.168        1.430      233.951       51.862        0.049      338.516       11.218      859.677
03/29/2014  01:49:00      -25.138     -262.504      -11.068      159.791      124.913       69.455    25533.089    15603.249     4823.976        5.780        2.298      263.705       57.364        0.047      338.624       11.399      859.698
03/29/2014  01:50:00       12.758      -48.793       10.254      124.978      104.191       56.059    15619.446    10855.766     3142.576        1.613        1.481       50.433       48.982        0.943      338.578       11.323      859.628
03/29/2014  01:51:00      -54.704      -52.447       -6.337       97.608      137.309       53.160     9527.229    18853.717     2826.037        1.849        1.560       75.784       54.311        0.514      338.670       11.479      859.562
03/29/2014  01:52:00      -82.771     -153.121       21.410       98.495      120.679       57.799     9701.258    14563.474     3340.765        2.917        1.380      174.060       43.917        0.064      338.534       11.249      859.505
03/29/2014  01:53:00      -59.782     -141.026        4.343       63.609       78.870       37.605     4046.072     6220.407     1414.156        1.758        0.584      153.174       29.116        0.036      338.484       11.167      859.527
03/29/2014  01:54:00      -31.190      -10.201       14.710       30.539       30.337       32.922      932.645      920.353     1083.854        0.211        0.147       32.816       13.608        0.172      338.554       11.284      859.529
03/29/2014  01:55:00      -60.166       35.051      -16.698       30.317       30.436       21.383      919.110      926.360      457.240        0.371        0.115       69.631       23.231        0.111      338.571       11.313      859.457
03/29/2014  01:56:00      -50.996      -50.510      -12.485       42.910       64.511       26.702     1841.236     4161.706      712.999        0.601        0.336       71.776       24.252        0.114      338.723       11.568      859.409
03/29/2014  01:57:00      -42.651     -138.460        0.394       54.621      105.431       42.541     2983.508    11115.674     1809.760        1.845        0.795      144.880       52.510        0.131      338.505       11.198      859.376
03/29/2014  01:58:00      -62.002      -86.409        0.299       84.945       55.941       33.315     7215.575     3129.412     1109.887        1.138        0.573      106.352       26.220        0.061      338.549       11.275      859.373
03/29/2014  01:59:00      -71.147     -118.779       -4.029       88.346       51.453       38.243     7805.084     2647.396     1462.540        1.555        0.596      138.457       29.257        0.045      338.557       11.290      859.415
03/29/2014  02:00:00      -57.016      -57.387        9.064       61.717       41.639       32.890     3808.941     1733.836     1081.783        0.662        0.331       80.896       28.665        0.126      338.454       11.117      859.447
03/29/2014  02:01:00      -95.369      -63.254       -0.074       69.045       49.786       29.243     4767.169     2478.600      855.153        1.060        0.405      114.439       34.765        0.092      338.433       11.079      859.403
03/29/2014  02:02:00       -6.510      -45.394       21.895       59.090       61.636       42.633     3491.616     3799.030     1817.559        0.584        0.455       45.859       36.774        0.643      338.435       11.085      859.363
03/29/2014  02:03:00     -106.844      -81.983        9.996      120.349       74.806       46.533    14483.895     5595.890     2165.289        2.024        1.112      134.673       50.994        0.143      338.414       11.048      859.383
03/29/2014  02:04:00     -219.753     -143.506       -0.809      131.937       88.014       56.914    17407.322     7746.467     3239.234        4.863        1.420      262.460       58.020        0.049      338.416       11.049      859.385
03/29/2014  02:05:00     -268.620     -146.412      -10.346      125.742      119.432       59.383    15811.115    14264.120     3526.296        6.364        1.680      305.930       55.084        0.032      338.408       11.035      859.381
03/29/2014  02:06:00     -223.616     -177.414        3.518      127.007       93.279       74.150    16130.659     8701.015     5498.235        5.591        1.516      285.447       71.853        0.063      338.403       11.028      859.394
03/29/2014  02:07:00     -201.803     -195.275       -1.926      127.403      130.938       70.866    16231.408    17144.645     5021.942        5.862        1.920      280.814       75.830        0.073      338.565       11.298      859.402
03/29/2014  02:08:00      -61.400       12.997       -2.254       60.189       72.426       40.025     3622.694     5245.548     1601.991        0.720        0.524       62.760       18.418        0.086      338.586       11.339      859.338
03/29/2014  02:09:00        3.599      -31.127       -0.096       29.798       66.164       22.072      887.911     4377.737      487.152        0.337        0.288       31.334       30.860        0.970      338.620       11.395      859.313
03/29/2014  02:10:00        8.460     -111.136       13.138       84.736      130.870       51.607     7180.116    17127.027     2663.248        1.978        1.349      111.457       50.717        0.207      338.623       11.400      859.366
03/29/2014  02:11:00       87.468      -63.129       10.781       54.111       71.414       44.238     2928.005     5099.954     1956.965        1.087        0.499      107.870       34.888        0.105      338.711       11.549      859.384
03/29/2014  02:12:00       44.765      -31.621       47.088      104.143      156.493       79.426    10845.698    24490.148     6308.549        2.342        2.082       54.807       99.081        3.268      338.619       11.391      859.310
03/29/2014  02:13:00       73.372     -143.822       -2.911       94.123      117.441       64.835     8859.218    13792.383     4203.624        2.646        1.343      161.456       57.998        0.129      338.592       11.348      859.300
03/29/2014  02:14:00       40.425      -77.584       37.212       73.958      134.198      102.284     5469.715    18009.047    10462.101        2.148        1.697       87.484      101.045        1.334      338.565       11.302      859.250
03/29/2014  02:15:00       43.758      -77.347       49.884       90.031      113.964       88.754     8105.532    12987.812     7877.354        1.967        1.449       88.867       96.244        1.173      338.532       11.245      859.228
03/29/2014  02:16:00       29.894       37.355       65.216       63.448       75.379       56.422     4025.629     5681.941     3183.496        0.971        0.645       47.844       56.813        1.410      338.510       11.209      859.131
03/29/2014  02:17:00      -34.869      -44.687       -4.856       43.271       39.837       27.249     1872.419     1587.008      742.496        0.372        0.210       56.682       27.685        0.239      338.647       11.440      859.091
03/29/2014  02:18:00        9.574      -15.673       47.351       33.614       50.652       33.829     1129.871     2565.666     1144.398        0.371        0.242       18.366       29.170        2.523      338.565       11.304      859.084
03/29/2014  02:19:00       26.661      -42.442       13.752       41.640       57.181       31.664     1733.859     3269.685     1002.606        0.435        0.300       50.121       34.677        0.479      338.535       11.254      859.076
03/29/2014  02:20:00       12.773      -56.105      -11.971       36.811       45.948       26.062     1355.077     2111.257      679.228        0.380        0.207       57.541       13.408        0.054      338.583       11.333      859.114
03/29/2014  02:21:00       76.429     -107.519       -5.297       80.791       86.230       56.389     6527.141     7435.537     3179.774        1.728        0.857      131.915       43.761        0.110      338.598       11.358      859.155
03/29/2014  02:22:00       82.752     -147.915      -26.434       95.190       85.861       37.341     9061.226     7372.075     1394.350        2.362        0.891      169.490       55.291        0.106      338.599       11.357      859.142
03/29/2014  02:23:00      -45.117      -87.191      -15.812       62.530       63.951       30.562     3910.015     4089.766      934.024        0.941        0.447       98.172       16.695        0.029      338.591       11.345      859.149
03/29/2014  02:24:00       25.304      -84.642       28.944       69.989       97.888       50.708     4898.401     9582.054     2571.273        1.284        0.853       88.343       46.197        0.273      338.599       11.360      859.156
03/29/2014  02:25:00       99.540      -32.006      110.697      185.107      213.988      124.578    34264.737    45791.029    15519.681        5.936        4.779      104.560      155.229        2.204      338.513       11.214      859.160
03/29/2014  02:26:00       34.291      -37.147      137.474       99.378      168.017      125.251     9875.906    28229.736    15687.769        3.761        2.690       50.554      104.682        4.288      338.540       11.259      859.065
03/29/2014  02:27:00       -5.041      -90.077       38.539      182.959      143.278       99.611    33473.877    20528.468     9922.308        3.676        3.196       90.218       73.361        0.661      338.663       11.464      859.064
03/29/2014  02:28:00      171.270     -194.003       23.939      161.248      206.754      129.591    26000.889    42747.414    16793.700        7.653        4.277      258.787      145.720        0.317      338.694       11.518      859.029
03/29/2014  02:29:00      121.243      -69.567       26.601      140.736      196.271       95.500    19806.639    38522.283     9120.299        4.383        3.372      139.783      116.492        0.695      338.772       11.650      859.113
03/29/2014  02:30:00      103.488     -186.880       12.510      140.684      151.951       91.381    19791.878    23089.046     8350.564        4.850        2.562      213.621       89.021        0.174      338.737       11.589      859.148
03/29/2014  02:31:00      120.403     -213.270       46.286      133.694      257.837      134.868    17873.953    66480.118    18189.301        8.231        5.127      244.910      163.396        0.445      338.592       11.345      859.053
03/29/2014  02:32:00       74.858       50.746      118.031      108.989      147.621       93.513    11878.647    21791.817     8744.762        3.225        2.121       90.438      110.189        1.484      338.537       11.255      859.065
03/29/2014  02:33:00      151.613       93.149       82.852      120.465       81.397       60.168    14511.768     6625.516     3620.165        3.164        1.238      177.941       72.415        0.166      338.560       11.293      859.053
03/29/2014  02:34:00       14.096       37.686       -4.455       49.157       34.717       36.630     2416.387     1205.289     1341.736        0.330        0.248       40.236       25.855        0.413      338.595       11.353      859.148
03/29/2014  02:35:00      -10.913       14.841       36.996       48.943       41.240       31.761     2395.426     1700.779     1008.748        0.341        0.255       18.422       22.561        1.500      338.586       11.336      859.159
03/29/2014  02:36:00      -89.602      -51.130       -7.165       76.594       78.592       38.723     5866.684     6176.750     1499.472        1.212        0.677      103.164       47.749        0.214      338.586       11.338      859.143
03/29/2014  02:37:00      -23.939      -77.138       11.397       92.022       76.543       44.146     8468.007     5858.855     1948.910        1.146        0.814       80.767       31.998        0.157      338.605       11.370      859.169
03/29/2014  02:38:00       24.466      -53.509        3.126       51.038       52.518       39.135     2604.865     2758.122     1531.533        0.518        0.345       58.837       32.723        0.309      338.681       11.498      859.175
03/29/2014  02:39:00      -68.364      -52.936       -4.530       54.666       29.557       25.958     2988.420      873.593      673.835        0.602        0.227       86.463       23.087        0.071      338.548       11.274      859.168
03/29/2014  02:40:00     -115.951      -54.846       10.049       60.185       44.082       31.195     3622.193     1943.256      973.122        1.154        0.327      128.268       27.081        0.045      338.529       11.241      859.224
03/29/2014  02:41:00     -112.665      -26.170       -0.603       76.933       53.630       35.536     5918.744     2876.189     1262.820        1.172        0.503      115.664       26.941        0.054      338.531       11.246      859.186
03/29/2014  02:42:00        9.416       16.116        4.509       55.600       58.741       22.774     3091.324     3450.474      518.642        0.371        0.353       18.665       18.843        1.019      338.582       11.331      859.063
03/29/2014  02:43:00       59.146      -70.400       -4.342       64.244      133.411       54.626     4127.313    17798.476     2983.954        1.669        1.245       91.948       76.464        0.692      338.594       11.352      859.016
03/29/2014  02:44:00       -5.192      -74.561        9.363       86.749      140.195       64.221     7525.371    19654.605     4124.324        1.848        1.565       74.741       53.065        0.504      338.712       11.549      859.048
03/29/2014  02:45:00       45.255     -212.304      -27.534      127.182      103.079       62.737    16175.247    10625.342     3935.879        3.930        1.537      217.074       45.236        0.043      338.799       11.693      859.082
03/29/2014  02:46:00       42.039     -193.436      -13.710      122.658       73.447       53.935    15045.023     5394.429     2908.946        3.136        1.167      197.951       45.465        0.053      338.809       11.710      859.064
03/29/2014  02:47:00      112.316     -169.620      -24.669      122.137       76.811       66.488    14917.405     5899.906     4420.611        3.361        1.262      203.435       55.064        0.073      338.646       11.438      859.038
03/29/2014  02:48:00       41.509      -99.926      -16.930       81.655       80.276       52.213     6667.504     6444.247     2726.224        1.391        0.792      108.204       47.190        0.190      338.634       11.418      859.100
03/29/2014  02:49:00      -76.878     -110.939       12.480       66.221       86.366       38.599     4385.178     7459.117     1489.855        1.585        0.667      134.973       36.775        0.074      338.640       11.426      859.130
03/29/2014  02:50:00     -161.969     -139.571       -5.483       93.567       56.879       40.653     8754.719     3235.218     1652.675        2.969        0.682      213.808       41.004        0.037      338.601       11.360      859.082
03/29/2014  02:51:00     -146.756     -102.144       12.202      131.673       76.789       50.405    17337.663     5896.547     2540.646        2.894        1.289      178.804       63.413        0.126      338.587       11.337      859.018
03/29/2014  02:52:00     -114.758     -106.650       12.534       88.531       88.233       42.341     7837.789     7785.103     1792.766        2.105        0.871      156.664       42.923        0.075      338.610       11.376      859.007
03/29/2014  02:53:00     -164.794      -73.976        0.119      102.666       62.532       41.064    10540.291     3910.267     1686.262        2.438        0.807      180.636       42.964        0.057      338.602       11.361      859.068
03/29/2014  02:54:00     -130.153      -89.646        6.324       91.703       63.188       39.263     8409.483     3992.678     1541.590        1.948        0.697      158.039       32.965        0.044      338.605       11.369      859.208
03/29/2014  02:55:00     -134.817     -135.390      -12.376       72.908       80.132       40.888     5315.519     6421.161     1671.836        2.503        0.670      191.065       37.566        0.039      338.685       11.503      859.163
03/29/2014  02:56:00     -102.679     -140.877      -13.515       64.987       44.820       37.988     4223.370     2008.864     1443.064        1.912        0.384      174.325       38.815        0.050      338.703       11.534      859.128
03/29/2014  02:57:00       15.786      -68.872       15.951       58.227       96.234       51.043     3390.363     9261.060     2605.396        1.025        0.763       70.658       59.514        0.709      338.793       11.686      859.118
03/29/2014  02:58:00      -26.793      -97.012      -14.065       84.825       60.904       41.710     7195.230     3709.299     1739.752        1.148        0.632      100.644       21.846        0.047      338.817       11.726      859.111
03/29/2014  02:59:00     -247.562      -89.887      -21.432      115.036      131.717       44.742    13233.277    17349.265     2001.821        5.120        1.629      263.376       46.909        0.032      338.711       11.545      859.020
03/29/2014  03:00:00     -246.305     -153.144       -8.216      118.601      101.126       57.788    14066.158    10226.421     3339.496        5.590        1.382      290.033       62.021        0.046      338.645       11.435      858.963
03/29/2014  03:01:00     -122.390      -77.318        8.869      120.406       45.566       43.430    14497.615     2076.305     1886.179        1.974        0.923      144.766       56.124        0.150      338.689       11.511      859.000
03/29/2014  03:02:00       11.770      -59.925       -9.701       49.739       51.242       32.505     2473.995     2625.765     1056.573        0.499        0.308       61.070       33.719        0.305      338.714       11.554      859.048
03/29/2014  03:03:00      115.632     -209.789      -30.501       98.037       79.307       54.871     9611.288     6289.542     3010.854        3.861        0.946      239.546       50.984        0.045      338.741       11.598      859.036
03/29/2014  03:04:00       25.710     -153.659      -30.164      116.900      116.478       75.620    13665.563    13567.211     5718.457        2.906        1.648      155.795       51.429        0.109      338.726       11.572      858.984
03/29/2014  03:05:00      -27.697     -111.373        7.367       67.607       68.150       62.601     4570.642     4644.383     3918.894        1.318        0.657      114.766       28.464        0.062      338.741       11.598      858.926
03/29/2014  03:06:00      -22.717        1.857       22.781      112.894       58.549       47.172    12745.121     3427.994     2225.235        0.971        0.920       22.793       37.833        2.755      338.626       11.405      858.885
03/29/2014  03:07:00     -121.414      -87.523      -10.037       92.181      125.925       45.391     8497.337    15857.044     2060.384        2.445        1.321      149.672       30.936        0.043      338.664       11.467      858.933
03/29/2014  03:08:00      -77.928     -321.884       -4.421      116.373      182.061       74.165    13542.756    33146.186     5500.417        8.094        2.609      331.182       70.154        0.045      338.506       11.201      858.998
03/29/2014  03:09:00      -97.705     -245.343        1.115       71.670       88.245       57.456     5136.545     7787.102     3301.220        4.298        0.811      264.082       46.902        0.032      338.553       11.279      859.011
03/29/2014  03:10:00      -71.993     -205.149        4.115       63.044       72.037       50.759     3974.509     5189.356     2576.485        2.951        0.587      217.414       42.950        0.039      338.560       11.291      858.892
03/29/2014  03:11:00     -119.957     -101.423      -10.448       91.951       69.721       43.065     8454.915     4861.028     1854.605        1.997        0.759      157.087       34.894        0.049      338.468       11.136      858.863
03/29/2014  03:12:00      -40.646     -171.983        4.283      108.703      112.882       47.463    11816.328    12742.340     2252.699        2.902        1.341      176.721       54.021        0.093      338.539       11.257      858.813
03/29/2014  03:13:00     -158.910      -58.272        4.064      167.500      108.231       60.999    28056.203    11713.985     3720.901        3.607        2.175      169.257       75.660        0.200      338.556       11.285      858.794
03/29/2014  03:14:00     -199.721      -21.110       -5.295       92.628       94.931       50.004     8580.022     9011.848     2500.374        3.022        1.005      200.833       33.765        0.028      338.529       11.240      858.738
03/29/2014  03:15:00     -287.105     -251.605      -15.566      138.181      112.933       55.749    19094.027    12753.900     3107.923        9.046        1.748      381.752       54.913        0.021      338.483       11.161      858.680
03/29/2014  03:16:00     -412.146     -227.899       -8.534      184.384      161.126       84.717    33997.398    25961.649     7176.984       14.449        3.357      470.959       82.081        0.030      338.498       11.187      858.555
03/29/2014  03:17:00     -419.173     -213.465        8.790      187.310      146.353       85.539    35085.046    21419.253     7316.945       14.257        3.191      470.397       81.362        0.030      338.473       11.145      858.418
03/29/2014  03:18:00     -289.039      -80.468       -0.055      166.670      122.811       71.553    27778.762    15082.564     5119.847        6.899        2.399      300.031       77.279        0.066      338.484       11.163      858.463
03/29/2014  03:19:00     -311.079     -212.689        4.893      227.295      141.333       89.378    51662.991    19975.069     7988.361       11.081        3.981      376.837      103.894        0.076      338.499       11.188      858.558
03/29/2014  03:20:00     -350.761     -186.080        5.540      163.161      153.420       90.659    26621.422    23537.835     8219.041       10.802        2.919      397.063       88.748        0.050      338.516       11.216      858.576
03/29/2014  03:21:00     -211.553     -158.399       -8.355      125.305      110.650       59.867    15701.460    12243.495     3584.054        5.072        1.576      264.282       42.857        0.026      338.514       11.214      858.589
03/29/2014  03:22:00     -240.795     -206.456      -12.767      154.585      143.750       66.512    23896.528    20663.999     4423.853        7.487        2.449      317.185       68.312        0.046      338.538       11.256      858.540
03/29/2014  03:23:00      -81.685      -71.117       29.201      127.227      101.373       67.031    16186.804    10276.550     4493.089        2.176        1.548      108.305       68.038        0.395      338.515       11.218      858.541
03/29/2014  03:24:00     -140.403     -223.363      -12.603       96.654      106.617       48.865     9342.029    11367.149     2387.829        4.643        1.155      263.826       52.001        0.039      338.642       11.429      858.543
03/29/2014  03:25:00     -108.308     -260.134       -0.674       79.391      117.105       51.513     6302.995    13713.591     2653.549        5.103        1.134      281.780       40.531        0.021      338.644       11.433      858.600
03/29/2014  03:26:00      -66.016     -301.819       -0.552       80.970      116.829       47.696     6556.117    13649.118     2274.905        5.896        1.124      308.955       23.633        0.006      338.673       11.480      858.576
03/29/2014  03:27:00     -183.557      -87.276      -12.648      124.195       80.054       52.193    15424.309     6408.623     2724.093        3.301        1.228      203.249       58.387        0.083      338.613       11.381      858.668
03/29/2014  03:28:00      -78.339     -159.469       -5.915       65.974       91.461       40.289     4352.549     8365.059     1623.215        2.297        0.717      177.672       21.375        0.014      338.589       11.341      858.694
03/29/2014  03:29:00     -135.042     -263.147       -2.063       99.828      139.924       51.220     9965.598    19578.718     2623.465        5.982        1.608      295.775       39.825        0.018      338.524       11.232      858.650
03/29/2014  03:30:00     -163.402     -199.984       -6.239      134.332       99.056       58.274    18045.123     9812.017     3395.860        4.899        1.563      258.252       66.961        0.067      338.527       11.237      858.656
03/29/2014  03:31:00     -166.857     -163.578        0.936      197.689      104.155       70.367    39080.993    10848.274     4951.538        5.473        2.744      233.664       90.446        0.150      338.529       11.240      858.687
03/29/2014  03:32:00     -240.158     -258.521        5.120      245.639      175.841       93.766    60338.709    30920.213     8792.115       11.227        5.003      352.858       67.536        0.037      338.474       11.145      858.583
03/29/2014  03:33:00     -266.294     -382.169        1.441      229.865      219.533       74.551    52838.106    48194.569     5557.848       16.176        5.330      465.795       90.788        0.038      338.424       11.061      858.561
03/29/2014  03:34:00     -207.911     -399.795       -9.765      256.141      278.262      115.004    65608.462    77429.514    13225.905       17.968        7.813      450.625      103.644        0.053      338.410       11.038      858.491
03/29/2014  03:35:00     -271.397     -130.582       14.562      234.981      211.441       93.249    55216.081    44707.272     8695.395        9.975        5.431      301.177      100.661        0.112      338.330       10.905      858.444
03/29/2014  03:36:00     -429.209     -164.615      -20.576      231.715      161.670       98.917    53691.728    26137.069     9784.619       15.066        4.481      459.694      121.337        0.070      338.301       10.857      858.368
03/29/2014  03:37:00     -332.051     -140.068       13.160      228.382      224.311       97.834    52158.320    50315.549     9571.515       12.103        5.602      360.384       97.121        0.073      338.215       10.713      858.306
03/29/2014  03:38:00     -541.994     -243.113      -30.166      252.114      177.041       93.808    63561.288    31343.509     8799.887       22.872        5.185      594.021      107.810        0.033      338.151       10.603      858.255
03/29/2014  03:39:00     -290.660     -152.472       16.797      236.235      188.442      111.340    55806.847    35510.449    12396.670       10.584        5.186      328.224      139.551        0.181      338.111       10.536      858.222
03/29/2014  03:40:00     -460.098     -233.838        6.923      274.137      216.998      100.059    75151.304    47088.234    10011.854       19.931        6.613      516.110      125.935        0.060      338.088       10.499      858.268
03/29/2014  03:41:00     -230.735     -122.302        5.145      194.248      134.919       89.874    37732.298    18203.121     8077.399        6.611        3.201      261.145       97.253        0.139      338.070       10.469      858.363
03/29/2014  03:42:00     -278.647     -231.913       -0.476      184.436      144.887       86.902    34016.607    20992.248     7551.906        9.698        3.128      362.530       70.178        0.037      338.065       10.461      858.402
03/29/2014  03:43:00     -393.059     -298.616       -2.037      228.740      138.163      104.441    52321.823    19089.007    10907.909       16.298        4.116      493.627      116.418        0.056      338.052       10.438      858.399
03/29/2014  03:44:00     -231.276     -238.073        1.980      173.419      110.648       75.231    30074.241    12243.059     5659.668        7.906        2.399      331.915       63.681        0.037      338.071       10.471      858.474
03/29/2014  03:45:00     -247.485     -349.764       -6.448      196.250      207.976       84.735    38514.228    43253.839     7180.019       13.627        4.447      428.467       84.755        0.039      338.081       10.486      858.521
03/29/2014  03:46:00     -198.551     -293.689       -1.301      192.712      212.985       85.878    37137.921    45362.758     7375.054       10.776        4.494      354.507       86.965        0.060      338.082       10.490      858.507
03/29/2014  03:47:00      -53.801     -208.022        5.059       67.631       87.788       53.492     4573.910     7706.709     2861.400        3.066        0.757      214.866       37.058        0.030      338.091       10.505      858.430
03/29/2014  03:48:00     -181.577     -140.905       -5.473      131.892      184.078       62.566    17395.527    33884.788     3914.547        5.401        2.760      229.836       58.702        0.065      338.116       10.546      858.353
03/29/2014  03:49:00     -139.657     -142.570        3.765       88.770       87.473       53.525     7880.137     7651.538     2864.929        2.912        0.920      199.575       41.310        0.043      338.098       10.515      858.382
03/29/2014  03:50:00     -231.032     -146.965      -14.840      131.120       99.872       53.021    17192.412     9974.368     2811.179        5.258        1.499      273.815       44.546        0.026      338.032       10.405      858.330
03/29/2014  03:51:00     -200.266     -176.436       -8.121      150.012      110.100       68.199    22503.599    12121.991     4651.110        5.528        1.964      266.901       65.182        0.060      338.011       10.370      858.314
03/29/2014  03:52:00      -99.593      -43.703      -10.650      135.472      101.447       49.927    18352.533    10291.478     2492.752        2.153        1.557      108.760       40.661        0.140      338.005       10.361      858.237
03/29/2014  03:53:00     -103.550      -44.673       18.374      146.705      121.168       58.480    21522.397    14681.749     3419.894        2.633        1.981      112.776       65.412        0.336      338.013       10.375      858.129
03/29/2014  03:54:00     -340.323     -221.299      -10.054      235.766      171.992      103.933    55585.471    29581.113    10802.027       13.041        4.798      405.947      113.383        0.078      337.955       10.276      858.153
03/29/2014  03:55:00     -483.541     -224.977      -14.122      223.356      188.367       95.953    49887.738    35481.979     9206.884       18.958        4.729      533.316      114.789        0.046      337.982       10.320      858.056
03/29/2014  03:56:00     -221.294     -121.875      -11.216      195.150      122.446       69.791    38083.657    14992.986     4870.818        6.094        2.897      252.635       74.464        0.087      337.956       10.277      858.031
03/29/2014  03:57:00     -354.001     -145.831        9.450      298.387      200.469      103.515    89034.875    40188.006    10715.342       14.328        6.997      382.862      114.338        0.089      337.934       10.240      858.037
03/29/2014  03:58:00     -284.128     -111.121       16.729      238.918      241.268      122.807    57081.982    58210.416    15081.503       11.184        6.519      305.085      116.937        0.147      337.933       10.239      858.058
03/29/2014  03:59:00     -540.054     -357.741      -25.604      222.448      187.884      106.412    49483.243    35300.421    11323.541       25.818        4.805      647.793      102.257        0.025      337.912       10.203      858.096
03/29/2014  04:00:00     -523.779     -339.720      -59.472      221.768      249.982      102.768    49181.234    62490.946    10561.344       25.774        6.112      624.303       90.012        0.021      337.983       10.322      858.107
03/29/2014  04:01:00     -353.307     -205.293       11.405      260.625      208.024       98.773    67925.354    43273.804     9756.155       14.400        6.048      408.621      114.612        0.079      337.962       10.287      858.070
03/29/2014  04:02:00     -243.017     -113.718        1.121      208.372      150.603       79.741    43418.731    22681.378     6358.675        7.221        3.623      268.308       78.104        0.085      337.928       10.231      858.031
03/29/2014  04:03:00     -178.454     -159.280       15.876      225.426      190.354      109.147    50816.723    36234.628    11913.111        7.820        4.948      239.198      127.921        0.286      337.903       10.189      857.995
03/29/2014  04:04:00     -375.443     -343.560        6.786      185.019      210.777       97.213    34232.053    44426.934     9450.458       17.356        4.405      508.911       98.217        0.037      337.923       10.222      857.994
03/29/2014  04:05:00     -121.794     -198.776       17.644      153.324      136.698       75.189    23508.240    18686.478     5653.346        5.124        2.392      233.122       85.916        0.136      337.920       10.216      858.007
03/29/2014  04:06:00     -308.958     -192.775       13.261      191.088      167.198       96.354    36514.560    27955.031     9284.045       10.326        3.688      364.166       97.959        0.072      337.959       10.281      857.959
03/29/2014  04:07:00     -414.431     -293.570      -34.928      227.047      210.011      104.245    51550.327    44104.808    10867.034       18.282        5.326      507.874      122.206        0.058      337.963       10.288      857.934
03/29/2014  04:08:00     -391.610     -173.596       14.245      255.435      253.778      116.304    65247.287    64403.311    13526.728       16.341        7.159      428.362      130.691        0.093      338.026       10.394      857.891
03/29/2014  04:09:00     -443.229     -222.147       -9.823      233.211      187.550       91.725    54387.496    35175.144     8413.502       17.192        4.899      495.783      100.422        0.041      338.023       10.391      857.871
03/29/2014  04:10:00     -164.240     -129.008        6.552      118.215      111.993       67.002    13974.876    12542.400     4489.208        3.733        1.550      208.848       61.375        0.086      337.992       10.339      857.916
03/29/2014  04:11:00     -311.575     -271.494        5.408      357.318      222.960      125.500   127675.838    49711.000    15750.238       18.194        9.657      413.265      163.372        0.156      338.081       10.487      857.900
03/29/2014  04:12:00     -485.067     -223.218      -25.621      238.062      196.839       99.289    56673.567    38745.671     9858.224       19.550        5.264      533.963      111.090        0.043      338.115       10.543      857.889
03/29/2014  04:13:00     -381.920     -294.839       -0.436      248.845      220.449      114.815    61923.812    48597.664    13182.412       17.822        6.185      482.486      121.107        0.063      338.121       10.553      857.954
03/29/2014  04:14:00     -497.360     -330.046       -2.172      236.109      161.142      100.186    55747.428    25966.892    10037.303       22.401        4.588      596.906       97.108        0.026      338.154       10.610      857.954
03/29/2014  04:15:00     -216.303     -161.416       18.076      249.615      182.873       97.407    62307.769    33442.429     9488.084        8.918        5.262      269.893      119.139        0.195      338.144       10.593      857.915
03/29/2014  04:16:00     -412.326      -89.107       -4.878      201.851      198.824       89.047    40743.842    39530.812     7929.387       13.307        4.410      421.845       98.340        0.054      338.130       10.570      857.953
03/29/2014  04:17:00     -270.702      -46.742        6.629      210.352      115.689       80.218    44247.997    13383.976     6434.849        6.977        3.203      274.708       97.347        0.126      338.137       10.582      857.991
03/29/2014  04:18:00     -182.678     -158.456      -17.481      233.191      159.067       76.153    54378.132    25302.205     5799.285        7.212        4.274      241.826       74.700        0.095      338.162       10.623      857.963
03/29/2014  04:19:00     -275.844     -144.930        8.638      225.759      175.425       78.417    50967.200    30773.929     6149.252        9.251        4.395      311.601       90.762        0.085      338.129       10.568      857.918
03/29/2014  04:20:00     -151.721      -60.366       14.863      150.908      100.333       57.775    22773.172    10066.722     3337.994        3.152        1.809      163.289       60.041        0.135      338.046       10.430      857.981
03/29/2014  04:21:00     -392.236     -251.668      -20.594      243.465      160.950       93.188    59275.340    25904.937     8683.985       15.572        4.693      466.032      101.041        0.047      338.044       10.426      858.014
03/29/2014  04:22:00     -300.301     -251.488      -28.703      208.334      134.642       74.933    43403.026    18128.570     5614.940       11.069        3.357      391.697       52.567        0.018      338.076       10.479      858.098
03/29/2014  04:23:00     -180.832     -143.726       -5.033      157.263      178.313       80.795    24731.557    31795.402     6527.819        5.821        3.153      230.992       67.193        0.085      338.048       10.433      858.142
03/29/2014  04:24:00     -259.504     -173.333        0.058      200.816      193.893       68.814    40327.112    37594.657     4735.354        9.001        4.133      312.068       73.258        0.055      338.037       10.413      858.103
03/29/2014  04:25:00     -295.997     -176.129       -7.570      263.321      216.035       85.853    69337.921    46671.055     7370.762       12.101        6.169      344.435      111.437        0.105      338.059       10.452      858.062
03/29/2014  04:26:00     -346.281     -294.867      -12.838      187.582      130.330       80.614    35187.116    16985.924     6498.553       13.284        2.934      454.816       79.919        0.031      338.106       10.528      858.043
03/29/2014  04:27:00     -277.542     -222.384      -11.030      161.372      132.668       60.082    26040.761    17600.804     3609.822        8.692        2.363      355.646       75.690        0.045      338.092       10.506      858.116
03/29/2014  04:28:00     -136.663     -169.247        3.769       98.370      143.306       62.313     9676.751    20536.613     3882.901        4.071        1.705      217.535       45.874        0.044      338.120       10.552      858.061
03/29/2014  04:29:00     -121.397     -112.173       -6.903       55.612       63.905       33.835     3092.745     4083.855     1144.829        1.784        0.416      165.288       18.560        0.013      338.085       10.496      858.056
03/29/2014  04:30:00     -109.501      -79.270       -0.110      120.214       87.828       43.402    14451.303     7713.843     1883.736        2.116        1.202      135.182       39.736        0.086      338.062       10.458      858.125
03/29/2014  04:31:00      -21.949      -54.767       16.217       95.171       89.290       54.370     9057.608     7972.739     2956.054        1.186        0.999       59.001       56.754        0.925      338.063       10.460      858.135
03/29/2014  04:32:00     -169.393     -113.892      -10.881       94.165      101.307       48.433     8867.023    10263.010     2345.798        3.163        1.074      204.121       26.900        0.017      338.096       10.512      858.093
03/29/2014  04:33:00     -102.967      -79.090       -3.667       66.986       99.809       36.464     4487.098     9961.781     1329.599        1.632        0.789      129.836       20.054        0.024      338.088       10.500      858.177
03/29/2014  04:34:00     -155.684      -49.512        1.627      227.444      131.065       59.166    51730.720    17178.039     3500.583        4.954        3.620      163.367       80.521        0.243      338.079       10.485      858.174
03/29/2014  04:35:00     -290.344     -310.306       -7.861      263.057      261.708      107.908    69198.789    68490.922    11644.214       16.496        7.467      424.958      110.365        0.067      338.174       10.641      858.188
03/29/2014  04:36:00     -381.695     -231.657       -0.704      200.568      181.913       76.564    40227.462    33092.510     5862.065       13.925        3.959      446.493       77.377        0.030      338.123       10.556      858.182
03/29/2014  04:37:00     -309.009     -185.230      -15.021      196.254      151.280       74.315    38515.671    22885.737     5522.652        9.846        3.346      360.273       60.272        0.028      338.107       10.529      858.216
03/29/2014  04:38:00     -122.812     -102.694        4.332      140.495      135.477       46.934    19738.756    18354.038     2202.784        3.296        2.015      160.090       54.053        0.114      338.089       10.502      858.198
03/29/2014  04:39:00     -228.406      -64.690       10.108      119.992      107.347       66.298    14398.187    11523.337     4395.370        4.338        1.516      237.390       65.828        0.077      338.041       10.421      858.148
03/29/2014  04:40:00      -36.475      -62.942        7.543       71.622       68.975       40.945     5129.736     4757.515     1676.526        0.845        0.578       72.747       22.596        0.096      338.106       10.531      858.129
03/29/2014  04:41:00     -219.913     -190.397        1.147      182.958      122.130       76.877    33473.625    14915.645     5910.122        6.945        2.715      290.883       90.828        0.097      338.094       10.509      858.079
03/29/2014  04:42:00     -133.228     -149.370        8.832      128.503      127.211       65.841    16512.930    16182.746     4334.981        3.858        1.852      200.153       61.137        0.093      338.077       10.482      858.103
03/29/2014  04:43:00     -229.458     -103.930      -13.098      163.023      102.492       63.709    26576.347    10504.577     4058.798        5.237        2.057      251.897       55.437        0.048      338.110       10.537      858.140
03/29/2014  04:44:00     -170.649     -137.184      -10.121      121.966      104.666       62.044    14875.633    10954.979     3849.468        3.886        1.484      218.953       61.243        0.078      338.158       10.617      858.177
03/29/2014  04:45:00     -227.166     -138.313       -1.262      159.985      116.442       57.421    25595.045    13558.795     3297.141        5.659        2.123      265.960       62.586        0.055      338.136       10.579      858.208
03/29/2014  04:46:00      -15.093     -177.822       -3.396       80.219      132.537       49.023     6435.030    17566.081     2403.215        2.913        1.320      178.461       38.416        0.046      338.271       10.809      858.235
03/29/2014  04:47:00     -196.400      -55.146       -8.963       75.909      167.078       61.474     5762.213    27915.207     3779.068        3.957        1.873      203.995       59.208        0.084      338.226       10.731      858.200
03/29/2014  04:48:00     -105.899     -135.918        3.039      115.453      121.952       58.631    13329.459    14872.356     3437.556        3.066        1.582      172.303       55.763        0.105      338.229       10.737      858.221
03/29/2014  04:49:00     -132.840     -139.379       14.056      107.085      131.380       58.996    11467.208    17260.708     3480.504        3.473        1.610      192.544       47.616        0.061      338.228       10.736      858.205
03/29/2014  04:50:00     -270.937     -327.912        4.804      194.394      190.746       91.507    37788.871    36384.216     8373.579       13.174        4.127      425.363      110.065        0.067      338.298       10.852      858.269
03/29/2014  04:51:00     -331.385     -238.812      -12.895      188.729      125.974       70.143    35618.577    15869.374     4919.982       11.170        2.820      408.469       67.018        0.027      338.302       10.859      858.389
03/29/2014  04:52:00      -67.600     -230.305       16.603      122.671      116.467       73.402    15048.281    13564.675     5387.823        4.594        1.700      240.021       45.244        0.036      338.403       11.028      858.492
03/29/2014  04:53:00      -89.094     -312.874      -23.280      139.496      104.134       67.968    19459.017    10843.818     4619.678        7.064        1.746      325.312       49.802        0.023      338.596       11.350      858.528
03/29/2014  04:54:00     -180.352     -184.853        3.323      190.881      127.545       74.313    36435.694    16267.815     5522.365        6.246        2.911      258.258       78.032        0.091      338.584       11.332      858.538
03/29/2014  04:55:00     -178.564     -123.147        8.438      224.208      110.656       65.196    50269.406    12244.725     4250.459        5.693        3.338      216.911       84.777        0.153      338.557       11.287      858.545
03/29/2014  04:56:00      -37.786     -178.892       47.657      241.489      175.381      100.146    58317.085    30758.376    10029.193        6.738        4.955      182.839       87.601        0.230      338.620       11.392      858.510
03/29/2014  04:57:00     -135.356     -278.677        8.858      289.992      224.537       87.293    84095.175    50416.643     7620.064       11.907        7.107      309.810       86.258        0.078      338.623       11.397      858.497
03/29/2014  04:58:00       24.330     -111.782       12.016      120.627      118.823       71.952    14550.913    14118.985     5177.139        2.353        1.692      114.399       56.972        0.248      338.589       11.341      858.470
03/29/2014  04:59:00      -73.674      -25.370       -3.309       99.689       80.839       43.578     9937.930     6534.968     1899.053        1.222        0.919       77.920       36.680        0.222      338.571       11.313      858.478
03/29/2014  05:00:00     -211.989     -163.394       -3.358      166.220      111.055       67.438    27629.254    12333.126     4547.943        5.807        2.226      267.651       68.920        0.066      338.510       11.208      858.439
03/29/2014  05:01:00     -117.537     -133.617        5.132      133.431      143.932       63.206    17803.756    20716.309     3995.026        3.710        2.126      177.956       66.694        0.140      338.560       11.294      858.478
03/29/2014  05:02:00     -169.178     -156.808        0.719      156.814      131.667       77.967    24590.609    17336.245     6078.781        5.060        2.400      230.673       81.761        0.126      338.511       11.208      858.432
03/29/2014  05:03:00      -36.804      -63.605       26.355       89.491      108.741       60.040     8008.720    11824.539     3604.750        1.476        1.172       73.485       58.577        0.635      338.518       11.223      858.404
03/29/2014  05:04:00     -237.840     -316.126        5.853      246.534      169.218       96.402    60778.888    28634.684     9293.409       12.760        4.935      395.606       89.773        0.051      338.532       11.246      858.349
03/29/2014  05:05:00     -221.075     -295.042       15.574      197.289      196.065      108.779    38922.915    38441.441    11832.835       11.266        4.460      368.679      127.564        0.120      338.494       11.181      858.331
03/29/2014  05:06:00     -150.072     -395.234       -6.494      146.132      142.970       58.726    21354.623    20440.386     3448.775       11.200        2.262      422.766       51.739        0.015      338.521       11.225      858.418
03/29/2014  05:07:00      -93.565     -287.307      -11.204      203.614      113.079       71.152    41458.806    12786.827     5062.581        7.535        2.965      302.158       43.918        0.021      338.531       11.243      858.433
03/29/2014  05:08:00     -274.188     -200.062      -37.230      179.038      146.537       57.278    32054.500    21472.998     3280.728        8.669        2.840      339.417       55.460        0.027      338.492       11.175      858.438
03/29/2014  05:09:00     -255.073     -125.552      -11.767      133.574       89.845       67.568    17842.137     8072.120     4565.417        5.572        1.524      284.298       66.267        0.054      338.410       11.040      858.496
03/29/2014  05:10:00     -178.003     -260.408       -9.579      132.713      181.286       78.548    17612.854    32864.654     6169.715        7.811        2.832      315.432       83.873        0.071      338.423       11.063      858.423
03/29/2014  05:11:00     -108.706      -85.121        6.685      106.780      109.423       64.028    11401.926    11973.358     4099.555        2.329        1.374      138.067       54.635        0.157      338.391       11.008      858.477
03/29/2014  05:12:00      -98.025      -61.919       -3.280      118.617       65.227       39.037    14070.040     4254.600     1523.865        1.665        0.992      115.944       50.465        0.189      338.391       11.008      858.449
03/29/2014  05:13:00     -272.490     -229.751      -29.351      203.991      176.546      105.709    41612.236    31168.477    11174.433       10.591        4.198      356.421      108.052        0.092      338.343       10.927      858.397
03/29/2014  05:14:00     -399.448     -273.618      -24.526      258.274      207.923       91.113    66705.536    43232.110     8301.574       17.661        5.912      484.175      126.972        0.069      338.342       10.926      858.361
03/29/2014  05:15:00     -541.485     -317.695      -16.302      286.781      205.177      106.504    82243.165    42097.791    11343.155       26.502        6.784      627.803      114.902        0.033      338.380       10.990      858.276
03/29/2014  05:16:00     -457.257     -277.633        6.767      270.680      207.226      116.806    73267.589    42942.802    13643.534       20.801        6.493      534.943      133.260        0.062      338.389       11.003      858.237
03/29/2014  05:17:00     -279.622     -205.869       -2.697      212.497      224.763       91.831    45155.086    50518.270     8432.872       11.232        5.205      347.233      104.667        0.091      338.408       11.034      858.194
03/29/2014  05:18:00     -221.641     -135.948       10.423      188.328      117.467       85.263    35467.618    13798.544     7269.738        6.211        2.827      260.012       91.737        0.124      338.402       11.025      858.189
03/29/2014  05:19:00     -331.244     -266.912      -19.597      172.710      131.402       84.679    29828.588    17266.570     7170.537       11.780        2.713      425.399       72.235        0.029      338.435       11.080      858.167
03/29/2014  05:20:00     -394.851     -262.872      -18.114      224.832      175.765       92.518    50549.312    30893.340     8559.614       15.765        4.500      474.351      108.211        0.052      338.434       11.080      858.221
03/29/2014  05:21:00     -276.940     -236.855        7.979      209.578      149.195       93.659    43923.106    22259.254     8771.973       10.389        3.748      364.412      109.343        0.090      338.450       11.105      858.135
03/29/2014  05:22:00     -239.949     -317.195        2.319      315.552      244.135      125.485    99573.223    59602.118    15746.382       16.652        8.746      397.729      125.053        0.099      338.645       11.434      858.175
03/29/2014  05:23:00     -313.442     -266.990        2.980      267.799      218.145      112.350    71716.370    47587.101    12622.577       15.071        6.596      411.740      144.999        0.124      338.736       11.587      858.254
03/29/2014  05:24:00      -66.420     -168.420       -2.138      149.187      171.574       78.476    22256.887    29437.757     6158.517        4.531        2.893      181.044       73.189        0.163      338.771       11.646      858.336
03/29/2014  05:25:00      -23.743     -141.167       -1.525      165.208      145.945       73.081    27293.592    21300.005     5340.771        3.720        2.697      143.150       60.683        0.180      338.772       11.647      858.250
03/29/2014  05:26:00     -114.329     -149.723      -13.930       85.565      118.347       50.047     7321.298    14006.064     2504.683        2.975        1.192      188.383       18.418        0.010      338.780       11.663      858.229
03/29/2014  05:27:00      -68.069     -105.849       20.004       75.813       71.708       47.549     5747.632     5142.018     2260.888        1.469        0.658      125.847       30.405        0.058      338.731       11.580      858.313
03/29/2014  05:28:00      -47.170      -38.617       14.452       63.960       86.321       47.505     4090.908     7451.240     2256.747        0.886        0.690       60.961       53.144        0.760      338.736       11.590      858.366
03/29/2014  05:29:00       30.600      -13.848       89.615      110.313      176.051      107.921    12168.903    30994.067    11646.942        3.197        2.740       33.588      123.203       13.455      338.713       11.550      858.270
03/29/2014  05:30:00       21.632     -125.987       -2.006      125.283      123.454       78.880    15695.736    15240.949     6222.010        2.674        1.858      127.830       77.098        0.364      338.778       11.659      858.292
03/29/2014  05:31:00      -24.089     -313.993       10.022      104.698      255.789       78.986    10961.611    65427.935     6238.779        9.093        4.131      314.916       86.293        0.075      338.771       11.647      858.395
03/29/2014  05:32:00     -104.444     -360.311      -24.237      144.792      162.697       86.473    20964.736    26470.276     7477.558        9.811        2.746      375.143       62.290        0.028      338.792       11.683      858.390
03/29/2014  05:33:00     -170.583     -222.970        1.792      101.571      103.178       59.127    10316.671    10645.598     3496.038        5.163        1.223      280.738       59.502        0.045      338.712       11.546      858.509
03/29/2014  05:34:00     -103.836     -248.892      -13.867      161.354      145.693       83.121    26035.180    21226.572     6909.024        6.354        2.709      269.684       54.470        0.041      338.807       11.707      858.464
03/29/2014  05:35:00      -23.814     -212.083       -4.075      111.092       89.220       56.331    12341.464     7960.184     3173.172        3.451        1.174      213.416       43.254        0.041      338.827       11.740      858.479
03/29/2014  05:36:00       30.693     -136.002      -12.097       72.611       81.042       59.705     5272.388     6567.794     3564.697        1.749        0.770      139.422       42.415        0.093      338.922       11.903      858.479
03/29/2014  05:37:00       -0.236      -17.424       57.881       81.550      103.904       66.499     6650.384    10796.009     4422.146        1.276        1.093       17.425       64.735       13.801      338.832       11.751      858.483
03/29/2014  05:38:00      -82.586       11.907        1.986       42.141       49.066       32.344     1775.901     2407.484     1046.128        0.610        0.261       83.440       22.805        0.075      338.815       11.723      858.446
03/29/2014  05:39:00     -117.988     -102.554       12.462       92.075       80.853       51.561     8477.818     6537.220     2658.516        2.113        0.884      156.328       45.908        0.086      338.774       11.654      858.404
03/29/2014  05:40:00     -239.076     -119.391        5.090      136.375       91.169       54.022    18598.260     8311.801     2918.355        5.063        1.491      267.230       53.910        0.041      338.705       11.536      858.393
03/29/2014  05:41:00     -245.098      -65.120        3.213       93.767       87.278       45.762     8792.263     7617.374     2094.160        4.141        0.925      253.602       44.655        0.031      338.684       11.500      858.485
03/29/2014  05:42:00      -95.510     -235.518      -17.066      124.439      196.297       60.035    15484.966    38532.351     3604.175        6.124        2.881      254.147       37.002        0.021      338.784       11.670      858.606
03/29/2014  05:43:00     -199.973     -140.405       -3.423      132.712      119.174       54.868    17612.380    14202.464     3010.443        4.726        1.741      244.341       55.166        0.051      338.762       11.631      858.533
03/29/2014  05:44:00     -203.590      -49.099      -12.950      115.849      105.817       59.961    13421.039    11197.279     3595.347        3.611        1.411      209.427       66.302        0.100      338.764       11.635      858.499
03/29/2014  05:45:00     -107.277       10.186        4.179       51.465       53.922       34.626     2648.660     2907.540     1198.946        0.919        0.338      107.759       29.083        0.073      338.736       11.590      858.466
03/29/2014  05:46:00       22.374       56.710       16.521       54.187       66.568       41.914     2936.220     4431.241     1756.793        0.656        0.456       60.964       26.877        0.194      338.709       11.546      858.363
03/29/2014  05:47:00       49.288        5.281       39.129       36.725       24.565       24.477     1348.720      603.448      599.111        0.327        0.128       49.570       15.346        0.096      338.675       11.488      858.294
03/29/2014  05:48:00       71.269       23.797       22.032       51.277       48.218       25.106     2629.349     2324.988      630.320        0.586        0.279       75.137       14.602        0.038      338.662       11.466      858.255
03/29/2014  05:49:00      167.417      106.833       16.209       62.711       47.534       39.573     3932.720     2259.464     1566.047        2.373        0.388      198.600       31.349        0.025      338.674       11.483      858.180
03/29/2014  05:50:00       80.942      104.290       67.786       63.355       57.590       44.375     4013.857     3316.658     1969.143        1.566        0.465      132.015       37.935        0.083      338.605       11.369      858.132
03/29/2014  05:51:00       54.865      -34.447       37.035       69.216      109.546       51.337     4790.897    12000.394     2635.521        1.249        0.971       64.782       61.586        0.904      338.606       11.371      858.151
03/29/2014  05:52:00       96.076     -112.028       17.894       90.815      138.442       78.266     8247.328    19166.129     6125.564        2.781        1.677      147.583       93.600        0.402      338.589       11.342      858.188
03/29/2014  05:53:00       98.318      -89.635        9.085       65.105       89.593       43.239     4238.664     8026.893     1869.597        1.596        0.707      133.045       39.525        0.088      338.653       11.449      858.250
03/29/2014  05:54:00       53.980     -156.378       13.201       64.281      142.364       48.941     4132.069    20267.506     2395.268        2.716        1.340      165.432       71.078        0.185      338.735       11.586      858.285
03/29/2014  05:55:00      106.718     -184.757       -2.645       67.300       96.224       56.587     4529.292     9259.023     3202.069        3.126        0.850      213.363       58.479        0.075      338.743       11.597      858.294
03/29/2014  05:56:00      118.312      -82.059       28.227       64.226       99.738       64.231     4125.028     9947.746     4125.672        1.986        0.910      143.984       69.102        0.230      338.686       11.503      858.314
03/29/2014  05:57:00      121.812      -45.665       15.931       78.657       71.935       50.628     6186.858     5174.676     2563.230        1.555        0.696      130.090       37.789        0.084      338.720       11.561      858.404
03/29/2014  05:58:00       47.969      -48.029       19.145       41.861       57.532       25.946     1752.360     3309.978      673.177        0.535        0.287       67.881       26.092        0.148      338.746       11.607      858.458
03/29/2014  05:59:00      132.859       76.419       45.008       99.485       73.487       57.567     9897.332     5400.412     3313.943        2.206        0.931      153.269       47.335        0.095      338.686       11.505      858.445
03/29/2014  06:00:00      170.916       97.809       24.031       92.922       83.502       53.760     8634.436     6972.618     2890.143        2.892        0.925      196.924       34.599        0.031      338.688       11.506      858.375
03/29/2014  06:01:00      120.368       66.544       18.410       98.450      103.755       50.460     9692.436    10765.104     2546.260        2.113        1.150      137.538       36.172        0.069      338.705       11.536      858.372
03/29/2014  06:02:00       74.876      -93.505       20.939       72.999      110.469       52.979     5328.907    12203.393     2806.826        1.756        1.017      119.790       42.487        0.126      338.777       11.658      858.425
03/29/2014  06:03:00      -21.895      -68.143        9.025      128.132       78.396       39.125    16417.871     6145.920     1530.743        1.464        1.205       71.574       33.995        0.226      338.733       11.583      858.532
03/29/2014  06:04:00     -112.434        7.815       -2.180       89.108       80.064       41.622     7940.202     6410.284     1732.408        1.439        0.804      112.705       46.074        0.167      338.621       11.395      858.594
03/29/2014  06:05:00     -163.036      -63.957      -10.337       73.713       52.803       39.255     5433.542     2788.142     1540.963        2.027        0.488      175.132       38.640        0.049      338.624       11.400      858.603
03/29/2014  06:06:00     -260.439      -47.857      -12.373       93.243       91.736       47.298     8694.342     8415.511     2237.102        4.481        0.967      264.799       40.176        0.023      338.589       11.340      858.586
03/29/2014  06:07:00     -256.782        1.022      -24.973      129.626       89.643       50.372    16802.794     8035.807     2537.327        4.696        1.369      256.784       39.089        0.023      338.628       11.407      858.537
03/29/2014  06:08:00     -269.449      -24.484      -16.059      106.607       73.231       45.447    11365.085     5362.813     2065.426        4.612        0.940      270.559       49.225        0.033      338.580       11.326      858.508
03/29/2014  06:09:00     -242.280      -78.693       -5.553       91.284       74.491       45.382     8332.744     5548.914     2059.504        4.043        0.797      254.740       36.223        0.020      338.559       11.289      858.456
03/29/2014  06:10:00     -268.275      -10.329      -19.214      109.405       64.972       42.643    11969.350     4221.386     1818.403        4.522        0.900      268.474       49.757        0.034      338.472       11.144      858.491
03/29/2014  06:11:00     -219.721      -94.337        4.673      163.853      144.000       77.948    26847.926    20735.857     6075.955        5.542        2.683      239.117       88.248        0.136      338.438       11.085      858.468
03/29/2014  06:12:00     -172.519      -47.120       -2.296      145.630       87.045       58.041    21208.167     7576.758     3368.706        3.206        1.608      178.838       71.982        0.162      338.409       11.038      858.453
03/29/2014  06:13:00     -249.204      -30.061      -16.677      137.424       92.087       43.918    18885.461     8479.969     1928.820        4.628        1.465      251.011       55.239        0.048      338.355       10.948      858.440
03/29/2014  06:14:00     -235.927       -0.527       -8.998       76.551       95.931       40.628     5860.096     9202.680     1650.651        3.622        0.836      235.927       38.989        0.027      338.287       10.832      858.388
03/29/2014  06:15:00     -223.364      -24.678       -8.994       94.299       87.816       48.845     8892.317     7711.591     2385.786        3.478        0.949      224.723       49.378        0.048      338.253       10.776      858.353
03/29/2014  06:16:00     -269.492      -40.088      -17.241      121.192      127.470       55.832    14687.398    16248.512     3117.176        5.428        1.703      272.458       51.923        0.036      338.211       10.705      858.339
03/29/2014  06:17:00     -283.065      -32.719       -2.953      119.008       74.890       55.393    14162.979     5608.581     3068.380        5.202        1.142      284.950       54.554        0.037      338.171       10.637      858.304
03/29/2014  06:18:00     -245.311      -44.277        1.315      111.727       64.919       44.286    12482.914     4214.513     1961.238        4.040        0.933      249.275       53.982        0.047      338.186       10.661      858.303
03/29/2014  06:19:00     -224.492        6.622      -16.179      132.644       92.677       50.968    17594.328     8588.982     2597.767        3.974        1.439      224.589       60.503        0.073      338.150       10.603      858.311
03/29/2014  06:20:00      -40.674       -2.872       19.238       64.881       60.912       54.330     4209.489     3710.245     2951.750        0.645        0.544       40.776       46.105        1.278      338.129       10.571      858.308
03/29/2014  06:21:00     -140.525      -51.122       22.722      130.424       82.452       61.979    17010.487     6798.373     3841.444        2.526        1.383      149.535       81.781        0.299      338.120       10.553      858.279
03/29/2014  06:22:00     -102.340      -73.625       -2.226       56.881       57.380       42.182     3235.448     3292.450     1779.346        1.210        0.415      126.072       25.888        0.042      338.119       10.553      858.274
03/29/2014  06:23:00     -142.021      -66.362       -8.341       80.399       64.330       38.832     6463.920     4138.372     1507.953        1.837        0.606      156.761       41.301        0.069      338.084       10.495      858.272
03/29/2014  06:24:00     -199.984      -95.168      -21.649      133.503       90.938       56.074    17823.141     8269.641     3144.308        3.937        1.462      221.473       62.626        0.080      338.091       10.505      858.237
03/29/2014  06:25:00     -117.067      -74.810       -3.723      191.552      107.311       67.111    36692.288    11515.701     4503.844        3.600        2.636      138.929       78.801        0.322      338.113       10.543      858.221
03/29/2014  06:26:00     -460.903     -112.681      -29.337      133.602      135.439       57.927    17849.508    18343.598     3355.527       13.276        1.977      474.477       55.603        0.014      338.120       10.551      858.235
03/29/2014  06:27:00     -272.473        7.812      -22.751       92.706       98.842       44.998     8594.495     9769.768     2024.851        4.760        1.019      272.585       46.389        0.029      338.084       10.492      858.234
03/29/2014  06:28:00     -199.272      -70.679       -4.112      113.113       72.744       48.545    12794.550     5291.745     2356.587        3.258        1.022      211.435       27.027        0.016      338.068       10.465      858.261
03/29/2014  06:29:00      -11.750     -127.944       16.309       73.117       87.749       52.884     5346.025     7699.811     2796.764        1.631        0.792      128.482       35.777        0.078      338.113       10.541      858.211
03/29/2014  06:30:00     -484.278     -201.958      -25.567      270.383      195.669       86.887    73106.880    38286.430     7549.387       19.743        5.947      524.702       95.720        0.033      338.339       10.919      858.078
03/29/2014  06:31:00     -409.954     -260.295       -3.008      193.717      147.056       89.645    37526.305    21625.444     8036.170       15.149        3.359      485.609       80.259        0.027      338.714       11.551      858.009
03/29/2014  06:32:00     -126.175     -206.168      -11.002      151.650      108.659       55.633    22997.574    11806.847     3095.060        4.822        1.895      241.713       68.457        0.080      338.723       11.567      858.150
03/29/2014  06:33:00     -124.091     -147.597       -7.280       77.038       99.429       39.714     5934.851     9886.191     1577.224        2.731        0.870      192.830       33.987        0.031      338.711       11.546      858.209
03/29/2014  06:34:00     -119.657     -205.452      -15.286       81.874       72.738       43.809     6703.399     5290.812     1919.263        3.533        0.696      237.757       43.854        0.034      338.657       11.454      858.292
03/29/2014  06:35:00     -161.865     -193.607       -4.824       83.502       81.014       49.519     6972.557     6563.202     2452.160        3.984        0.799      252.357       20.661        0.007      338.658       11.456      858.383
03/29/2014  06:36:00     -111.390     -151.066      -15.224       64.494       54.621       42.332     4159.435     2983.491     1792.036        2.220        0.447      187.693       26.754        0.020      338.764       11.636      858.480
03/29/2014  06:37:00      -72.420      -56.422       -5.454       58.983       39.684       30.356     3478.980     1574.854      921.480        0.722        0.299       91.805       28.366        0.095      338.736       11.590      858.522
03/29/2014  06:38:00     -150.877      -86.030       -5.056       74.400       68.866       31.441     5535.408     4742.471      988.516        2.073        0.563      173.681       25.671        0.022      338.711       11.545      858.529
03/29/2014  06:39:00     -121.474     -109.294        0.741       79.352       87.887       36.376     6296.774     7724.182     1323.196        2.102        0.767      163.405       41.389        0.064      338.706       11.538      858.507
03/29/2014  06:40:00     -203.522      -76.207      -11.624      105.060       86.456       45.847    11037.627     7474.707     2101.935        3.399        1.031      217.322       52.487        0.058      338.754       11.619      858.427
03/29/2014  06:41:00     -111.314      -19.890       -1.043      100.288       66.516       45.632    10057.671     4424.350     2082.321        1.467        0.828      113.077       52.977        0.219      338.674       11.485      858.364
03/29/2014  06:42:00     -204.392     -130.925       -1.085      132.840       96.484       49.503    17646.567     9309.226     2450.577        4.416        1.470      242.729       47.218        0.038      338.674       11.482      858.374
03/29/2014  06:43:00     -234.690     -169.632      -10.163      188.585      106.539       64.168    35564.430    11350.513     4117.522        6.748        2.552      289.576       81.547        0.079      338.543       11.263      858.398
03/29/2014  06:44:00     -326.569     -259.104       -2.490      197.083      154.163       92.871    38841.685    23766.093     8625.098       12.250        3.562      416.872      117.034        0.079      338.387       11.000      858.367
03/29/2014  06:45:00     -546.207      -63.592      -32.444      261.251      193.890       97.156    68252.069    37593.471     9439.237       20.934        5.764      549.897       97.046        0.031      338.372       10.975      858.391
03/29/2014  06:46:00     -497.198     -105.573       -7.212      179.456      141.864       80.544    32204.451    20125.360     6487.370       15.860        2.941      508.283       88.598        0.030      338.147       10.598      858.470
03/29/2014  06:47:00     -239.930     -139.653      -10.914      134.117      136.195       71.391    17987.328    18548.966     5096.664        5.940        2.082      277.613       69.739        0.063      338.267       10.799      858.571
03/29/2014  06:48:00     -369.878      -81.069      -13.688      189.288      118.834       72.694    35830.088    14121.587     5284.478        9.939        2.762      378.658       83.150        0.048      338.146       10.597      858.617
03/29/2014  06:49:00     -345.500     -111.059      -15.590      117.226      105.561       58.476    13741.856    11143.073     3419.444        8.012        1.415      362.911       47.015        0.017      337.909       10.196      858.598
03/29/2014  06:50:00     -237.317      -28.901      -23.878      123.124      101.086       69.942    15159.628    10218.412     4891.856        4.399        1.513      239.070       67.486        0.080      337.820       10.050      858.560
03/29/2014  06:51:00     -395.272      -77.545      -35.898       98.472      147.373       60.089     9696.743    21718.819     3610.647        9.928        1.751      402.807       58.281        0.021      337.814       10.039      858.489
03/29/2014  06:52:00     -458.186     -146.826      -18.307      123.212      121.007       75.467    15181.287    14642.757     5695.234       13.367        1.776      481.136       75.610        0.025      337.781        9.984      858.399
03/29/2014  06:53:00     -460.263      -44.677      -48.416      148.933      163.386       68.771    22180.920    26694.939     4729.473       13.488        2.680      462.426       69.815        0.023      337.729        9.896      858.293
03/29/2014  06:54:00     -363.843     -144.315      -13.035      193.060      120.585       83.978    37272.122    14540.663     7052.246       10.611        2.943      391.419       95.179        0.059      337.727        9.892      858.171
03/29/2014  06:55:00     -536.672     -168.084       -8.335      187.668      186.475       89.858    35219.363    34773.085     8074.514       19.719        3.903      562.378       88.071        0.025      337.691        9.834      858.121
03/29/2014  06:56:00     -514.794      -97.286      -28.736      220.118      190.947      102.359    48452.025    36460.895    10477.365       18.533        4.770      523.906      107.964        0.042      337.686        9.825      858.105
03/29/2014  06:57:00     -514.049     -166.587      -65.588      194.429      140.929       80.872    37802.528    19860.957     6540.230       18.024        3.210      540.368       58.215        0.012      337.685        9.824      858.025
03/29/2014  06:58:00     -236.738      -87.876      -13.915      202.773      161.565       91.713    41116.973    26103.400     8411.328        6.978        3.782      252.521       91.650        0.132      337.756        9.943      857.946
03/29/2014  06:59:00     -100.510        3.513       -0.836      162.431       78.496       69.066    26383.909     6161.694     4770.063        2.371        1.866      100.572       87.025        0.749      337.765        9.960      857.960
03/29/2014  07:00:00     -220.768       10.503        1.675      106.557      110.615       64.725    11354.483    12235.608     4189.374        3.831        1.389      221.018       56.696        0.066      337.749        9.931      857.986
03/29/2014  07:01:00     -199.700      -12.239      -28.987      114.356      108.841       60.920    13077.310    11846.387     3711.193        3.475        1.432      200.075       57.442        0.082      337.824       10.057      857.989
03/29/2014  07:02:00     -192.389     -103.697       -0.953      125.098      111.931       61.618    15649.482    12528.453     3796.746        3.986        1.599      218.556       52.530        0.058      337.841       10.084      858.044
03/29/2014  07:03:00     -335.031     -172.201       11.466      245.222      182.119       93.321    60133.899    33167.506     8708.857       12.200        5.101      376.694      107.192        0.081      338.190       10.671      858.050
03/29/2014  07:04:00     -443.292     -210.119       -9.731      226.078      215.639       93.047    51111.367    46500.281     8657.704       17.349        5.313      490.569       81.620        0.028      338.511       11.209      858.043
03/29/2014  07:05:00     -395.044     -136.459      -21.437      170.562      151.655       61.988    29091.486    22999.212     3842.453       11.553        2.797      417.948       66.463        0.025      338.743       11.599      858.075
03/29/2014  07:06:00     -407.546      -95.175       -7.744      132.190      100.242       55.654    17474.102    10048.557     3097.367       10.291        1.531      418.512       68.190        0.027      338.864       11.802      857.971
03/29/2014  07:07:00     -311.810      -66.893       -4.045      138.963       99.646       59.096    19310.702     9929.258     3492.360        6.722        1.637      318.905       65.269        0.042      338.857       11.791      857.940
03/29/2014  07:08:00     -297.757     -104.260        4.968      147.837      112.672       61.183    21855.790    12694.931     3743.386        6.892        1.915      315.483       75.327        0.057      338.801       11.698      857.962
03/29/2014  07:09:00     -363.979      -81.206       12.839      205.766      169.669       94.095    42339.760    28787.714     8853.812       10.959        3.999      372.928       97.485        0.068      338.762       11.631      857.953
03/29/2014  07:10:00     -346.641     -185.914       -2.189      177.992      146.978       88.661    31680.995    21602.480     7860.772       10.792        3.057      393.350       88.564        0.051      338.773       11.649      857.923
03/29/2014  07:11:00     -137.474       13.609       -5.819      109.998      105.980       56.000    12099.517    11231.689     3135.953        2.279        1.323      138.146       54.653        0.157      338.757       11.624      857.929
03/29/2014  07:12:00     -268.723     -199.928      -15.043      158.916      159.304       83.437    25254.156    25377.664     6961.651        8.499        2.880      334.938       77.091        0.053      338.760       11.628      857.968
03/29/2014  07:13:00     -448.856     -281.289       -9.510      199.507      229.123      108.428    39803.079    52497.159    11756.552       19.235        5.203      529.713      102.609        0.038      338.734       11.584      858.023
03/29/2014  07:14:00     -311.070     -146.043        5.948      206.728      216.289       91.636    42736.400    46780.727     8397.173       10.800        4.896      343.647      103.053        0.090      338.734       11.585      858.119
03/29/2014  07:15:00     -368.208      115.394      -35.043      170.346      111.997       80.427    29017.869    12543.289     6468.532        9.907        2.401      385.866       83.614        0.047      338.750       11.611      858.157
03/29/2014  07:16:00     -293.027       57.903      -26.356      161.301      138.236       70.490    26018.125    19109.114     4968.870        6.999        2.505      298.693       68.329        0.052      338.733       11.582      858.124
03/29/2014  07:17:00     -359.874     -117.417      -12.440      139.731      120.842       68.716    19524.660    14602.760     4721.896        9.114        1.942      378.545       59.487        0.025      338.758       11.624      858.075
03/29/2014  07:18:00     -114.827        1.733      -10.865       98.505       63.117       41.872     9703.255     3983.806     1753.289        1.437        0.772      114.840       49.649        0.187      338.762       11.633      857.977
03/29/2014  07:19:00     -121.270      -46.515       10.760       92.915       82.144       55.203     8633.228     6747.598     3047.333        1.770        0.921      129.884       41.913        0.104      338.746       11.605      857.855
03/29/2014  07:20:00     -104.452      -51.935        5.515       80.249       74.077       41.508     6439.935     5487.356     1722.873        1.364        0.683      116.651       28.938        0.062      338.730       11.579      857.781
03/29/2014  07:21:00      -88.723       28.777        2.082      130.103      127.286       66.089    16926.889    16201.742     4367.714        2.309        1.875       93.273       74.058        0.630      338.726       11.572      857.764
03/29/2014  07:22:00     -186.739      -27.703      -15.178       78.741       91.392       37.299     6200.219     8352.522     1391.245        2.590        0.797      188.782       19.747        0.011      338.708       11.542      857.880
03/29/2014  07:23:00     -187.737      -50.954        3.577      125.921       82.848       49.816    15856.200     6863.841     2481.677        3.152        1.260      194.529       49.694        0.065      338.713       11.551      857.921
03/29/2014  07:24:00     -249.623     -126.445       -7.050      149.071       84.278       50.577    22222.109     7102.851     2558.068        5.511        1.594      279.822       61.923        0.049      338.747       11.606      857.910
03/29/2014  07:25:00     -204.816     -205.714       -4.323      119.765      121.533       56.746    14343.765    14770.275     3220.105        5.830        1.617      290.290       64.777        0.050      338.750       11.612      857.967
03/29/2014  07:26:00     -228.667     -351.206      -10.507      166.893      147.865       74.691    27853.279    21863.959     5578.737       11.551        2.765      419.087       68.162        0.026      338.804       11.702      858.030
03/29/2014  07:27:00      -96.385     -220.598       21.625      152.234      153.456       89.229    23175.286    23548.858     7961.797        5.654        2.734      240.735       73.038        0.092      338.844       11.769      858.011
03/29/2014  07:28:00     -165.069     -259.524       -2.658      120.511      179.902       68.389    14522.911    32364.646     4677.119        7.308        2.578      307.572       56.118        0.033      338.784       11.667      858.125
03/29/2014  07:29:00     -211.549      -46.713       12.416      148.118      103.650       70.617    21938.981    10743.388     4986.723        4.237        1.883      216.645       66.265        0.094      338.731       11.579      858.083
03/29/2014  07:30:00     -392.555     -143.105        7.826      271.003      139.682       86.965    73442.398    19511.045     7562.914       13.756        5.026      417.826      110.934        0.070      338.754       11.619      858.067
03/29/2014  07:31:00     -266.191     -143.875       18.555      236.931      154.044       80.930    56136.254    23729.546     6549.662        8.914        4.321      302.585       88.198        0.085      338.800       11.696      858.108
03/29/2014  07:32:00     -194.225     -186.096        8.126      140.734      138.186       61.827    19806.010    19095.463     3822.544        5.756        2.136      268.989       71.031        0.070      338.829       11.744      858.170
03/29/2014  07:33:00     -162.918     -227.606       -4.634      109.672      100.396       67.030    12028.033    10079.338     4492.963        5.248        1.330      279.905       46.986        0.028      338.844       11.766      858.239
03/29/2014  07:34:00     -304.978     -198.542      -14.868      198.487      143.624       76.856    39397.263    20627.716     5906.894        9.928        3.297      363.910       94.806        0.068      338.819       11.726      858.209
03/29/2014  07:35:00     -246.345     -252.409       -1.735      179.044      159.843       87.002    32056.719    25549.904     7569.369        9.477        3.259      352.698       85.441        0.059      338.825       11.736      858.242
03/29/2014  07:36:00       -1.751     -106.583        1.997      158.049      105.752       73.236    24979.584    11183.544     5363.501        2.644        2.076      106.597       72.580        0.464      338.878       11.827      858.308
03/29/2014  07:37:00      -63.527      -71.821       13.226       91.001      111.837       37.310     8281.152    12507.488     1392.040        1.577        1.109       95.886       30.088        0.098      338.930       11.916      858.377
03/29/2014  07:38:00     -244.726     -112.919        0.744      144.989       99.495       53.611    21021.790     9899.276     2874.101        5.321        1.690      269.521       57.910        0.046      338.807       11.708      858.357
03/29/2014  07:39:00     -187.881     -104.373        6.793      115.719      144.813       63.486    13390.792    20970.691     4030.458        4.231        1.920      214.925       72.904        0.115      338.817       11.725      858.349
03/29/2014  07:40:00     -227.828     -198.351       -0.074      132.774      113.938       65.503    17628.884    12981.979     4290.595        6.307        1.745      302.075       72.717        0.058      338.799       11.693      858.384
03/29/2014  07:41:00     -113.045       33.381        1.884       97.055       93.892       52.612     9419.665     8815.686     2768.063        1.745        1.050      117.870       49.534        0.177      338.793       11.687      858.349
03/29/2014  07:42:00     -176.768       13.918       -6.544       83.756       67.897       40.870     7015.062     4610.007     1670.385        2.239        0.665      177.315       35.499        0.040      338.783       11.666      858.309
03/29/2014  07:43:00      -64.823       21.256        7.314       83.005       46.173       27.766     6889.825     2131.924      770.943        0.725        0.490       68.219       29.197        0.183      338.829       11.745      858.303
03/29/2014  07:44:00      -46.741      -13.428        5.140       45.987       30.621       20.170     2114.794      937.634      406.833        0.292        0.173       48.632       20.304        0.174      338.866       11.809      858.371
03/29/2014  07:45:00      -85.376      -55.474        0.265       80.334       67.132       39.658     6453.541     4506.679     1572.730        1.145        0.627      101.816       38.925        0.146      338.863       11.803      858.393
03/29/2014  07:46:00     -140.256      -41.306        8.200      128.540       79.754       49.572    16522.626     6360.647     2457.416        2.339        1.267      146.212       54.797        0.140      338.822       11.733      858.310
03/29/2014  07:47:00     -124.326      -91.318       -5.896       92.383       63.779       34.770     8534.661     4067.699     1208.972        1.882        0.691      154.259       33.400        0.047      338.777       11.658      858.306
03/29/2014  07:48:00      -83.150      -51.867        3.541       68.324       41.392       39.237     4668.116     1713.336     1539.533        0.877        0.396       98.000       41.171        0.176      338.793       11.686      858.327
03/29/2014  07:49:00     -186.032       32.443      -12.239      105.669       60.636       41.104    11165.976     3676.685     1689.555        2.617        0.827      188.840       34.272        0.033      338.790       11.682      858.290
03/29/2014  07:50:00      -10.323      -20.938       34.667       97.421      130.384       66.218     9490.829    17000.079     4384.844        1.631        1.544       23.345       75.185       10.372      338.942       11.934      858.369
03/29/2014  07:51:00       13.377     -235.893        1.522      161.127      138.371       77.014    25961.815    19146.509     5931.106        5.342        2.552      236.272       68.895        0.085      338.967       11.974      858.408
03/29/2014  07:52:00       67.599      -68.379       15.811      127.644      117.238       68.011    16293.015    13744.778     4625.495        2.207        1.733       96.153       64.267        0.447      338.984       12.007      858.325
03/29/2014  07:53:00       96.494       48.839      102.495      136.597      121.389       88.885    18658.806    14735.343     7900.507        3.174        2.065      108.149       93.939        0.754      338.957       11.961      858.201
03/29/2014  07:54:00      211.913      -18.804       98.849      208.223      239.088      176.279    43356.719    57163.027    31074.402        9.329        6.580      212.746      172.864        0.660      338.929       11.911      858.086
03/29/2014  07:55:00       45.995     -156.936       75.401      119.126      233.189      109.472    14191.088    54376.963    11984.102        5.647        4.028      163.538      134.609        0.678      339.100       12.199      858.148
03/29/2014  07:56:00       27.057     -290.546       14.904      153.655      235.873       83.717    23609.952    55635.916     7008.491        8.580        4.313      291.803      103.936        0.127      339.105       12.207      858.207
03/29/2014  07:57:00       13.899     -149.075       20.075      121.264      119.142       77.535    14705.061    14194.877     6011.683        2.886        1.746      149.721       67.914        0.206      339.171       12.319      858.159
03/29/2014  07:58:00       -5.700      -37.621       63.078      142.586      186.984       86.659    20330.766    34962.949     7509.812        3.410        3.140       38.050       89.181        5.493      339.134       12.258      858.137
03/29/2014  07:59:00       91.198     -366.399       26.350      247.122      247.660      144.028    61069.233    61335.508    20744.011       14.318        7.157      377.578      125.036        0.110      339.086       12.176      858.086
03/29/2014  08:00:00      139.180     -146.445       35.151      152.283      132.033       92.771    23189.980    17432.820     8606.512        4.563        2.461      202.032       74.237        0.135      339.152       12.288      858.113
03/29/2014  08:01:00     -291.763     -240.900      -11.039      135.894      151.904       82.200    18467.055    23074.812     6756.879        9.578        2.415      378.363       76.844        0.041      339.042       12.101      858.166
03/29/2014  08:02:00     -412.405     -197.789      -21.483      152.368      148.640       86.308    23215.960    22093.852     7449.087       13.120        2.638      457.382       65.543        0.021      339.007       12.042      858.220
03/29/2014  08:03:00     -457.484     -164.084        2.990      237.910      184.669       88.967    56601.258    34102.605     7915.113       16.740        4.931      486.020       97.574        0.040      338.945       11.938      858.131
03/29/2014  08:04:00     -287.627     -126.392        6.160      222.244      119.439       71.538    49392.449    14265.704     5117.696        8.375        3.439      314.172       98.257        0.098      338.981       12.000      858.116
03/29/2014  08:05:00       97.448       51.113       72.351      181.726      146.525      100.004    33024.508    21469.699    10000.836        4.091        3.225      110.039       64.072        0.339      339.126       12.244      858.195
03/29/2014  08:06:00      120.459      -23.902       35.679       97.247      152.509       63.344     9456.997    23258.960     4012.450        2.653        1.836      122.808       84.493        0.473      339.048       12.113      858.096
03/29/2014  08:07:00      -71.376      -85.121       -1.360      106.145       52.353       42.706    11266.784     2740.881     1823.843        1.408        0.792      111.086       29.268        0.069      339.182       12.339      858.147
03/29/2014  08:08:00      -31.364     -110.063       30.155      125.515       99.097       62.453    15754.127     9820.145     3900.414        2.173        1.474      114.445       59.674        0.272      339.169       12.316      858.277
03/29/2014  08:09:00     -161.811     -248.999      -28.622      152.512      164.724       92.138    23259.925    27134.149     8489.434        7.393        2.944      296.957       77.911        0.069      339.033       12.086      858.323
03/29/2014  08:10:00     -149.101      -47.930        1.958      160.472      104.302       46.934    25751.132    10878.966     2202.820        3.167        1.942      156.616       64.453        0.169      339.031       12.085      858.211
03/29/2014  08:11:00       84.155       35.186       80.526      147.896      147.440      113.706    21873.230    21738.572    12928.975        3.566        2.827       91.215       98.335        1.162      339.127       12.245      858.108
03/29/2014  08:12:00      -36.566       11.061       56.994      142.855      113.888       67.566    20407.492    12970.526     4565.224        2.132        1.897       38.203       53.348        1.950      339.148       12.281      858.059
03/29/2014  08:13:00       64.444       26.274       42.500      119.205      123.875       79.866    14209.912    15345.119     6378.619        2.128        1.797       69.594       78.090        1.259      339.144       12.275      858.020
03/29/2014  08:14:00       10.390     -133.772       13.591      183.558      151.132       86.344    33693.426    22840.853     7455.364        4.108        3.199      134.174       81.137        0.366      339.188       12.347      858.083
03/29/2014  08:15:00     -154.065     -134.594       -1.472      192.048      129.304       78.896    36882.461    16719.439     6224.578        5.083        2.991      204.577      106.232        0.270      339.158       12.295      858.195
03/29/2014  08:16:00     -210.738     -137.193        9.273      148.245       92.418       58.665    21976.486     8541.018     3441.597        4.863        1.698      251.461       56.731        0.051      339.123       12.238      858.239
03/29/2014  08:17:00     -109.502     -137.748       10.827       79.460      144.141       49.996     6313.824    20776.657     2499.595        3.033        1.480      175.969       42.979        0.060      339.088       12.181      858.229
03/29/2014  08:18:00       24.863     -158.863        4.621      120.192      116.007       71.969    14446.012    13457.576     5179.486        2.947        1.654      160.796       48.840        0.092      339.208       12.382      858.055
03/29/2014  08:19:00      149.154     -224.805      -21.041      121.166      127.103       73.374    14681.294    16155.175     5383.721        5.472        1.811      269.785       64.615        0.057      339.131       12.251      857.866
03/29/2014  08:20:00       11.270     -123.902       29.571       82.293      124.031       58.735     6772.164    15383.811     3449.762        2.097        1.280      124.414       55.974        0.202      339.209       12.385      857.802
03/29/2014  08:21:00       84.260     -147.203       21.152       92.796      127.427       83.196     8611.179    16237.619     6921.549        3.049        1.589      169.613       58.399        0.119      339.173       12.322      857.880
03/29/2014  08:22:00      172.392     -210.816       33.836      171.545      206.574      100.326    29427.527    42672.779    10065.371        7.872        4.108      272.328      123.032        0.204      339.112       12.220      857.974
03/29/2014  08:23:00      166.761     -195.658        1.337      139.547      179.616       94.800    19473.335    32261.908     8986.983        6.340        3.036      257.082      104.062        0.164      339.116       12.228      857.961
03/29/2014  08:24:00     -272.451     -147.937       -1.875      132.107      102.910       55.297    17452.243    10590.529     3057.760        6.360        1.555      310.024       67.187        0.047      339.090       12.182      857.937
03/29/2014  08:25:00     -338.621     -250.308       -9.488      198.509      185.858       72.403    39405.947    34543.099     5242.141       12.828        3.960      421.092       85.116        0.041      339.046       12.108      857.895
03/29/2014  08:26:00     -293.378     -177.696       -4.367      179.070      151.440       72.743    32065.888    22934.063     5291.474        8.897        3.015      342.996       90.503        0.070      339.002       12.035      857.948
03/29/2014  08:27:00     -270.331     -348.322      -30.081      175.349      263.103       80.954    30747.164    69222.933     6553.540       15.090        5.326      440.916       95.155        0.047      339.033       12.088      858.067
03/29/2014  08:28:00     -100.578     -295.702        7.538       96.447      186.224       63.293     9301.967    34679.457     4005.951        7.279        2.399      312.339       40.783        0.017      339.037       12.095      858.202
03/29/2014  08:29:00       57.232      121.820      106.210      166.192      115.246       93.948    27619.819    13281.636     8826.153        3.955        2.486      134.595      111.590        0.687      339.104       12.206      858.047
03/29/2014  08:30:00      157.997       78.274       38.578      107.095      178.814       90.075    11469.254    31974.437     8113.579        4.206        2.578      176.323       45.770        0.067      338.973       11.986      857.916
03/29/2014  08:31:00      -16.086     -141.553       -0.818      171.921       91.229       70.003    29556.840     8322.789     4900.410        3.153        2.139      142.464       52.727        0.137      339.041       12.099      857.957
03/29/2014  08:32:00       57.980     -110.727       27.614      115.130      119.357       76.857    13254.883    14246.181     5907.002        2.489        1.670      124.988       65.615        0.276      339.106       12.210      858.020
03/29/2014  08:33:00       26.026     -131.164        8.015       78.750      112.689       49.329     6201.624    12698.842     2433.393        1.964        1.067      133.721       54.447        0.166      339.074       12.156      858.123
03/29/2014  08:34:00       61.697     -102.385        1.744      120.205      107.396       51.780    14449.162    11534.000     2681.178        2.147        1.433      119.537       36.691        0.094      339.080       12.167      857.989
03/29/2014  08:35:00      -29.559     -250.180      -11.102      143.210      203.952       81.747    20509.116    41596.450     6682.561        6.617        3.439      251.920       73.472        0.085      339.070       12.150      857.831
03/29/2014  08:36:00       21.127      -37.412      112.097       89.926      153.717       84.711     8086.637    23629.039     7175.900        2.664        1.945       42.965       78.873        3.370      339.045       12.108      857.822
03/29/2014  08:37:00      126.725     -198.444       10.640      108.030      173.153       76.250    11670.385    29981.837     5814.088        5.150        2.373      235.456       97.636        0.172      339.080       12.167      857.842
03/29/2014  08:38:00      -29.793     -112.529       10.487       69.903      118.069       60.969     4886.452    13940.209     3717.242        1.810        1.127      116.407       68.408        0.345      339.097       12.197      857.849
03/29/2014  08:39:00     -138.357     -185.364       20.688      207.706      108.553       79.451    43141.734    11783.688     6312.526        5.757        3.062      231.306       62.837        0.074      339.037       12.094      857.872
03/29/2014  08:40:00      -72.731     -147.257       35.502      178.721      173.837       97.931    31941.164    30219.433     9590.569        4.998        3.588      164.239       96.462        0.345      339.017       12.060      857.949
03/29/2014  08:41:00       32.630     -166.086       33.378      122.367      175.025      107.776    14973.704    30633.675    11615.746        4.348        2.861      169.261       87.578        0.268      339.025       12.074      857.978
03/29/2014  08:42:00      -76.343     -101.369      -12.117       84.856      103.385       55.133     7200.458    10688.557     3039.691        1.859        1.046      126.902       58.573        0.213      338.997       12.027      858.089
03/29/2014  08:43:00      -53.137      -88.190        9.885      109.603       73.805       54.418    12012.892     5447.146     2961.284        1.556        1.021      102.961       33.471        0.106      338.990       12.015      858.218
03/29/2014  08:44:00       41.414      -73.604       78.635      145.420      168.136      107.394    21146.980    28269.725    11533.534        3.712        3.048       84.455      120.212        2.026      338.957       11.959      858.157
03/29/2014  08:45:00       58.624      -11.255       54.773       83.043       78.948       63.435     6896.198     6232.771     4024.012        1.185        0.858       59.695       58.424        0.958      338.905       11.875      857.887
03/29/2014  08:46:00       50.101        8.717       99.868       95.852      161.987       96.838     9187.637    26239.658     9377.584        2.867        2.240       50.854      115.368        5.147      338.859       11.796      857.768
03/29/2014  08:47:00      117.820      -36.891      120.122      156.422      199.905      114.632    24467.948    39961.870    13140.508        5.361        3.879      123.460      125.554        1.034      338.834       11.752      857.781
03/29/2014  08:48:00      248.462     -271.326       -2.789      349.485      311.501      128.830   122139.553    97032.702    16597.061       18.552       11.788      367.901      167.167        0.206      338.820       11.730      857.851
03/29/2014  08:49:00      318.386     -161.682      129.265      260.270      374.131      220.102    67740.637   139974.224    48444.705       20.014       12.808      357.086      261.874        0.538      338.715       11.552      857.876
03/29/2014  08:50:00       33.702      -25.120      150.702      137.052      245.659      136.034    18783.125    60348.547    18505.242        6.104        4.882       42.034      151.557       13.000      338.788       11.675      857.863
03/29/2014  08:51:00      226.118     -207.887       42.211      236.421      299.080      178.237    55894.819    89448.900    31768.292       13.658        8.856      307.159      184.933        0.362      338.750       11.610      857.859
03/29/2014  08:52:00      272.191     -387.195      -31.915      203.966      264.948      141.544    41602.136    70197.390    20034.702       17.840        6.592      473.294      144.271        0.093      338.703       11.531      857.865
03/29/2014  08:53:00      178.294     -248.243       25.908      251.123      221.000      165.180    63062.954    48841.126    27284.443       11.661        6.959      305.636      164.653        0.290      338.722       11.564      857.891
03/29/2014  08:54:00      269.432     -208.838       74.341      298.271      346.780      232.842    88965.558   120256.660    54215.330       19.253       13.172      340.892      256.746        0.567      338.649       11.440      857.823
03/29/2014  08:55:00      164.303     -193.256       61.956      149.963      218.006      146.268    22488.964    47526.701    21394.393        7.978        4.571      253.660      151.131        0.355      338.691       11.509      857.963
03/29/2014  08:56:00      180.043     -391.033       19.115      225.581      270.113      118.450    50886.678    72961.300    14030.289       16.176        6.894      430.491      122.600        0.081      338.694       11.516      857.988
03/29/2014  08:57:00      133.614     -312.302       -6.939      271.369      175.691      127.922    73641.373    30867.194    16364.044       11.813        6.044      339.684      108.093        0.101      338.642       11.430      857.986
03/29/2014  08:58:00      178.853     -377.903       12.621      157.339      252.459      112.219    24755.466    63735.670    12593.126       13.800        5.054      418.089      124.474        0.089      338.685       11.501      858.067
03/29/2014  08:59:00       14.089     -143.871       42.097      106.374      146.698       96.468    11315.344    21520.418     9306.044        3.240        2.107      144.559       86.881        0.361      338.705       11.537      858.094
03/29/2014  09:00:00      -37.436     -136.555        1.417      138.743      142.260       77.175    19249.622    20237.847     5955.911        3.274        2.272      141.593       84.756        0.358      338.752       11.617      858.080
03/29/2014  09:01:00       72.321     -274.334       17.964      254.311      186.499      117.675    64674.216    34781.982    13847.451        9.704        5.665      283.707      105.989        0.140      338.727       11.572      858.193
03/29/2014  09:02:00        1.850     -182.032       30.479      220.531      161.347       93.373    48634.035    26033.013     8718.463        5.871        4.169      182.042       90.515        0.247      338.749       11.610      858.410
03/29/2014  09:03:00       -3.942     -105.931       14.383       81.012      102.445       55.853     6562.921    10494.904     3119.520        1.581        1.009      106.004       51.710        0.238      338.731       11.581      858.526
03/29/2014  09:04:00       97.055     -168.440        2.738      167.419      123.538       59.752    28029.245    15261.618     3570.327        4.232        2.343      194.401       64.184        0.109      338.656       11.454      858.471
03/29/2014  09:05:00      126.766      -43.476       87.847      200.709      263.399      145.754    40284.268    69378.807    21244.234        7.827        6.545      134.014      183.552        1.876      338.612       11.377      858.312
03/29/2014  09:06:00       58.567       71.840       57.133       94.541       73.529       54.930     8937.983     5406.510     3017.288        1.461        0.868       92.688       38.269        0.170      338.610       11.378      858.174
03/29/2014  09:07:00      118.848     -145.443       12.408      159.039      170.089       72.420    25293.317    28930.132     5244.704        4.744        2.973      187.825       83.800        0.199      338.652       11.446      858.203
03/29/2014  09:08:00      113.919      -13.917      114.877      181.939      219.984      139.006    33101.971    48392.761    19322.559        6.357        5.041      114.766      163.167        2.021      338.603       11.364      858.220
03/29/2014  09:09:00       -0.115     -218.495       17.664      200.147      167.333      107.031    40058.894    28000.238    11455.593        6.377        3.976      218.495       87.800        0.161      338.636       11.419      858.157
03/29/2014  09:10:00     -174.739     -173.704      -12.121      208.158      163.815      105.847    43329.953    26835.366    11203.638        7.110        4.068      246.388       96.167        0.152      338.554       11.281      858.097
03/29/2014  09:11:00      -99.904     -221.748        1.444      145.483      141.756       63.277    21165.323    20094.843     4004.005        5.220        2.263      243.214       64.459        0.070      338.604       11.364      858.149
03/29/2014  09:12:00     -227.841     -132.265      -10.875      157.775      105.219       57.663    24892.830    11071.071     3325.069        5.440        1.964      263.449       56.386        0.046      338.535       11.248      858.138
03/29/2014  09:13:00     -181.938     -222.333       -4.300      105.085      113.338       64.270    11042.783    12845.413     4130.664        5.528        1.401      287.286       60.171        0.044      338.527       11.235      858.260
03/29/2014  09:14:00     -289.733     -204.516      -29.618      100.242      115.069       57.713    10048.448    13240.967     3330.816        7.663        1.331      354.644       27.512        0.006      338.488       11.170      858.236
03/29/2014  09:15:00     -280.481     -150.624      -18.372      156.676      112.803       71.945    24547.421    12724.529     5176.063        7.206        2.122      318.366       74.711        0.055      338.510       11.206      858.167
03/29/2014  09:16:00     -196.885     -111.757       17.152      143.251      171.293       75.014    20520.846    29341.334     5627.160        5.351        2.774      226.392       77.798        0.118      338.521       11.227      858.152
03/29/2014  09:17:00        0.148      -92.881       78.592       81.753      211.711       91.548     6683.502    44821.572     8381.053        3.733        2.994       92.881      116.978        1.586      338.621       11.395      858.167
03/29/2014  09:18:00       45.522      -65.012       27.847      119.467      128.541      100.263    14272.370    16522.868    10052.640        2.395        2.042       79.365       83.597        1.109      338.651       11.447      858.246
03/29/2014  09:19:00     -172.841     -121.971       -0.593      157.485      129.425       51.852    24801.390    16750.925     2688.663        4.449        2.212      211.544       51.544        0.059      338.604       11.365      858.238
03/29/2014  09:20:00     -228.994     -169.373      -11.521      137.188      108.932       56.719    18820.450    11866.162     3217.020        5.757        1.695      284.825       49.594        0.030      338.572       11.311      858.190
03/29/2014  09:21:00      -24.168      -87.965        7.950      111.859       95.556       81.551    12512.455     9131.015     6650.551        1.833        1.415       91.224       66.302        0.528      338.721       11.562      858.254
03/29/2014  09:22:00      -78.409      -55.119        7.389       80.053       66.868       47.019     6408.534     4471.336     2210.805        1.116        0.655       95.844       32.682        0.116      338.631       11.413      858.241
03/29/2014  09:23:00     -147.639      -30.551       15.010      112.966       57.429       57.450    12761.347     3298.088     3300.520        2.115        0.968      150.767       66.409        0.194      338.669       11.475      858.284
03/29/2014  09:24:00     -127.741      -56.241        6.943       85.987       61.502       36.965     7393.762     3782.455     1366.415        1.603        0.627      139.574       40.948        0.086      338.685       11.504      858.274
03/29/2014  09:25:00      -52.430     -138.033       11.103       93.735       84.372       47.724     8786.276     7118.625     2277.558        2.005        0.909      147.655       46.765        0.100      338.724       11.569      858.316
03/29/2014  09:26:00     -312.296     -192.074       -2.951      137.257       81.457       52.205    18839.437     6635.220     2725.314        8.131        1.410      366.635       54.448        0.022      338.643       11.430      858.272
03/29/2014  09:27:00     -257.407     -166.576      -32.285      144.772      170.335       77.261    20958.854    29014.178     5969.238        7.548        2.797      306.604       70.558        0.053      338.591       11.344      858.320
03/29/2014  09:28:00     -185.855      -91.193       -7.444      119.393       86.812       50.643    14254.600     7536.331     2564.742        3.363        1.218      207.022       40.840        0.039      338.630       11.411      858.388
03/29/2014  09:29:00     -211.024     -119.863      -17.835      149.437      112.980       51.164    22331.511    12764.501     2617.714        4.846        1.886      242.689       61.764        0.065      338.609       11.376      858.367
03/29/2014  09:30:00     -199.059     -121.963       -9.921       85.330       64.783       50.434     7281.149     4196.795     2543.622        3.431        0.701      233.451       48.184        0.043      338.658       11.455      858.303
03/29/2014  09:31:00      -19.878      -95.658       10.859       71.613       88.617       51.207     5128.454     7852.931     2622.178        1.263        0.780       97.702       43.197        0.195      338.741       11.599      858.214
03/29/2014  09:32:00     -149.990      -39.367      -31.369       83.989      111.743       51.283     7054.204    12486.491     2629.990        2.360        1.109      155.070       25.821        0.028      338.604       11.368      858.150
03/29/2014  09:33:00     -144.552     -164.326       17.507      125.188      129.917       57.475    15672.050    16878.518     3303.398        4.202        1.793      218.857       58.719        0.072      338.704       11.533      858.190
03/29/2014  09:34:00     -208.134     -176.041        7.138      161.136      101.658       71.392    25964.962    10334.398     5096.884        5.787        2.070      272.599       70.386        0.067      338.714       11.550      858.267
03/29/2014  09:35:00     -233.202     -213.507        3.143      203.309      119.021       69.726    41334.540    14166.012     4861.646        8.016        3.018      316.178       68.190        0.047      338.719       11.558      858.333
03/29/2014  09:36:00      -71.846     -110.447        9.050      208.199      130.050       82.422    43346.929    16912.926     6793.364        4.223        3.353      131.758       79.865        0.367      338.813       11.716      858.057
03/29/2014  09:37:00        9.308       17.762       87.881       62.828      105.252       75.134     3947.387    11078.039     5645.085        1.439        1.034       20.053       75.881       14.319      339.085       12.175      857.902
03/29/2014  09:38:00        4.936      -82.165       21.672       83.120      114.303       53.575     6908.923    13065.125     2870.307        1.504        1.142       82.313       56.132        0.465      339.017       12.061      857.893
03/29/2014  09:39:00     -292.347     -186.085       10.398      148.050      110.587       64.053    21918.655    12229.578     4102.746        7.922        1.913      346.547       59.244        0.029      338.792       11.681      857.952
03/29/2014  09:40:00     -235.786     -136.057        5.091      150.052      104.638       59.888    22515.623    10949.146     3586.545        5.558        1.853      272.225       65.757        0.058      338.842       11.765      858.045
03/29/2014  09:41:00     -282.410      -47.402        1.661      191.189      142.427       84.370    36553.388    20285.365     7118.371        7.297        3.198      286.361       94.360        0.109      338.816       11.721      858.096
03/29/2014  09:42:00     -186.719     -156.371       36.381      169.692      243.224       88.453    28795.221    59157.872     7824.014        7.819        4.789      243.549       91.337        0.141      338.886       11.839      858.154
03/29/2014  09:43:00      122.808     -144.890       70.864      141.868      183.767       79.935    20126.531    33770.228     6389.638        5.068        3.014      189.934       90.539        0.227      338.958       11.961      858.225
03/29/2014  09:44:00      -99.541      -91.517        5.368      155.098      110.234       56.926    24055.483    12151.615     3240.552        2.887        1.972      135.218       65.940        0.238      338.839       11.762      858.100
03/29/2014  09:45:00      -35.668       10.753       37.616      205.336      108.731       60.523    42163.068    11822.533     3663.057        3.021        2.882       37.253       95.538        6.577      338.919       11.896      857.968
03/29/2014  09:46:00       32.262      100.477      146.677       80.925      108.788       60.577     6548.887    11834.883     3669.517        2.735        1.103      105.529       41.970        0.158      339.196       12.361      858.015
03/29/2014  09:47:00      -59.218      -47.692      -24.583      102.706      130.733       60.943    10548.457    17090.998     3714.034        1.886        1.568       76.035       51.492        0.459      339.109       12.216      857.941
03/29/2014  09:48:00       62.819      -87.231       30.477      127.294      139.522       84.858    16203.690    19466.402     7200.923        2.767        2.144      107.497       91.513        0.725      339.117       12.228      857.933
03/29/2014  09:49:00       38.975       68.050       74.035       74.827       79.242       88.729     5599.069     6279.369     7872.863        1.569        0.988       78.421       67.726        0.746      339.196       12.363      857.976
03/29/2014  09:50:00      156.235     -153.981       44.943      186.137      241.867      180.593    34647.146    58499.470    32613.814        8.792        6.288      219.362      197.832        0.813      339.084       12.171      857.944
03/29/2014  09:51:00       50.433     -169.849       -5.560      134.353      137.583       82.772    18050.703    18929.087     6851.175        3.762        2.192      177.178       80.993        0.209      339.224       12.408      858.038
03/29/2014  09:52:00      182.322     -419.814       27.893      258.750      353.374      166.806    66951.657   124872.850    27824.383       21.491       10.982      457.695      184.009        0.162      338.979       11.996      858.024
03/29/2014  09:53:00      146.528     -219.100       25.571      178.516      231.679      120.491    31867.815    53675.160    14518.092        8.508        5.003      263.582      122.086        0.215      339.091       12.184      858.078
03/29/2014  09:54:00      413.605     -297.860       64.920      313.243      392.929      218.529    98121.035   154392.814    47754.893       28.208       15.013      509.696      281.915        0.306      338.912       11.883      857.951
03/29/2014  09:55:00      163.878     -182.131       48.331      223.652      307.027      162.095    50020.076    94265.470    26274.669       11.643        8.528      245.005      203.364        0.689      339.055       12.125      857.906
03/29/2014  09:56:00      429.331     -528.844      -80.353      201.889      254.659      125.906    40759.227    64851.419    15852.199       29.594        6.073      681.176      143.161        0.044      338.780       11.661      857.858
03/29/2014  09:57:00      406.454     -470.869      -39.807      206.619      273.798      112.174    42691.567    74965.337    12583.077       25.935        6.512      622.031      150.571        0.059      338.762       11.630      857.900
03/29/2014  09:58:00       68.888       -4.333      183.427      212.978      293.081      189.407    45359.435    85896.248    35875.001       10.274        8.357       69.024      206.856        8.981      338.968       11.978      857.917
03/29/2014  09:59:00       31.290      -78.353       88.668      134.500      183.401      125.840    18090.149    33635.780    15835.635        4.126        3.378       84.370      113.554        1.811      339.039       12.099      858.043
03/29/2014  10:00:00      440.543     -406.212      -11.753      249.936      379.487      159.922    62467.894   144010.321    25575.084       29.559       11.603      599.238      203.296        0.115      338.787       11.674      857.940
03/29/2014  10:01:00      173.219     -304.019       12.571      165.774      281.284      151.185    27480.908    79120.948    22856.784       12.600        6.473      349.903      162.445        0.216      338.862       11.799      857.968
03/29/2014  10:02:00       54.573       78.721      192.761      110.823      202.771      119.650    12281.700    41116.071    14316.020        5.701        3.386       95.787      112.015        1.368      339.006       12.042      858.046
03/29/2014  10:03:00      190.876     -326.906       14.164      295.599      338.401      177.674    87378.846   114515.462    31567.984       18.844       11.673      378.552      199.037        0.276      338.799       11.693      858.017
03/29/2014  10:04:00       78.385     -151.797       92.482      210.022      238.027      145.524    44109.415    56657.000    21177.130        7.982        6.097      170.841      162.373        0.903      338.868       11.809      858.099
03/29/2014  10:05:00      199.274     -165.297      103.636      268.942      301.978      201.264    72329.959    91190.513    40507.370       14.086       10.201      258.908      217.198        0.704      338.738       11.589      858.157
03/29/2014  10:06:00       30.730     -139.914        9.228       89.494      177.461       86.575     8009.165    31492.257     7495.174        3.379        2.350      143.249       94.693        0.437      338.805       11.705      858.260
03/29/2014  10:07:00      126.604       25.888      135.502      188.219      173.416      134.443    35426.233    30073.280    18075.045        5.930        4.179      129.224      111.032        0.738      338.822       11.733      858.254
03/29/2014  10:08:00      160.279     -150.480      135.998      258.125      286.666      193.908    66628.749    82177.109    37600.446       12.658        9.320      219.850      169.363        0.593      338.795       11.686      858.192
03/29/2014  10:09:00       99.506     -175.951      120.988      214.654      299.415      196.985    46076.388    89649.512    38803.284       11.498        8.726      202.139      198.560        0.965      338.806       11.704      858.286
03/29/2014  10:10:00      237.100     -284.665       79.348      261.591      378.233      223.594    68429.812   143060.024    49994.409       20.246       13.074      370.473      260.946        0.496      338.672       11.479      858.373
03/29/2014  10:11:00      305.412     -311.871       74.414      234.551      297.047      209.730    55014.147    88236.641    43986.696       19.162        9.362      436.509      209.771        0.231      338.589       11.340      858.382
03/29/2014  10:12:00      181.299      -41.789      147.171      244.963      275.225      180.197    60007.031    75748.588    32470.935       11.222        8.411      186.052      183.260        0.970      338.767       11.638      858.369
03/29/2014  10:13:00      363.192     -300.771       62.993      288.328      365.530      205.122    83133.175   133612.463    42075.060       24.253       12.941      471.562      264.571        0.315      338.634       11.415      858.274
03/29/2014  10:14:00      288.594     -201.264      122.767      290.132      415.651      245.893    84176.664   172766.093    60463.395       22.807       15.870      351.843      287.142        0.666      338.594       11.348      858.223
03/29/2014  10:15:00      315.773     -348.127       30.292      294.803      327.324      199.409    86908.549   107141.266    39763.894       22.777       11.691      470.005      216.355        0.212      338.640       11.424      858.150
03/29/2014  10:16:00      278.973     -290.997       23.155      228.739      300.248      201.043    52321.545    90149.068    40418.238       17.293        9.144      403.119      209.405        0.270      338.663       11.463      858.217
03/29/2014  10:17:00      148.363     -268.839       48.161      138.479      238.810      122.678    19176.367    57030.307    15049.964        9.391        4.563      307.060      138.719        0.204      338.729       11.575      858.351
03/29/2014  10:18:00      154.919      -87.091       94.220      175.424      217.732      152.325    30773.492    47407.426    23203.046        7.090        5.069      177.721      161.664        0.827      338.763       11.633      858.414
03/29/2014  10:19:00      120.618      -69.153      120.653      167.256      257.124      178.192    27974.536    66112.728    31752.496        7.984        6.292      139.035      188.616        1.840      338.759       11.625      858.409
03/29/2014  10:20:00      265.608     -255.934       34.493      229.821      223.357      125.381    52817.531    49888.259    15720.447       12.781        5.921      368.849      133.804        0.132      338.696       11.519      858.451
03/29/2014  10:21:00      421.147     -500.329      -38.319      224.196      289.190      151.375    50264.014    83630.652    22914.418       29.295        7.840      653.983      181.299        0.077      338.645       11.432      858.304
03/29/2014  10:22:00      290.851     -196.160       74.406      246.862      332.423      200.549    60940.655   110505.035    40219.987       17.009       10.583      350.818      218.540        0.388      338.706       11.536      858.310
03/29/2014  10:23:00      143.527      -61.958      157.485      211.483      256.151      184.060    44724.951    65613.283    33878.196        9.670        7.211      156.329      188.855        1.459      338.692       11.512      858.286
03/29/2014  10:24:00       86.796     -128.573       74.250      160.241      181.317      124.177    25677.288    32875.979    15419.945        5.176        3.699      155.128      137.227        0.783      338.760       11.628      858.331
03/29/2014  10:25:00      188.985     -315.240       76.244      197.990      451.283      168.196    39200.157   203655.911    28289.770       20.597       13.557      367.548      240.337        0.428      338.604       11.364      858.314
03/29/2014  10:26:00      175.087     -191.414        2.515      180.277      151.831      118.761    32499.753    23052.714    14104.064        6.846        3.483      259.412       67.503        0.068      338.679       11.492      858.371
03/29/2014  10:27:00     -101.366     -210.456        6.420      255.287      221.254       95.780    65171.521    48953.356     9173.824        8.893        6.165      233.595      107.190        0.211      338.747       11.604      858.536
03/29/2014  10:28:00     -234.685     -242.334       -6.260      176.670      200.251       77.029    31212.156    40100.631     5933.409        9.553        3.862      337.347       82.476        0.060      338.690       11.511      858.541
03/29/2014  10:29:00     -295.222     -257.403      -20.288      245.448      197.292       82.384    60244.614    38924.139     6787.113       12.987        5.298      391.679       79.930        0.042      338.656       11.453      858.643
03/29/2014  10:30:00       -4.500      -92.778       34.566       73.984      114.619       71.042     5473.665    13137.521     5046.929        1.674        1.183       92.887       57.747        0.386      338.853       11.786      858.757
03/29/2014  10:31:00      -13.606       16.524       49.704       51.103       72.077       48.695     2611.478     5195.061     2371.250        0.655        0.509       21.405       37.238        3.027      338.884       11.840      858.686
03/29/2014  10:32:00       54.125     -193.827        7.972      112.517      183.184       75.615    12660.096    33556.460     5717.682        4.624        2.597      201.242       71.239        0.125      338.726       11.570      858.562
03/29/2014  10:33:00       48.950       -7.180      145.815      136.804      202.483      138.146    18715.423    40999.264    19084.280        5.124        3.940       49.474      110.881        5.023      338.836       11.757      858.246
03/29/2014  10:34:00      167.766     -137.459       60.213      212.940      201.330      127.464    45343.619    40533.785    16247.189        7.637        5.106      216.888      137.608        0.403      338.763       11.632      858.143
03/29/2014  10:35:00      171.098      -16.134      185.979      255.051      334.236      224.525    65051.210   111713.613    50411.648       14.560       11.359      171.857      256.161        2.222      338.672       11.479      857.986
03/29/2014  10:36:00      115.562     -118.869      111.541      186.389      289.092      188.648    34740.824    83574.391    35587.935        9.688        7.695      165.785      205.708        1.540      338.728       11.574      857.986
03/29/2014  10:37:00       59.955      -83.745      133.995      172.912      219.736      144.297    29898.433    48284.074    20821.527        6.376        4.950      102.995      136.034        1.744      338.786       11.671      858.047
03/29/2014  10:38:00     -116.056     -235.371       -4.717      146.025      122.959       76.291    21323.293    15118.847     5820.352        5.557        2.113      262.428       60.331        0.053      338.847       11.774      858.157
03/29/2014  10:39:00        6.580     -128.355       16.737      163.801       94.792       62.183    26830.914     8985.538     3866.723        2.823        1.984      128.523       59.909        0.217      338.887       11.843      858.220
03/29/2014  10:40:00        1.904     -120.174       13.520      146.599      125.100       65.595    21491.303    15649.935     4302.711        2.803        2.072      120.189       54.512        0.206      338.882       11.834      858.221
03/29/2014  10:41:00       -6.200     -103.998       34.559      170.581      152.113       95.056    29097.812    23138.516     9035.732        3.665        3.064      104.183       95.573        0.842      338.933       11.919      858.217
03/29/2014  10:42:00       40.573       30.299      153.383      152.298      166.001      123.381    23194.693    27556.303    15222.777        4.602        3.299       50.638      126.654        6.256      338.948       11.944      858.148
03/29/2014  10:43:00       76.261     -131.789       94.369      175.405      209.569      145.228    30766.946    43919.105    21091.267        6.391        4.789      152.263      146.026        0.920      338.864       11.803      858.081
03/29/2014  10:44:00       95.630     -174.473       34.941      149.093      186.453       85.251    22228.718    34764.570     7267.802        5.252        3.213      198.962      104.296        0.275      338.891       11.847      857.983
03/29/2014  10:45:00       58.435     -221.466        2.991      163.787      139.645       98.974    26826.276    19500.706     9795.825        5.429        2.806      229.046       81.114        0.125      338.956       11.957      858.027
03/29/2014  10:46:00       14.551     -106.858       39.602      109.630      187.826       90.765    12018.639    35278.650     8238.196        3.436        2.777      107.844      102.761        0.908      339.035       12.090      858.043
03/29/2014  10:47:00      327.864     -499.983        9.621      220.540      251.205      127.694    48638.091    63104.160    16305.737       24.278        6.402      597.894      125.162        0.044      338.893       11.851      858.047
03/29/2014  10:48:00      149.966     -155.070       98.627      201.171      255.435      131.314    40469.602    65246.808    17243.364        8.959        6.148      215.723      167.182        0.601      338.988       12.011      858.066
03/29/2014  10:49:00      247.698     -296.513       30.473      176.400      211.304       89.470    31117.062    44649.582     8004.920       11.697        4.189      386.360       99.971        0.067      338.877       11.824      858.074
03/29/2014  10:50:00      118.647     -212.549      108.285      192.474      299.979      160.623    37046.130    89987.613    25799.593       11.188        7.642      243.422      186.273        0.586      338.953       11.952      857.946
03/29/2014  10:51:00      163.033     -229.564      117.884      234.831      379.309      225.995    55145.610   143874.970    51073.534       17.159       12.505      281.566      263.920        0.879      338.871       11.813      857.875
03/29/2014  10:52:00      112.848     -250.717       30.966      202.491      203.006      125.480    41002.616    41211.453    15745.333        8.724        4.898      274.943      120.463        0.192      338.917       11.893      857.960
03/29/2014  10:53:00       34.530     -177.022       51.626      149.044      214.446      140.927    22214.036    45987.251    19860.394        6.161        4.403      180.358      142.395        0.623      338.967       11.976      857.952
03/29/2014  10:54:00      163.415     -410.979       12.534      200.921      300.167      106.525    40369.211    90100.291    11347.540       16.876        7.091      442.276      131.628        0.089      338.843       11.766      858.006
03/29/2014  10:55:00       -0.795     -136.153        7.189       88.062       89.189       68.503     7754.983     7954.728     4692.604        1.949        1.020      136.155       61.871        0.206      339.015       12.057      858.086
03/29/2014  10:56:00       85.343     -108.860       37.208      159.386      225.745       98.018    25403.966    50960.802     9607.500        5.323        4.299      138.325       73.730        0.284      338.937       11.926      858.067
03/29/2014  10:57:00      142.080     -197.131       26.733      164.273      218.019      119.803    26985.695    47532.160    14352.677        7.430        4.444      242.997      129.196        0.283      338.959       11.962      858.109
03/29/2014  10:58:00       -6.745     -127.016       36.989      106.975      154.976       80.205    11443.680    24017.524     6432.771        2.971        2.095      127.195       90.342        0.504      339.033       12.087      858.104
03/29/2014  10:59:00       11.050     -335.225        2.847      233.830      211.226      102.134    54676.629    44616.540    10431.259       11.109        5.486      335.407       95.747        0.081      339.012       12.051      858.086
03/29/2014  11:00:00       72.353     -139.989       49.891      194.463      201.596      123.932    37815.748    40640.982    15359.155        6.055        4.691      157.581      124.720        0.626      339.036       12.093      858.164
03/29/2014  11:01:00       28.299     -162.026       14.740      124.692      130.294       73.540    15548.071    16976.517     5408.114        3.259        1.897      164.479       49.283        0.090      339.111       12.219      858.134
03/29/2014  11:02:00       89.515      -79.709       45.224      110.996      119.951       71.567    12320.083    14388.162     5121.904        2.411        1.592      119.861       64.522        0.290      339.147       12.280      858.084
03/29/2014  11:03:00       69.208      -39.188       63.013      122.136      152.190       83.736    14917.154    23161.918     7011.756        2.768        2.255       79.533       71.803        0.815      339.144       12.275      858.017
03/29/2014  11:04:00       96.330     -102.195      188.666      176.092      372.341      200.713    31008.474   138637.806    40285.866       13.258       10.497      140.440      241.554        2.958      339.007       12.043      857.932
03/29/2014  11:05:00       96.961      -79.462      150.651      181.328      248.168      149.487    32879.993    61587.550    22346.326        7.759        5.841      125.362      153.465        1.499      338.967       11.975      857.955
03/29/2014  11:06:00       45.033     -187.808       90.443      179.116      302.497      183.051    32082.379    91504.336    33507.801       10.126        7.855      193.131      199.275        1.065      338.921       11.897      857.965
03/29/2014  11:07:00      117.069     -302.160       17.553      208.442      228.345      121.040    43448.100    52141.335    14650.570       10.775        5.512      324.046      127.300        0.154      338.940       11.930      858.003
03/29/2014  11:08:00      114.111     -244.320       -4.519      165.298      183.908      107.263    27323.580    33822.333    11505.300        7.268        3.633      269.654      103.330        0.147      338.905       11.871      857.996
03/29/2014  11:09:00      142.561     -249.829       35.383      199.101      227.410      126.418    39641.026    51715.340    15981.396        9.564        5.367      287.643      137.079        0.227      338.916       11.891      858.006
03/29/2014  11:10:00      232.872     -470.760      -18.685      193.289      267.684      119.141    37360.564    71654.836    14194.651       19.968        6.161      525.209      121.483        0.054      338.901       11.864      857.987
03/29/2014  11:11:00      146.491     -252.773       26.658      145.832      221.688      133.181    21266.990    49145.770    17737.206        8.709        4.407      292.154      138.854        0.226      338.967       11.975      858.025
03/29/2014  11:12:00        1.739     -349.265       -4.317      147.213      280.729      119.809    21671.657    78808.757    14354.149       11.840        5.742      349.270      131.915        0.143      338.919       11.895      857.990
03/29/2014  11:13:00      175.720     -324.224        2.640      196.132      183.611      104.343    38467.591    33713.105    10887.434       10.952        4.153      368.780       85.343        0.054      338.937       11.924      858.040
03/29/2014  11:14:00      120.736     -288.668       17.008      200.846      195.853      114.294    40339.135    38358.224    13063.057        9.496        4.588      312.900       90.541        0.084      338.965       11.972      858.010
03/29/2014  11:15:00       71.975     -282.858       12.709      198.902      179.940       98.074    39562.107    32378.459     9618.513        8.344        4.078      291.872       71.990        0.061      339.032       12.084      857.990
03/29/2014  11:16:00       77.528     -265.318      -25.593      213.621      234.341      122.893    45633.959    54915.561    15102.671        9.633        5.783      276.413      136.567        0.244      339.108       12.213      857.998
03/29/2014  11:17:00      -58.023     -182.783      -14.898      205.141      146.220       75.115    42082.937    21380.256     5642.271        5.304        3.455      191.772       64.938        0.115      339.086       12.176      857.988
03/29/2014  11:18:00       27.584     -254.793       -1.521      206.967      159.099      108.052    42835.232    25312.528    11675.213        7.274        3.991      256.281      104.451        0.166      339.075       12.157      857.967
03/29/2014  11:19:00      151.687     -296.187       19.815      206.351      214.685      133.368    42580.822    46089.766    17786.964       10.877        5.323      332.770      129.949        0.152      339.060       12.132      857.972
03/29/2014  11:20:00       60.055     -192.032        2.127      124.817      156.026       81.444    15579.346    24344.162     6633.164        4.351        2.328      201.204       62.721        0.097      339.151       12.286      857.978
03/29/2014  11:21:00       19.546     -160.375       -1.793      129.200      134.737       64.582    16692.640    18154.011     4170.882        3.255        1.951      161.562       68.818        0.181      339.086       12.177      857.935
03/29/2014  11:22:00      -91.498     -156.265       16.818      149.894      148.947       71.422    22468.348    22185.181     5101.036        4.140        2.488      181.081       76.999        0.181      339.156       12.294      857.892
03/29/2014  11:23:00     -273.408     -208.978       10.659      188.716      140.765      105.301    35613.586    19814.828    11088.218        9.251        3.326      344.127       99.813        0.084      339.042       12.102      857.907
03/29/2014  11:24:00     -113.561     -201.368       -2.681      153.992      127.191       70.685    23713.530    16177.598     4996.438        4.916        2.244      231.182       59.001        0.065      339.141       12.267      857.989
03/29/2014  11:25:00       48.999     -357.793        7.010      172.534      252.579       88.925    29767.824    63796.224     7907.717       11.595        5.074      361.132       71.032        0.039      339.167       12.312      858.066
03/29/2014  11:26:00       88.692     -400.668      -51.421      205.071      131.152      100.760    42054.229    17200.890    10152.624       12.021        3.470      410.367       70.526        0.030      339.165       12.309      858.008
03/29/2014  11:27:00        2.270     -349.376      -24.630      151.230      156.553       89.579    22870.648    24508.875     8024.398        8.903        2.770      349.384       66.236        0.036      339.203       12.372      858.026
03/29/2014  11:28:00       19.655     -132.805       28.608      132.504      136.306       81.089    17557.268    18579.231     6575.382        3.077        2.136      134.251       82.409        0.377      339.331       12.590      858.003
03/29/2014  11:29:00      -18.777     -155.807        1.779      136.134      105.165       54.297    18532.592    11059.724     2948.132        2.858        1.627      156.935       56.252        0.128      339.316       12.564      857.904
03/29/2014  11:30:00       19.699      -60.955       19.942       64.704       83.002       50.650     4186.666     6889.306     2565.391        0.907        0.682       64.060       53.281        0.692      339.397       12.702      857.858
03/29/2014  11:31:00       51.243     -332.689      -11.663      220.640      203.687      105.238    48681.977    41488.287    11075.066       10.732        5.062      336.612       96.020        0.081      339.308       12.547      857.914
03/29/2014  11:32:00        0.709     -166.083       15.335      115.834      114.605       91.494    13417.566    13134.197     8371.233        3.136        1.746      166.085       64.578        0.151      339.377       12.667      857.943
03/29/2014  11:33:00      -92.419     -121.540       10.181      127.328      120.807       82.034    16212.331    14594.304     6729.625        3.047        1.877      152.687       67.108        0.193      339.284       12.509      857.910
03/29/2014  11:34:00      -52.956     -286.876       -3.460      142.758      212.170       76.484    20379.783    45016.127     5849.784        7.817        3.562      291.723       66.778        0.052      339.158       12.298      857.837
03/29/2014  11:35:00      -57.116     -155.050       23.980      140.942       98.239       77.536    19864.742     9650.853     6011.797        3.170        1.776      165.235       72.480        0.192      339.176       12.329      857.829
03/29/2014  11:36:00      -93.809     -142.627       -1.685      188.024       97.846       55.037    35352.941     9573.819     3029.049        3.854        2.398      170.712       51.886        0.092      339.164       12.307      857.810
03/29/2014  11:37:00     -165.412     -210.199       -1.914      188.055      173.791       95.301    35364.566    30203.382     9082.234        7.308        3.733      267.478      100.280        0.141      339.141       12.268      857.845
03/29/2014  11:38:00     -120.639     -240.971      -27.545      159.969      195.822       71.769    25590.178    38346.293     5150.858        7.122        3.454      269.482       45.194        0.028      339.174       12.325      857.939
03/29/2014  11:39:00     -140.484     -286.975       -9.258      198.319      208.276       87.148    39330.507    43378.823     7594.690        9.622        4.515      319.516       90.810        0.081      339.140       12.268      857.948
03/29/2014  11:40:00     -106.877     -292.941      -12.992      207.891      173.571       79.648    43218.789    30126.907     6343.802        8.853        3.984      311.829       95.675        0.094      339.150       12.283      857.934
03/29/2014  11:41:00       33.054     -293.665       16.622      158.529      190.617      115.573    25131.515    36334.918    13357.217        8.120        3.741      295.520       94.664        0.103      339.243       12.439      857.907
03/29/2014  11:42:00      191.094     -340.813       10.459      214.383      207.339      131.696    45959.909    42989.305    17343.967       12.952        5.315      390.731      123.461        0.100      339.259       12.467      857.832
03/29/2014  11:43:00      -10.541     -146.326       19.339       88.847       94.946       87.158     7893.868     9014.785     7596.582        2.320        1.225      146.705       51.915        0.125      339.366       12.649      857.876
03/29/2014  11:44:00       46.361     -176.499       -8.586      140.879      122.938       68.282    19846.759    15113.648     4662.477        3.649        1.981      182.486       57.870        0.101      339.334       12.593      857.893
03/29/2014  11:45:00     -111.684     -129.499       12.747      180.948      107.857       73.687    32742.110    11633.224     5429.722        3.960        2.490      171.007       67.427        0.155      339.202       12.371      857.858
03/29/2014  11:46:00      -93.100     -247.530       -2.068       95.161      146.972       66.876     9055.685    21600.814     4472.374        5.253        1.756      264.460       61.356        0.054      339.162       12.304      857.896
03/29/2014  11:47:00     -148.887     -178.224       -2.653      140.744      146.528       89.130    19808.979    21470.389     7944.197        5.157        2.461      232.230       69.849        0.090      339.060       12.132      857.902
03/29/2014  11:48:00     -226.771     -251.565       -0.327      144.309      146.768       72.819    20825.080    21540.754     5302.577        8.118        2.383      338.689       83.417        0.061      339.066       12.141      857.848
03/29/2014  11:49:00     -231.628      -94.777        3.835      159.875      106.140       70.617    25560.145    11265.596     4986.692        5.222        2.091      250.268       64.996        0.067      339.084       12.173      857.862
03/29/2014  11:50:00     -187.731      -65.546        4.431      108.048       93.603       57.844    11674.368     8761.610     3345.888        3.167        1.189      198.845       53.599        0.073      339.083       12.170      857.867
03/29/2014  11:51:00     -115.510      -74.002        3.267      121.100      101.874       54.440    14665.115    10378.410     2963.666        2.341        1.400      137.182       54.747        0.159      339.144       12.274      857.885
03/29/2014  11:52:00       -0.971        7.902       74.395       76.695      117.781       59.323     5882.095    13872.318     3519.200        1.443        1.164        7.961       66.652       70.090      339.293       12.527      857.922
03/29/2014  11:53:00      -38.442      -21.517       64.173      118.580      127.647       99.681    14061.221    16293.856     9936.392        2.317        2.015       44.054       88.004        3.991      339.307       12.549      857.903
03/29/2014  11:54:00      -36.849     -227.707        3.996      182.915      148.079       74.862    33458.059    21927.536     5604.255        5.709        3.049      230.669       66.374        0.083      339.334       12.592      857.898
03/29/2014  11:55:00       23.353     -243.624      -11.868      163.619      103.435       84.168    26771.251    10698.884     7084.277        5.229        2.228      244.741       50.298        0.042      339.379       12.669      857.976
03/29/2014  11:56:00       39.528     -216.357      -17.446      114.593       91.405       60.874    13131.652     8354.823     3705.638        3.693        1.260      219.939       54.416        0.061      339.367       12.649      858.048
03/29/2014  11:57:00      -32.412     -154.844       26.887      155.313      119.225       77.974    24122.130    14214.635     6080.006        3.507        2.221      158.200       71.727        0.206      339.319       12.569      858.096
03/29/2014  11:58:00      -79.707      -64.532        9.536      123.733      112.033       52.787    15309.958    12551.442     2786.479        2.062        1.532      102.555       63.537        0.384      339.276       12.497      858.110
03/29/2014  11:59:00     -165.363     -103.340       -8.259      161.629      124.703       61.489    26123.944    15550.851     3780.871        4.176        2.273      194.998       58.157        0.089      339.150       12.283      858.058
03/29/2014  12:00:00      -99.458     -114.305       12.179      140.787      137.891       61.841    19820.956    19014.018     3824.368        3.287        2.133      151.517       56.799        0.141      339.126       12.244      857.970
03/29/2014  12:01:00        9.349     -117.455        4.881       63.057      133.262       58.694     3976.174    17758.809     3444.985        1.954        1.259      117.826       75.667        0.412      339.396       12.699      857.944
03/29/2014  12:02:00      -49.947     -323.651       -7.127      126.232      202.479       80.114    15934.483    40997.818     6418.216        8.531        3.168      327.483       58.321        0.032      339.275       12.495      858.007
03/29/2014  12:03:00      -35.469     -191.045        3.908      163.424      127.542       65.973    26707.326    16266.894     4352.374        4.254        2.366      194.309       57.646        0.088      339.262       12.473      858.047
03/29/2014  12:04:00        4.730     -308.781      -10.881      156.655      127.380       90.262    24540.695    16225.737     8147.143        7.219        2.446      308.818       64.210        0.043      339.290       12.518      858.068
03/29/2014  12:05:00     -120.915      -98.296       29.761      209.748      153.387       83.152    43994.219    23527.661     6914.252        4.979        3.722      155.828       97.040        0.388      339.235       12.427      857.992
03/29/2014  12:06:00      -60.815     -127.971       -7.187       65.757       89.716       37.299     4323.931     8048.885     1391.181        1.694        0.688      141.686       34.982        0.061      339.200       12.369      858.008
03/29/2014  12:07:00     -232.785     -304.647      -22.485      190.212      195.301       77.459    36180.763    38142.470     5999.847       11.390        4.016      383.404       71.000        0.034      339.081       12.167      858.007
03/29/2014  12:08:00     -176.123     -221.428       -7.763      115.425      129.369       73.927    13322.863    16736.219     5465.148        5.781        1.776      282.931       66.191        0.055      339.122       12.236      858.077
03/29/2014  12:09:00      -59.073     -270.842        8.531      145.879      200.144       75.418    21280.612    40057.722     5687.872        7.196        3.351      277.209       93.656        0.114      339.207       12.380      858.141
03/29/2014  12:10:00        2.845     -156.470       28.271      127.649      168.088       89.884    16294.346    28253.511     8079.161        3.895        2.631      156.496       95.918        0.376      339.212       12.389      858.110
03/29/2014  12:11:00       24.586     -189.893       23.064      162.288      138.912       96.159    26337.520    19296.437     9246.570        4.603        2.744      191.478       79.269        0.171      339.225       12.410      858.087
03/29/2014  12:12:00       51.908      -90.285       27.609      105.478      135.352       83.616    11125.651    18320.038     6991.566        2.402        1.822      104.143       82.361        0.625      339.236       12.431      858.018
03/29/2014  12:13:00      114.142     -169.748       11.378       93.496      152.860       84.747     8741.581    23366.131     7182.074        4.062        1.964      204.555       88.684        0.188      339.278       12.499      858.010
03/29/2014  12:14:00      -89.751     -192.895      -13.698      165.734      124.432       68.101    27467.874    15483.369     4637.713        4.651        2.379      212.753       57.025        0.072      339.277       12.496      858.067
03/29/2014  12:15:00     -118.181     -141.614       28.529      148.477      184.576       80.585    22045.567    34068.447     6493.910        4.871        3.130      184.449       86.744        0.221      339.228       12.415      858.060
03/29/2014  12:16:00      -33.512     -153.713       -1.727      131.938       87.853       59.919    17407.687     7718.147     3590.267        2.673        1.436      157.324       50.470        0.103      339.277       12.498      858.070
03/29/2014  12:17:00       14.134      -65.720       23.033       55.000       74.989       50.642     3024.955     5623.353     2564.658        0.813        0.561       67.223       42.929        0.408      339.402       12.709      858.045
03/29/2014  12:18:00        2.457     -134.348        0.082       85.697      142.074       59.430     7344.001    20184.901     3531.867        2.455        1.553      134.370       60.554        0.203      339.375       12.664      858.020
03/29/2014  12:19:00       53.126     -183.716      -11.364       93.447      170.373       82.224     8732.260    29026.848     6760.789        4.060        2.226      191.244       73.945        0.150      339.388       12.684      857.999
03/29/2014  12:20:00       59.731     -108.044        3.897       80.094      160.098       67.749     6415.032    25631.493     4589.977        2.594        1.832      123.455       84.092        0.464      339.411       12.727      858.030
03/29/2014  12:21:00       65.560      -28.686       58.248      110.008      179.256      123.576    12101.765    32132.727    15270.951        3.400        2.975       71.562      136.593        3.643      339.355       12.628      858.019
03/29/2014  12:22:00       20.904       22.886      140.307      106.761      225.382      138.965    11397.881    50796.935    19311.150        5.106        4.075       30.996      148.648       22.999      339.351       12.622      857.972
03/29/2014  12:23:00      242.867     -228.692       45.217      210.978      259.437      132.557    44511.657    67307.405    17571.397       12.133        6.470      333.594      165.592        0.246      339.257       12.463      857.938
03/29/2014  12:24:00       25.028     -110.906       34.218      124.284      175.781      105.668    15446.552    30899.068    11165.830        3.579        2.876      113.695      100.165        0.776      339.319       12.567      857.954
03/29/2014  12:25:00      -48.594     -184.886       13.168      136.595      206.161       73.993    18658.136    42502.386     5474.927        5.166        3.332      191.165       68.450        0.128      339.371       12.657      857.916
03/29/2014  12:26:00      -20.008     -260.312      -20.418      125.058      104.384       65.190    15639.599    10896.025     4249.761        4.968        1.539      261.080       57.445        0.048      339.316       12.562      857.972
03/29/2014  12:27:00       36.876     -275.063      -13.951      149.542      194.929       97.632    22362.687    37997.449     9532.037        7.354        3.495      277.524       67.237        0.059      339.313       12.557      858.048
03/29/2014  12:28:00       99.139     -306.023      -40.051      216.386      123.918       80.498    46822.804    15355.633     6479.996        8.686        3.433      321.681       84.079        0.068      339.213       12.388      857.982
03/29/2014  12:29:00      -64.820     -122.525        6.341       98.583      107.139       53.893     9718.527    11478.826     2904.482        2.167        1.205      138.615       49.085        0.125      339.283       12.508      857.989
03/29/2014  12:30:00      -80.034      -91.215        1.050       69.916       81.276       40.851     4888.245     6605.826     1668.765        1.394        0.658      121.349       45.175        0.139      339.366       12.649      857.949
03/29/2014  12:31:00       77.418     -164.624        3.349       92.509      139.597       65.660     8557.951    19487.421     4311.262        3.272        1.618      181.920       40.251        0.049      339.285       12.512      857.949
03/29/2014  12:32:00       11.637      -90.737       51.207       91.540      126.698       63.011     8379.562    16052.382     3970.384        1.969        1.420       91.480       62.405        0.465      339.346       12.616      857.988
03/29/2014  12:33:00      137.728     -214.745       12.279      106.361      162.565       69.473    11312.598    26427.238     4826.458        5.389        2.128      255.117       70.206        0.076      339.316       12.563      858.013
03/29/2014  12:34:00       27.964     -199.360        6.734      169.159      149.991       87.369    28614.905    22497.154     7633.381        4.965        2.937      201.312       87.380        0.188      339.394       12.694      857.978
03/29/2014  12:35:00      -29.333     -179.388       28.905      193.401      179.412       81.294    37403.958    32188.757     6608.716        5.502        3.810      181.770       91.340        0.253      339.300       12.538      857.965
03/29/2014  12:36:00       96.090     -225.097       14.198      120.065      192.069       70.536    14415.652    36890.541     4975.263        5.818        2.814      244.749       75.615        0.095      339.301       12.539      857.974
03/29/2014  12:37:00       78.123     -289.056      -11.677      165.004      129.031       80.610    27226.274    16648.923     6498.036        7.007        2.519      299.427       72.917        0.059      339.250       12.452      857.956
03/29/2014  12:38:00     -126.109     -297.142       -6.404      177.163      210.136       80.805    31386.579    44157.091     6529.379        9.314        4.104      322.796       82.762        0.066      339.259       12.466      857.975
03/29/2014  12:39:00       53.731     -201.958       28.950      129.745      198.556      108.469    16833.747    39424.644    11765.432        5.625        3.401      208.984      108.312        0.269      339.261       12.472      857.954
03/29/2014  12:40:00       91.293     -247.796       27.649      146.309      217.507       96.947    21406.457    47309.311     9398.706        7.429        3.906      264.078      108.332        0.168      339.224       12.408      857.929
03/29/2014  12:41:00       58.343      -96.349       29.226      106.823      120.644       72.929    11411.082    14554.889     5318.582        2.241        1.564      112.637       72.392        0.413      339.334       12.593      857.949
03/29/2014  12:42:00       68.270     -232.082       -0.197      182.331      203.375       93.423    33244.599    41361.223     8727.766        7.091        4.167      241.915       93.471        0.149      339.150       12.283      857.939
03/29/2014  12:43:00      -14.148     -126.003       25.545      162.621      148.224       78.899    26445.667    21970.245     6225.086        3.567        2.732      126.795       67.311        0.282      339.273       12.492      857.924
03/29/2014  12:44:00       75.008     -138.579       36.796      136.489      181.919      103.078    18629.203    33094.454    10625.061        4.425        3.117      157.577      104.415        0.439      339.225       12.410      857.929
03/29/2014  12:45:00       75.822      -47.220      174.274      178.089      216.867      134.729    31715.665    47031.177    18151.922        6.761        4.845       89.323      141.386        2.505      339.187       12.346      857.891
03/29/2014  12:46:00      182.382     -208.254       97.513      215.044      341.755      169.758    46244.029   116796.584    28817.848       13.896        9.593      276.827      211.604        0.584      339.031       12.082      857.930
03/29/2014  12:47:00      150.513     -119.620       95.692      173.426      215.908      159.098    30076.462    46616.303    25312.243        7.404        5.100      192.258      169.898        0.781      339.089       12.179      857.857
03/29/2014  12:48:00       78.898      -66.829      129.026      139.711      210.930      149.770    19519.260    44491.502    22431.085        5.687        4.322      103.397      139.450        1.819      339.106       12.210      857.814
03/29/2014  12:49:00       47.267     -142.225       64.649      190.039      209.558      160.128    36114.984    43914.637    25641.025        6.614        5.284      149.874      129.271        0.744      339.112       12.219      857.779
03/29/2014  12:50:00       58.180      -74.080       58.958      115.619      178.288      103.112    13367.822    31786.604    10632.098        3.406        2.789       94.195      117.303        1.551      339.153       12.289      857.829
03/29/2014  12:51:00      -14.406      -67.923       65.180       88.383      146.660       96.317     7811.480    21509.256     9276.875        2.383        1.930       69.434       84.237        1.472      339.174       12.326      857.811
03/29/2014  12:52:00       13.524      -70.483       64.872      115.070      150.610      107.583    13241.019    22683.457    11574.079        2.842        2.375       71.769      100.078        1.944      339.131       12.253      857.822
03/29/2014  12:53:00      152.924     -109.678      103.915      205.106      283.794      177.761    42068.573    80539.104    31599.080       10.018        7.710      188.189      210.576        1.252      339.078       12.163      857.843
03/29/2014  12:54:00      143.265        2.464      132.084      194.687      230.518      150.966    37902.855    53138.374    22790.661        7.588        5.692      143.286      176.755        1.522      339.097       12.194      857.889
03/29/2014  12:55:00       66.984      -62.018      118.616      132.636      192.648      123.500    17592.282    37113.411    15252.263        4.617        3.498       91.285      129.461        2.011      339.073       12.154      857.863
03/29/2014  12:56:00      164.580     -177.604       87.076      190.555      324.332      171.430    36311.368   105191.028    29388.195       11.852        8.545      242.136      191.465        0.625      338.988       12.011      857.737
03/29/2014  12:57:00      152.092     -290.055       63.354      191.861      320.782      195.600    36810.784   102901.047    38259.525       14.459        8.899      327.511      223.758        0.467      339.008       12.044      857.772
03/29/2014  12:58:00      204.434     -373.584        1.110      211.796      189.828      114.046    44857.614    36034.854    13006.517       13.761        4.695      425.862      112.219        0.069      339.018       12.061      857.814
03/29/2014  12:59:00      127.822     -172.923       77.402      154.383      194.840      114.294    23833.959    37962.456    13063.162        6.353        3.743      215.036      102.228        0.226      339.087       12.177      857.852
03/29/2014  13:00:00        2.066     -106.686        7.402      124.675      136.261       67.177    15543.908    18567.083     4512.791        2.502        1.931      106.706       53.467        0.251      339.136       12.260      857.861
03/29/2014  13:01:00      250.580     -423.289       -6.917      186.786      253.386      121.614    34889.046    64204.523    14789.917       17.792        5.694      491.898      134.623        0.075      339.003       12.037      857.818
03/29/2014  13:02:00       70.615      -29.634      115.947      128.652      167.104      116.361    16551.458    27923.768    13539.824        3.865        2.901       76.581      106.102        1.920      339.073       12.154      857.891
03/29/2014  13:03:00       28.212     -108.380       19.668      118.282      155.116       81.141    13990.564    24060.961     6583.820        2.877        2.232      111.992       62.559        0.312      339.060       12.135      857.929
03/29/2014  13:04:00       34.434     -170.299       21.118      129.394      187.758       77.511    16742.890    35253.216     6007.914        4.431        2.900      173.746       84.874        0.239      339.006       12.041      857.884
03/29/2014  13:05:00      151.068     -292.782        1.274      146.944      168.144       86.080    21592.443    28272.505     7409.722        8.290        2.864      329.459       79.708        0.059      338.973       11.986      857.839
03/29/2014  13:06:00       36.462      -37.382       94.739       85.715      239.862      107.199     7347.097    57533.653    11491.656        4.402        3.819       52.220      134.898        6.673      338.979       11.996      857.791
03/29/2014  13:07:00       68.644      -23.446      143.130      126.209      246.695      149.027    15928.663    60858.395    22209.181        6.235        4.950       72.538      150.699        4.316      338.942       11.935      857.689
03/29/2014  13:08:00       58.900      -39.365      116.094      130.364      219.447      123.328    16994.872    48156.934    15209.792        4.941        4.018       70.844      142.344        4.037      338.970       11.981      857.587
03/29/2014  13:09:00      164.202      -20.368      206.859      241.132      328.518      204.052    58144.654   107924.200    41637.197       13.890       10.385      165.460      229.678        1.927      338.941       11.932      857.571
03/29/2014  13:10:00      190.092     -239.081       55.415      185.054      251.538      137.803    34244.977    63271.166    18989.769       10.641        5.825      305.442      160.690        0.277      338.961       11.966      857.632
03/29/2014  13:11:00      112.732      -55.827      127.101      178.780      178.393      114.410    31962.409    31823.966    13089.652        5.441        3.844      125.798      115.996        0.850      338.971       11.983      857.613
03/29/2014  13:12:00       89.394     -101.241       67.524      169.757      195.669      124.016    28817.392    38286.199    15379.976        5.263        4.124      135.060      134.956        0.998      338.933       11.921      857.609
03/29/2014  13:13:00      151.254       17.811      153.287      191.777      243.950      148.895    36778.406    59511.421    22169.777        8.255        5.923      152.299      172.275        1.280      338.907       11.874      857.589
03/29/2014  13:14:00      314.190     -310.318       23.797      233.173      290.131      179.239    54369.630    84176.168    32126.456       18.309        8.534      441.602      181.819        0.170      338.906       11.872      857.548
03/29/2014  13:15:00       55.441     -113.336      126.601      127.915      316.498      206.267    16362.340   100170.723    42546.001        9.548        7.954      126.169      233.837        3.435      338.976       11.993      857.575
03/29/2014  13:16:00       94.562     -211.061       47.401      137.118      215.186      124.173    18801.406    46304.894    15418.859        6.811        4.026      231.276      122.559        0.281      338.989       12.012      857.611
03/29/2014  13:17:00      178.008     -252.020       73.554      241.728      286.967      153.078    58432.458    82350.116    23432.894       13.238        8.211      308.546      182.413        0.350      338.893       11.851      857.599
03/29/2014  13:18:00       86.678     -217.648       20.225      137.549      210.992      102.868    18919.829    44517.823    10581.916        6.464        3.701      234.272      120.080        0.263      338.956       11.957      857.671
03/29/2014  13:19:00      151.277     -243.777       32.929      158.367      254.146      119.632    25080.046    64590.309    14311.876        9.367        5.199      286.900      150.235        0.274      338.947       11.944      857.704
03/29/2014  13:20:00      140.278     -102.581      134.839      220.527      285.306      165.819    48632.241    81399.682    27496.056       10.292        7.876      173.784      197.619        1.293      338.873       11.817      857.735
03/29/2014  13:21:00      170.853     -112.469      112.817      230.244      282.192      172.379    53012.475    79632.284    29714.605       10.843        8.118      204.548      200.582        0.962      338.836       11.755      857.810
03/29/2014  13:22:00      121.882     -153.688       94.864      195.826      242.121      150.019    38347.791    58622.533    22505.705        8.345        5.974      196.151      169.345        0.745      338.809       11.710      857.736
03/29/2014  13:23:00      -18.038     -287.038      -20.045      171.558      168.060       90.256    29432.184    28244.300     8146.205        7.446        3.291      287.604       81.210        0.080      338.907       11.874      857.796
03/29/2014  13:24:00       36.124      -14.954       99.813      114.237      183.248      126.795    13050.160    33579.913    16077.011        3.709        3.135       39.097      126.807       10.520      338.915       11.889      857.742
03/29/2014  13:25:00       21.030     -112.495       38.949      153.893      102.945       82.337    23683.173    10597.760     6779.319        2.783        2.053      114.444       62.776        0.301      338.920       11.899      857.747
03/29/2014  13:26:00       10.026      -53.736       35.064       71.416       86.405       55.743     5100.293     7465.810     3107.332        0.994        0.784       54.663       42.058        0.592      338.975       11.990      857.809
03/29/2014  13:27:00       48.596     -170.077       13.295      119.005      181.012       60.439    14162.088    32765.424     3652.912        4.101        2.529      176.883       86.579        0.240      338.941       11.934      857.872
03/29/2014  13:28:00      -38.765       -1.783       75.913       81.645      117.910       90.350     6665.917    13902.858     8163.083        1.799        1.437       38.806       74.686        3.704      338.954       11.955      857.899
03/29/2014  13:29:00        1.278      -65.772       47.842       83.593       96.749       58.534     6987.862     9360.400     3426.260        1.319        0.989       65.784       68.374        1.080      339.019       12.065      857.917
03/29/2014  13:30:00       69.585      -70.799      102.536      172.568      290.159      144.456    29779.873    84192.282    20867.580        7.758        6.742       99.271      189.038        3.626      338.934       11.921      857.891
03/29/2014  13:31:00       76.509     -348.993      -34.700      202.510      208.263      101.617    41010.280    43373.678    10326.009       11.176        4.735      357.281       95.143        0.071      338.915       11.888      857.839
03/29/2014  13:32:00       69.446     -111.064       71.981      109.993      227.626      117.179    12098.355    51813.738    13730.836        4.998        3.882      130.988      131.477        1.007      338.940       11.932      857.778
03/29/2014  13:33:00      219.624     -129.385      133.141      250.662      284.882      154.303    62831.500    81157.841    23809.461       12.522        8.390      254.902      197.429        0.600      338.853       11.784      857.583
03/29/2014  13:34:00      333.577     -239.895       98.316      340.011      381.992      216.848   115607.794   145917.606    47023.013       24.346       15.427      410.881      266.949        0.422      338.849       11.776      857.444
03/29/2014  13:35:00      108.002     -256.885       21.260      174.635      144.775      108.227    30497.233    20959.796    11713.110        7.063        3.159      278.665       95.811        0.118      338.965       11.971      857.663
03/29/2014  13:36:00      108.951     -167.165       95.230      155.804      253.772      142.688    24274.981    64400.369    20359.991        7.894        5.452      199.536      152.551        0.585      338.896       11.856      857.653
03/29/2014  13:37:00      149.636     -253.794       79.639      158.184      318.046      169.556    25022.224   101153.273    28749.353       12.400        7.746      294.622      194.495        0.436      338.755       11.618      857.632
03/29/2014  13:38:00       34.598     -158.606      175.659      171.087      281.616      163.465    29270.843    79307.551    26720.965        9.623        6.765      162.336      146.099        0.810      338.731       11.579      857.494
03/29/2014  13:39:00      249.687     -400.809      -18.330      261.021      326.159      160.147    68131.810   106379.634    25646.979       21.170       10.008      472.220      187.043        0.157      338.684       11.501      857.520
03/29/2014  13:40:00      157.197     -335.775       27.465      207.724      235.457      156.508    43149.219    55439.824    24494.751       13.062        6.154      370.751      141.211        0.145      338.725       11.569      857.600
03/29/2014  13:41:00      151.749     -112.204      147.092      229.053      275.466      160.539    52465.216    75881.663    25772.807       10.566        7.706      188.726      194.789        1.065      338.708       11.541      857.639
03/29/2014  13:42:00      262.993     -287.111       25.725      204.739      242.304      161.472    41918.227    58711.213    26073.072       13.946        6.335      389.356      160.155        0.169      338.636       11.419      857.610
03/29/2014  13:43:00       79.348     -126.093       56.827      156.116      183.574      135.445    24372.264    33699.310    18345.248        5.091        3.821      148.982      123.858        0.691      338.704       11.533      857.599
03/29/2014  13:44:00      253.786     -293.523       62.463      199.099      345.474      169.355    39640.297   119352.319    28681.234       17.103        9.384      388.024      203.226        0.274      338.606       11.369      857.584
03/29/2014  13:45:00      142.256     -311.606       29.927      235.283      269.399      166.726    55358.264    72576.084    27797.650       13.695        7.787      342.542      184.620        0.290      338.562       11.294      857.596
03/29/2014  13:46:00       66.993     -104.581       73.123      220.132      194.050      103.012    48457.916    37655.481    10611.414        5.873        4.836      124.198      121.646        0.959      338.578       11.323      857.675
03/29/2014  13:47:00      160.563     -179.126       65.769      213.034      246.417      130.179    45383.589    60721.114    16946.529        9.260        6.153      240.554      134.638        0.313      338.545       11.268      857.632
03/29/2014  13:48:00       35.994      -11.841       50.263      106.494      104.020       67.743    11340.994    10820.229     4589.105        1.535        1.338       37.891       66.369        3.068      338.657       11.457      857.611
03/29/2014  13:49:00      146.616     -289.630       29.899      182.857      242.406      121.610    33436.528    58760.623    14788.983       10.661        5.349      324.625      129.542        0.159      338.616       11.384      857.649
03/29/2014  13:50:00      194.554     -306.151       54.309      200.475      279.159      156.071    40190.339    77929.622    24358.311       13.848        7.124      362.739      185.978        0.263      338.574       11.316      857.592
03/29/2014  13:51:00      103.937      -50.551       82.812      107.660      223.538       78.524    11590.705    49969.077     6166.093        4.396        3.386      115.579      108.043        0.874      338.603       11.365      857.573
03/29/2014  13:52:00       68.878       10.463       87.559      151.928      149.129       94.708    23082.154    22239.560     8969.519        3.339        2.715       69.668       97.762        1.969      338.657       11.455      857.539
03/29/2014  13:53:00       49.091        2.011      112.909      129.111      202.322      145.653    16669.530    40934.310    21214.936        4.698        3.941       49.133      143.939        8.583      338.722       11.564      857.562
03/29/2014  13:54:00       49.147      -50.005       93.692      138.420      174.762      108.689    19160.106    30541.866    11813.310        3.759        3.076       70.114      130.652        3.472      338.783       11.667      857.589
03/29/2014  13:55:00      131.034     -301.055        0.474      154.514      207.113      114.382    23874.712    42895.797    13083.264        9.381        3.993      328.335      121.183        0.136      338.813       11.717      857.577
03/29/2014  13:56:00       98.686     -140.030       79.240      127.988      152.402      117.510    16381.047    23226.505    13808.691        4.451        2.671      171.311      110.725        0.418      338.812       11.716      857.621
03/29/2014  13:57:00       12.795      -21.535       37.578      126.069      110.212       70.528    15893.346    12146.680     4974.225        1.752        1.651       25.049       68.986        7.585      338.880       11.831      857.689
03/29/2014  13:58:00       92.578      -78.612       80.358      148.581      178.969       96.443    22076.201    32029.776     9301.185        4.229        3.170      121.451      111.562        0.844      338.828       11.742      857.719
03/29/2014  13:59:00      117.259     -205.377       59.009      227.795      350.918      208.504    51890.629   123143.295    43473.766       13.892       10.925      236.493      231.809        0.961      338.714       11.549      857.578
03/29/2014  14:00:00      129.146     -254.997       40.301      129.927      277.471      144.205    16880.938    76989.987    20795.072        9.897        5.733      285.836      175.003        0.375      338.822       11.731      857.633
03/29/2014  14:01:00       47.742       -0.529      130.342      121.092      159.154      114.451    14663.347    25329.904    13099.060        3.617        2.655       47.745      100.520        4.432      338.767       11.641      857.635
03/29/2014  14:02:00       83.171      -96.426       49.252      147.258      192.306       96.233    21684.861    36981.721     9260.748        4.327        3.396      127.340      129.533        1.035      338.691       11.514      857.596
03/29/2014  14:03:00      113.699      -17.093       85.499      132.430      147.304       99.516    17537.823    21698.589     9903.356        3.482        2.457      114.977      103.931        0.817      338.634       11.417      857.623
03/29/2014  14:04:00      -56.251      -39.337        6.845      129.506       99.665       67.115    16771.881     9933.085     4504.483        1.798        1.560       68.641       44.519        0.421      338.661       11.464      857.589
03/29/2014  14:05:00       -0.857       -3.660       33.450      113.407      117.269       61.757    12861.089    13752.071     3813.872        1.577        1.521        3.759       67.592      323.332      338.680       11.496      857.590
03/29/2014  14:06:00      -23.679      -83.631       -3.537       64.149       59.770       44.733     4115.143     3572.456     2001.086        0.863        0.484       86.918       20.939        0.058      338.697       11.525      857.567
03/29/2014  14:07:00       51.799      -91.496       12.090       87.241       87.208       53.690     7611.021     7605.196     2882.576        1.465        0.905      105.141       53.012        0.254      338.749       11.610      857.635
03/29/2014  14:08:00      117.822      -91.759       86.802      181.842      195.133      105.766    33066.629    38077.083    11186.431        5.607        4.117      149.337      123.796        0.687      338.626       11.402      857.601
03/29/2014  14:09:00      -57.854      -82.800       -2.327      107.646       92.485       55.123    11587.590     8553.397     3038.531        1.669        1.159      101.009       47.450        0.221      338.731       11.580      857.677
03/29/2014  14:10:00      -82.019     -130.293       11.652      128.670      200.110       69.513    16556.093    40043.973     4832.111        4.262        3.072      153.960       70.671        0.211      338.748       11.609      857.815
03/29/2014  14:11:00     -309.904      -82.033      -22.271      140.676      118.382       72.677    19789.838    14014.352     5282.006        7.117        1.954      320.578       72.503        0.051      338.672       11.480      857.933
03/29/2014  14:12:00     -504.667      -23.585      -50.849      153.842      167.791       71.969    23667.472    28153.826     5179.515       15.740        2.850      505.218       60.546        0.014      338.360       10.955      858.041
03/29/2014  14:13:00     -448.980      -31.730      -24.370      226.210      201.803       90.012    51171.144    40724.311     8102.166       15.157        5.000      450.100      105.574        0.055      337.957       10.279      858.036
03/29/2014  14:14:00     -208.803       49.670      -47.115      145.054       83.831       60.753    21040.623     7027.681     3690.971        4.002        1.588      214.629       61.004        0.081      337.753        9.937      857.977
03/29/2014  14:15:00     -364.418     -123.270        3.863      210.677      185.850       86.615    44384.615    34540.185     7502.089       11.720        4.321      384.703       53.764        0.020      337.899       10.180      857.951
03/29/2014  14:16:00     -276.978      -89.817       16.250      179.157      114.498       72.153    32097.280    13109.886     5206.073        6.772        2.521      291.177       83.699        0.083      337.945       10.258      858.102
03/29/2014  14:17:00     -258.891     -351.117        2.872      184.087      168.185       94.206    33887.958    28286.073     8874.741       13.067        3.552      436.243       92.745        0.045      337.712        9.868      858.143
03/29/2014  14:18:00     -347.654     -289.477       -7.743      186.857      144.296       86.085    34915.638    20821.221     7410.699       13.392        3.157      452.394       91.859        0.041      337.704        9.854      858.047
03/29/2014  14:19:00     -287.528     -237.079       -8.816      167.155      146.051       79.857    27940.856    21331.001     6377.123        9.729        2.782      372.664       77.733        0.044      337.757        9.943      858.045
03/29/2014  14:20:00     -320.466     -402.238       -5.589      212.442      222.465      113.326    45131.605    49490.554    12842.769       18.597        5.373      514.290      109.061        0.045      337.529        9.560      858.043
03/29/2014  14:21:00     -438.150     -281.456       -8.024      202.046      145.106       81.271    40822.785    21055.674     6604.900       16.986        3.424      520.761       87.239        0.028      337.501        9.513      858.003
03/29/2014  14:22:00     -184.054      -96.452        4.322      124.516       86.530       55.230    15504.268     7487.509     3050.353        3.461        1.302      207.795       60.803        0.086      337.575        9.639      857.968
03/29/2014  14:23:00      -73.557       10.674       15.193       88.981       86.844       42.365     7917.688     7541.962     1794.803        1.150        0.863       74.327       43.803        0.347      337.601        9.684      857.940
03/29/2014  14:24:00     -391.072     -124.048      -24.704      166.629      155.599       75.719    27765.196    24211.188     5733.322       11.331        2.885      410.275       70.285        0.029      337.464        9.451      857.906
03/29/2014  14:25:00     -256.677       -4.625      -16.877      179.223      149.038       74.259    32120.812    22212.277     5514.456        6.301        2.992      256.719       79.440        0.096      337.421        9.381      857.825
03/29/2014  14:26:00     -148.297       32.216       28.517      242.805      321.849      113.610    58954.338   103586.995    12907.291        9.961        8.772      151.756      113.289        0.557      337.475        9.472      857.521
03/29/2014  14:27:00     -549.035     -343.364       -9.100      330.308      243.145      134.271   109103.329    59119.723    18028.676       30.280        9.313      647.563      170.485        0.069      337.631        9.732      857.634
03/29/2014  14:28:00     -790.987     -183.185      -53.870      278.324      243.609      112.629    77464.120    59345.267    12685.287       40.578        7.475      811.922      124.388        0.023      337.618        9.711      857.895
03/29/2014  14:29:00     -676.733     -176.343      -43.935      278.508      217.600      118.727    77566.933    47349.662    14096.144       31.498        6.951      699.332      123.993        0.031      337.426        9.388      857.953
03/29/2014  14:30:00     -370.770      -64.984      -16.142      154.298      163.748       79.999    23807.970    26813.486     6399.824        9.948        2.851      376.421       72.835        0.037      337.428        9.392      857.936
03/29/2014  14:31:00     -603.558     -169.644      -35.997      242.350      199.428       92.576    58733.300    39771.679     8570.281       25.069        5.354      626.946       96.150        0.024      337.367        9.289      857.834
03/29/2014  14:32:00     -444.080     -183.094        3.671      215.047      145.788       86.655    46245.138    21254.176     7509.048       15.286        3.750      480.344       87.665        0.033      337.375        9.302      857.736
03/29/2014  14:33:00     -417.924      -24.566      -19.219      221.856      181.794      104.607    49219.989    33049.222    10942.581       13.440        4.661      418.646      114.767        0.075      337.405        9.353      857.752
03/29/2014  14:34:00     -546.036       24.114      -47.524      242.113      179.408       93.310    58618.646    32187.239     8706.733       20.023        4.976      546.568       90.706        0.028      337.319        9.209      857.848
03/29/2014  14:35:00     -362.643      -60.428      -15.718      259.653      138.017       90.952    67419.519    19048.641     8272.314       11.506        4.737      367.643      100.692        0.075      337.394        9.335      857.898
03/29/2014  14:36:00     -293.601      -63.092      -25.368      254.756      129.134       79.816    64900.494    16675.696     6370.585        8.937        4.397      300.303       94.096        0.098      337.402        9.350      857.808
03/29/2014  14:37:00     -894.999     -257.537      -22.652      354.163      249.407      137.919   125431.762    62204.025    19021.609       53.722       10.333      931.316      147.860        0.025      337.080        8.809      857.768
03/29/2014  14:38:00     -808.844     -212.618      -45.428      362.557      299.373      132.071   131447.862    89624.036    17442.718       46.996       11.926      836.323      167.070        0.040      336.968        8.621      857.814
03/29/2014  14:39:00     -491.685     -161.425      -43.984      234.239      168.990       98.268    54867.888    28557.469     9656.637       18.140        4.654      517.505       98.113        0.036      336.935        8.567      857.842
03/29/2014  14:40:00     -530.076      -96.737      -33.711      189.784      170.085       84.382    36018.029    28928.946     7120.372       18.176        3.603      538.831      100.682        0.035      336.921        8.543      857.785
03/29/2014  14:41:00     -300.882     -147.628        5.670      240.387      142.363       86.137    57786.009    20267.240     7419.591        9.890        4.274      335.148      111.425        0.111      337.030        8.726      857.764
03/29/2014  14:42:00     -439.660      -93.485      -30.945      238.548      132.253      102.993    56905.138    17490.826    10607.624       14.398        4.250      449.489      130.368        0.084      336.959        8.608      857.678
03/29/2014  14:43:00     -314.589     -143.861       -5.698      163.963      151.009       87.440    26884.009    22803.632     7645.800        8.850        2.867      345.922       86.614        0.063      337.025        8.717      857.601
03/29/2014  14:44:00     -338.616     -252.513      -13.646      217.618      167.880      100.456    47357.698    28183.728    10091.421       13.210        4.282      422.403      123.548        0.086      337.111        8.861      857.638
03/29/2014  14:45:00     -180.316     -178.060       21.854      203.251      156.436       91.233    41310.938    24472.096     8323.528        6.939        3.705      253.415      115.424        0.207      337.229        9.059      857.623
03/29/2014  14:46:00     -336.346      -91.861        1.695      184.048      124.603       79.898    33873.551    15525.967     6383.740        8.867        2.789      348.665       88.194        0.064      337.234        9.068      857.613
03/29/2014  14:47:00     -419.667      -69.727      -20.572      194.183      166.125       80.924    37706.862    27597.485     6548.749       12.661        3.593      425.420       83.068        0.038      337.162        8.948      857.716
03/29/2014  14:48:00     -253.443     -146.516      -21.133      290.829      122.477       95.126    84581.594    15000.540     9048.914        9.737        5.432      292.746      116.922        0.160      337.105        8.851      857.682
03/29/2014  14:49:00     -501.436     -197.248      -32.374      234.864      159.534       93.158    55161.009    25450.943     8678.499       19.032        4.465      538.837       94.614        0.031      337.044        8.750      857.591
03/29/2014  14:50:00     -186.480      -14.152       -9.156      205.397      102.754       74.727    42187.843    10558.307     5584.186        4.668        2.917      187.016       80.517        0.185      337.072        8.798      857.507
03/29/2014  14:51:00     -362.018     -202.900      -23.187      247.481      151.863       86.634    61246.923    23062.416     7505.516       13.227        4.591      415.000       78.090        0.035      337.168        8.957      857.417
03/29/2014  14:52:00     -481.420     -168.762       -4.643      333.386      312.010      156.704   111146.482    97349.962    24556.050       24.661       11.653      510.143      181.293        0.126      337.424        9.386      857.412
03/29/2014  14:53:00     -472.345     -130.546      -13.788      240.895      185.814      102.236    58030.330    34526.925    10452.287       17.166        5.150      490.053      105.525        0.046      337.316        9.206      857.670
03/29/2014  14:54:00     -400.524      -84.249      -41.525      153.347      168.429       72.283    23515.180    28368.483     5224.898       11.316        2.855      409.289       41.218        0.010      337.018        8.707      857.735
03/29/2014  14:55:00     -142.524     -131.713       41.626      185.224      152.796      109.696    34307.765    23346.741    12033.303        5.453        3.484      194.066      109.968        0.321      336.972        8.629      857.574
03/29/2014  14:56:00     -554.924      -82.126      -17.831      233.500      207.048       98.145    54522.380    42868.852     9632.505       21.099        5.351      560.968       83.468        0.022      336.905        8.518      857.581
03/29/2014  14:57:00     -579.492     -101.468       -5.815      292.378      165.063       95.021    85484.798    27245.873     9029.052       23.393        6.088      588.309       98.149        0.028      336.859        8.442      857.561
03/29/2014  14:58:00     -733.853     -107.197      -12.759      365.386      263.034      135.740   133507.031    69187.107    18425.301       38.561       11.056      741.641      166.448        0.050      336.925        8.551      857.442
03/29/2014  14:59:00     -651.111      -88.082      -38.170      266.253      257.563      122.171    70890.914    66338.918    14925.699       29.263        7.608      657.042      134.130        0.042      336.894        8.498      857.560
03/29/2014  15:00:00     -708.738     -167.359      -25.081      324.043      251.643      126.544   105003.553    63324.263    16013.328       35.761        9.217      728.230      159.040        0.048      336.910        8.524      857.482
03/29/2014  15:01:00     -575.688      -87.648      -82.951      274.283      156.344       92.403    75231.210    24443.479     8538.395       22.708        5.411      582.322       78.304        0.018      336.890        8.492      857.617
03/29/2014  15:02:00     -302.530       73.669      -43.417      106.200      113.641       57.970    11278.437    12914.201     3360.534        6.319        1.378      311.370       56.425        0.033      336.848        8.419      857.625
03/29/2014  15:03:00     -263.083      -89.054      -16.709      111.240      136.366       56.368    12374.230    18595.568     3177.321        5.578        1.707      277.746       48.360        0.030      336.909        8.523      857.630
03/29/2014  15:04:00     -246.497      -67.224       -1.297      116.624      116.837       55.184    13601.260    13650.983     3045.307        4.778        1.515      255.499       56.025        0.048      337.003        8.679      857.630
03/29/2014  15:05:00     -176.568     -105.104        2.937      160.813      163.247       84.830    25860.675    26649.631     7196.081        5.096        2.985      205.483       83.778        0.166      337.184        8.983      857.563
03/29/2014  15:06:00     -255.884       79.229      -31.000      144.128       94.848       49.056    20772.823     8996.233     2406.513        5.244        1.609      267.869       59.949        0.050      337.190        8.995      857.549
03/29/2014  15:07:00     -154.756       17.023      -22.450      146.992       85.625       39.864    21606.507     7331.573     1589.135        2.763        1.526      155.690       40.849        0.069      337.316        9.206      857.394
03/29/2014  15:08:00     -390.075      -99.703      -34.295      163.972      136.091       67.314    26886.773    18520.674     4531.190       10.660        2.497      402.615       75.018        0.035      337.516        9.538      857.229
03/29/2014  15:09:00     -526.240     -182.772      -13.265      246.121      193.638       94.479    60575.672    37495.755     8926.229       20.873        5.350      557.077      104.275        0.035      337.798       10.011      857.171
03/29/2014  15:10:00     -525.723     -138.052      -17.829      175.682      209.372       97.373    30863.993    43836.688     9481.407       18.995        4.209      543.546       99.024        0.033      337.784        9.989      857.209
03/29/2014  15:11:00     -459.145     -151.851      -15.716      178.899      193.030       92.247    32004.981    37260.712     8509.523       15.593        3.889      483.604       95.769        0.039      337.685        9.825      857.295
03/29/2014  15:12:00     -365.234      -99.814      -16.808      162.927      127.861       65.018    26545.363    16348.490     4227.356        9.537        2.356      378.628       67.235        0.032      337.615        9.705      857.389
03/29/2014  15:13:00     -321.752     -104.403      -22.753      145.287      112.810       67.743    21108.451    12726.137     4589.112        7.667        1.921      338.266       73.714        0.047      337.425        9.386      857.397
03/29/2014  15:14:00     -231.686      -58.163      -21.077      149.126       95.036       63.438    22238.520     9031.827     4024.431        4.639        1.765      238.875       67.902        0.081      337.421        9.381      857.330
03/29/2014  15:15:00     -247.701      -48.815      -13.370      106.255       89.871       64.646    11290.101     8076.784     4179.141        4.373        1.177      252.465       51.965        0.042      337.374        9.302      857.248
03/29/2014  15:16:00     -192.474      -25.547        7.222      182.464       70.061       57.725    33293.188     4908.576     3332.204        3.963        2.077      194.162       67.561        0.121      337.439        9.412      857.202
03/29/2014  15:17:00     -506.669      -41.538      -34.789      178.135      196.155       86.779    31731.986    38476.650     7530.562       16.868        3.887      508.369       77.705        0.023      337.381        9.313      857.185
03/29/2014  15:18:00     -335.499      -93.811        5.218      236.829      207.589       93.082    56087.970    43093.338     8664.308       11.460        5.392      348.368      122.687        0.124      337.432        9.399      857.145
03/29/2014  15:19:00     -155.233      149.123      -34.877      136.812      171.861       60.195    18717.488    29536.111     3623.482        4.970        2.594      215.256       39.656        0.034      337.427        9.390      857.106
03/29/2014  15:20:00     -118.141       33.076       -2.617      134.171      161.496       64.852    18001.956    26081.111     4205.827        3.166        2.414      122.684       65.732        0.287      337.467        9.459      856.990
03/29/2014  15:21:00     -403.230      -90.959      -28.512      205.409      158.681       80.514    42192.874    25179.814     6482.546       12.275        3.693      413.362       76.368        0.034      337.491        9.497      856.890
03/29/2014  15:22:00     -632.424      -92.580      -22.640      255.715      250.658      101.260    65390.128    62829.682    10253.675       27.373        6.924      639.165      129.399        0.041      337.488        9.491      856.799
03/29/2014  15:23:00     -522.062      -43.935      -31.890      216.299      190.283       88.017    46785.460    36207.651     7746.971       18.310        4.537      523.907       85.394        0.027      337.447        9.422      856.836
03/29/2014  15:24:00     -640.523      -89.291      -42.241      269.276      267.676      104.609    72509.403    71650.581    10943.004       28.753        7.755      646.717      119.424        0.034      337.367        9.289      856.775
03/29/2014  15:25:00     -532.212     -106.145       -9.235      242.928      186.603       94.327    59013.774    34820.702     8897.627       19.865        5.137      542.694      104.772        0.037      337.357        9.272      856.779
03/29/2014  15:26:00     -596.976     -179.949      -29.685      256.559      188.471      110.152    65822.668    35521.464    12133.544       25.154        5.674      623.508      115.048        0.034      337.301        9.179      856.764
03/29/2014  15:27:00     -477.916       64.608      -29.464      212.821      188.381       92.302    45292.760    35487.480     8519.727       16.136        4.465      482.264       93.692        0.038      337.321        9.213      856.783
03/29/2014  15:28:00     -406.707     -159.558      -22.696      237.600      166.950       93.095    56453.789    27872.219     8666.657       14.217        4.650      436.886      101.731        0.054      337.372        9.299      856.826
03/29/2014  15:29:00     -370.615      -73.557      -16.990      199.518      133.348      100.363    39807.519    17781.599    10072.679       10.534        3.383      377.844       88.748        0.055      337.434        9.403      856.814
03/29/2014  15:30:00     -267.994      -57.103       13.297      163.499      126.649       75.942    26731.845    16040.050     5767.196        6.189        2.427      274.010       73.565        0.072      337.529        9.562      856.822
03/29/2014  15:31:00     -447.086      -45.929      -22.194      124.738      134.790       55.830    15559.463    18168.328     3117.014       11.966        1.842      449.439       54.190        0.015      337.543        9.584      856.801
03/29/2014  15:32:00     -280.668      -94.752       -5.301      131.568      109.788       60.908    17310.160    12053.320     3709.805        6.042        1.654      296.231       63.100        0.045      337.585        9.656      856.755
03/29/2014  15:33:00     -185.252      -97.591        2.090       97.086       87.855       50.527     9425.623     7718.579     2552.957        3.177        0.985      209.385       44.349        0.045      337.726        9.893      856.774
03/29/2014  15:34:00     -252.129     -136.500       -0.130      156.074      116.163       68.693    24359.132    13493.813     4718.695        6.238        2.129      286.707       76.043        0.070      337.681        9.817      856.770
03/29/2014  15:35:00     -437.812      -95.199      -34.440      191.023      141.462       59.353    36489.669    20011.557     3522.780       13.096        3.001      448.043       61.115        0.019      337.391        9.331      856.716
03/29/2014  15:36:00     -247.750      -65.435        1.790      153.442      136.684       79.665    23544.336    18682.460     6346.510        5.711        2.429      256.246       82.158        0.103      337.389        9.327      856.681
03/29/2014  15:37:00     -243.691       48.922      -13.521      122.960      152.856       61.780    15119.143    23364.908     3816.768        5.212        2.115      248.553       63.760        0.066      337.337        9.240      856.586
03/29/2014  15:38:00     -235.645     -136.497      -15.655      166.901      111.191       82.109    27855.976    12363.469     6741.950        6.067        2.348      272.323       74.999        0.076      337.455        9.438      856.581
03/29/2014  15:39:00     -336.498      -86.746      -23.521      192.419      154.938       91.599    37025.168    24005.788     8390.339        9.535        3.471      347.500       89.617        0.067      337.478        9.475      856.615
03/29/2014  15:40:00     -163.776      -28.986       14.367      199.479      121.272       74.409    39791.752    14706.985     5536.681        4.394        3.002      166.322       80.249        0.233      337.472        9.466      856.696
03/29/2014  15:41:00     -330.518      -69.346      -11.902      168.443      158.078       73.130    28372.917    24988.540     5347.996        8.644        2.935      337.715       76.720        0.052      337.471        9.463      856.643
03/29/2014  15:42:00     -420.250      -61.765       -0.887      227.040      143.436       79.129    51547.175    20573.811     6261.444       12.939        3.919      424.765      104.614        0.061      337.504        9.520      856.618
03/29/2014  15:43:00     -431.660     -125.800      -19.448      171.019      125.204       81.646    29247.574    15676.081     6666.089       12.705        2.579      449.617       77.116        0.029      337.554        9.601      856.564
03/29/2014  15:44:00     -548.642      -73.105      -41.255      188.216      182.737       75.678    35425.156    33392.639     5727.113       19.128        3.727      553.491       80.672        0.021      337.528        9.560      856.554
03/29/2014  15:45:00     -328.758      -38.396       -1.375      198.726      135.222       81.985    39491.934    18285.076     6721.515        8.702        3.225      330.993       83.152        0.063      337.551        9.599      856.592
03/29/2014  15:46:00     -406.242      -86.115      -13.907      248.916      241.466       97.473    61959.367    58305.799     9501.020       15.118        6.488      415.269      101.372        0.060      337.513        9.534      856.574
03/29/2014  15:47:00     -451.979     -180.789       -1.724      215.647      172.198       94.694    46503.588    29652.050     8966.935       16.103        4.256      486.795      115.470        0.056      337.535        9.571      856.535
03/29/2014  15:48:00     -515.460     -172.113      -41.347      240.432      209.430       89.181    57807.763    43860.749     7953.293       20.330        5.481      543.435      108.615        0.040      337.542        9.583      856.576
03/29/2014  15:49:00     -390.142     -106.342       -9.584      262.281      205.027       90.928    68791.390    42035.955     8267.936       14.133        5.955      404.375       97.062        0.058      337.446        9.422      856.544
03/29/2014  15:50:00     -705.531     -245.061       -4.256      272.178      228.573      114.915    74081.065    52245.749    13205.352       34.866        6.977      746.879      135.792        0.033      337.333        9.233      856.487
03/29/2014  15:51:00     -689.279     -105.022      -52.513      212.012      249.768      101.644    44948.986    62383.937    10331.439       30.326        5.883      697.234      109.481        0.025      337.284        9.151      856.577
03/29/2014  15:52:00     -439.805      -68.539        4.151      258.668      217.973      112.299    66909.122    47512.057    12611.055       16.256        6.352      445.113      108.426        0.059      337.309        9.193      856.576
03/29/2014  15:53:00     -555.608     -177.363      -24.013      179.537      196.184      102.726    32233.519    38488.275    10552.643       21.099        4.064      583.231       96.119        0.027      337.202        9.012      856.618
03/29/2014  15:54:00     -644.246     -108.377      -23.023      284.647      185.810      119.804    81023.832    34525.452    14353.067       27.859        6.495      653.298      142.999        0.048      337.221        9.047      856.603
03/29/2014  15:55:00     -543.248       19.698      -42.230      160.608      141.830       69.845    25794.937    20115.644     4878.300       17.403        2.539      543.605       68.718        0.016      337.130        8.894      856.596
03/29/2014  15:56:00     -484.625      -90.740       11.230      252.245      209.019      115.115    63627.621    43689.058    13251.454       18.187        6.028      493.047      120.727        0.060      337.145        8.918      856.525
03/29/2014  15:57:00     -548.762      -74.953       -9.896      296.922      266.136      123.560    88162.728    70828.180    15267.037       24.052        8.713      553.857      148.425        0.072      337.082        8.813      856.518
03/29/2014  15:58:00     -428.589      -41.343       -4.227      252.676      229.577      101.383    63844.975    52705.640    10278.600       15.610        6.341      430.579      108.563        0.064      337.076        8.802      856.502
03/29/2014  15:59:00     -783.495      -39.466      -61.964      289.339      208.336      111.695    83717.105    43403.959    12475.760       37.940        6.980      784.488      136.118        0.030      336.923        8.546      856.481
03/29/2014  16:00:00     -633.214     -134.459      -24.978      264.639      155.527      109.290    70034.044    24188.668    11944.365       26.289        5.308      647.332      125.059        0.037      336.837        8.403      856.505
03/29/2014  16:01:00     -619.556     -188.127      -31.893      245.816      188.555      106.086    60425.603    35552.977    11254.250       26.372        5.362      647.489      100.606        0.024      336.780        8.308      856.485
03/29/2014  16:02:00     -753.407      -43.250      -37.147      258.295      237.365      124.758    66716.541    56342.319    15564.469       35.472        6.931      754.647      126.341        0.028      336.712        8.194      856.537
03/29/2014  16:03:00     -742.518     -165.533      -36.270      301.877      273.284      130.998    91129.857    74683.889    17160.528       38.148        9.149      760.746      138.058        0.033      336.686        8.152      856.599
03/29/2014  16:04:00     -464.275     -211.604      -11.510      280.224      204.023      123.112    78525.393    41625.183    15156.617       19.786        6.765      510.223      145.015        0.081      336.783        8.312      856.598
03/29/2014  16:05:00     -384.328     -103.820      -12.782      241.957      161.450       99.743    58543.131    26066.233     9948.612       12.659        4.728      398.104      119.248        0.090      336.820        8.375      856.615
03/29/2014  16:06:00     -478.509      -31.077      -23.877      180.610      150.055       77.019    32619.985    22516.597     5931.960       14.578        3.053      479.518       76.160        0.025      336.833        8.396      856.508
03/29/2014  16:07:00     -505.361      -38.987      -23.588      412.019      226.030      128.244   169759.496    51089.339    16446.577       24.733       11.865      506.862      157.734        0.097      336.957        8.604      856.444
03/29/2014  16:08:00     -411.287     -165.433      -17.228      287.072      237.322      115.675    82410.100    56321.939    13380.787       17.444        7.606      443.312      134.308        0.092      336.954        8.599      856.514
03/29/2014  16:09:00     -692.079     -146.674      -27.122      275.468      209.797      116.214    75882.649    44014.811    13505.614       31.729        6.670      707.451      127.422        0.032      336.960        8.608      856.526
03/29/2014  16:10:00     -621.300      -70.782      -18.891      293.578      235.774      146.022    86187.863    55589.304    21322.459       27.721        8.155      625.319      170.452        0.074      336.986        8.653      856.622
03/29/2014  16:11:00     -700.263     -179.628      -24.039      260.472      206.940      113.263    67845.409    42824.340    12828.433       32.333        6.175      722.935      118.512        0.027      336.893        8.497      856.621
03/29/2014  16:12:00     -659.823     -116.629      -33.598      206.715      160.035      106.711    42731.007    25611.137    11387.265       26.490        3.986      670.051      105.644        0.025      336.847        8.421      856.596
03/29/2014  16:13:00     -576.098      -96.049      -25.009      316.826      211.967      114.923   100378.471    44929.971    13207.269       25.010        7.926      584.050      132.733        0.052      336.909        8.524      856.459
03/29/2014  16:14:00     -692.758     -115.850      -48.911      304.808      205.525      119.812    92907.940    42240.719    14355.011       32.259        7.475      702.378      143.502        0.042      336.829        8.390      856.395
03/29/2014  16:15:00     -433.739      -92.043       -7.415      281.403      245.475      129.712    79187.625    60258.080    16825.218       17.643        7.814      443.398      155.182        0.122      336.929        8.555      856.410
03/29/2014  16:16:00     -549.403     -110.212      -16.190      356.401      224.113      122.045   127022.024    50226.802    14894.951       25.316        9.607      560.348      137.570        0.060      336.919        8.539      856.435
03/29/2014  16:17:00     -588.195     -106.667      -12.165      330.680      292.603      127.527   109349.218    85616.537    16263.138       28.432       10.561      597.789      146.009        0.060      336.878        8.472      856.456
03/29/2014  16:18:00     -650.386     -190.529      -40.261      301.797      287.969      125.069    91081.528    82926.187    15642.358       32.525        9.483      677.719      143.984        0.045      336.780        8.308      856.578
03/29/2014  16:19:00     -687.339     -105.688      -18.937      299.839      248.949      134.348    89903.194    61975.614    18049.265       32.691        8.496      695.417      146.624        0.044      336.750        8.258      856.610
03/29/2014  16:20:00     -880.039     -101.991      -80.204      279.989      196.713      119.373    78393.584    38695.923    14250.014       46.130        6.567      885.930      125.819        0.020      336.714        8.198      856.610
03/29/2014  16:21:00     -566.845     -118.316      -24.464      423.397      224.916      121.195   179265.035    50587.217    14688.316       29.018       12.227      579.062      186.011        0.103      336.790        8.326      856.577
03/29/2014  16:22:00     -958.153     -107.097      -55.540      380.762      276.272      144.850   144979.707    76326.427    20981.603       58.740       12.114      964.120      169.914        0.031      336.694        8.165      856.560
03/29/2014  16:23:00     -833.799     -270.760      -36.459      452.097      375.219      183.517   204391.829   140789.618    33678.352       57.428       18.943      876.660      218.860        0.062      336.665        8.115      856.562
03/29/2014  16:24:00     -497.640     -150.838      -25.434      322.428      256.926      133.311   103960.038    66010.995    17771.936       22.936        9.387      519.998      150.194        0.083      336.729        8.223      856.736
03/29/2014  16:25:00     -788.945     -223.849      -34.837      338.274      196.661       93.886   114429.224    38675.703     8814.591       41.781        8.096      820.087      126.792        0.024      336.594        7.998      856.732
03/29/2014  16:26:00     -415.124      -92.927      -17.470      206.856      203.961       95.961    42789.351    41600.148     9208.423       13.741        4.680      425.398       97.362        0.052      336.684        8.149      856.661
03/29/2014  16:27:00     -578.119     -262.626      -31.400      392.659      262.939      149.129   154180.997    69136.688    22239.442       32.482       12.278      634.976      195.129        0.094      336.671        8.126      856.673
03/29/2014  16:28:00     -704.337     -130.486      -62.210      374.473      247.749      107.864   140229.968    61379.433    11634.602       36.507       10.662      716.322      136.062        0.036      336.593        7.996      856.714
03/29/2014  16:29:00     -589.396      -82.411      -20.476      324.419      179.667      115.670   105247.887    32280.324    13379.452       25.272        7.545      595.129      138.760        0.054      336.612        8.027      856.797
03/29/2014  16:30:00     -429.390     -148.211      -27.544      186.806      168.882       86.204    34896.401    28521.182     7431.181       13.896        3.542      454.249       74.948        0.027      336.674        8.132      856.850
03/29/2014  16:31:00     -602.766      -87.834      -27.582      335.837      200.393      106.307   112786.255    40157.438    11301.122       26.799        8.212      609.132      120.905        0.039      336.605        8.015      856.935
03/29/2014  16:32:00     -420.458     -162.389       -7.231      276.346      190.902      104.876    76366.896    36443.754    10999.032       16.348        6.190      450.727      121.588        0.073      336.576        7.968      856.995
03/29/2014  16:33:00     -376.319      -67.441      -10.590      213.451      156.713       86.401    45561.239    24558.867     7465.053       11.192        3.879      382.314      102.583        0.072      336.614        8.032      857.034
03/29/2014  16:34:00     -412.339     -191.649       14.750      323.980      260.054      137.861   104963.185    67628.271    19005.636       19.925        9.580      454.701      162.118        0.127      336.579        7.973      857.056
03/29/2014  16:35:00     -554.496      -23.015      -38.350      344.274      166.563      130.918   118524.463    27743.153    17139.559       23.640        8.170      554.974      151.329        0.074      336.451        7.757      857.111
03/29/2014  16:36:00     -625.650     -144.853      -33.085      243.373      282.195      110.066    59230.607    79634.022    12114.554       28.222        7.549      642.199      124.769        0.038      336.378        7.634      857.259
03/29/2014  16:37:00     -514.424     -134.350      -22.780      233.062      183.664      101.904    54317.804    33732.426    10384.414       19.080        4.922      531.679      102.376        0.037      336.389        7.653      857.368
03/29/2014  16:38:00     -368.520      -10.014       -2.399      264.802      178.534      115.947    70120.178    31874.469    13443.631       12.565        5.772      368.656      146.193        0.157      336.394        7.661      857.441
03/29/2014  16:39:00     -462.266     -129.269      -11.062      192.358      170.449       97.950    37001.778    29052.811     9594.140       15.307        3.782      480.000       86.277        0.032      336.298        7.502      857.472
03/29/2014  16:40:00     -621.033      -93.854      -43.202      263.034      180.652      106.276    69187.064    32635.272    11294.623       25.471        5.656      628.085      126.636        0.041      336.224        7.378      857.478
03/29/2014  16:41:00     -579.997      -45.658      -41.027      179.884      181.943       95.124    32358.084    33103.108     9048.577       20.732        3.725      581.791       97.222        0.028      336.246        7.416      857.522
03/29/2014  16:42:00     -618.556     -194.384      -36.568      263.976      191.673       92.550    69683.315    36738.699     8565.505       26.834        5.749      648.380      109.157        0.028      336.146        7.248      857.507
03/29/2014  16:43:00     -385.278     -213.803       22.862      250.315      190.120       99.502    62657.819    36145.454     9900.691       15.167        5.435      440.625      120.226        0.074      336.166        7.281      857.536
03/29/2014  16:44:00     -365.202      -47.700       13.726      240.981      139.771       85.560    58071.638    19535.824     7320.588       11.037        4.246      368.304      103.791        0.079      336.197        7.334      857.566
03/29/2014  16:45:00     -550.361     -191.786       -5.378      243.661      166.964       89.001    59370.796    27877.074     7921.130       21.742        4.758      582.819       99.411        0.029      336.118        7.203      857.589
03/29/2014  16:46:00     -309.698     -185.917      -30.400      193.545      131.664       67.898    37459.773    17335.529     4610.141        9.539        2.970      361.217       46.192        0.016      336.220        7.373      857.642
03/29/2014  16:47:00     -333.368      -30.532       -8.511      193.902      151.034       72.705    37597.963    22811.121     5285.962        8.890        3.285      334.763       87.122        0.068      336.228        7.386      857.688
03/29/2014  16:48:00     -426.844     -141.910      -23.301      210.032      129.880       69.918    44113.329    16868.727     4888.480       13.436        3.294      449.815       68.041        0.023      336.144        7.247      857.701
03/29/2014  16:49:00     -402.823      -90.311        1.984      216.575      188.974       98.010    46904.673    35711.103     9605.938       13.131        4.611      412.823      105.157        0.065      336.103        7.178      857.649
03/29/2014  16:50:00     -295.970     -155.049        8.313      194.003      159.044       91.259    37637.339    25295.117     8328.204        9.147        3.563      334.123       84.704        0.064      336.164        7.280      857.687
03/29/2014  16:51:00     -227.018     -101.309        1.377      120.200      136.963       67.616    14448.028    18758.868     4571.967        4.978        1.889      248.597       52.036        0.044      336.166        7.283      857.670
03/29/2014  16:52:00     -397.333      -81.647      -12.255      227.601      144.267       86.024    51802.322    20813.021     7400.044       12.234        4.001      405.635       99.002        0.060      336.044        7.079      857.669
03/29/2014  16:53:00     -261.549     -129.115       -2.525      212.082      172.242      103.770    44978.938    29667.450    10768.257        8.523        4.271      291.682      113.479        0.151      336.014        7.029      857.641
03/29/2014  16:54:00     -315.157     -146.930      -14.881      166.522      128.946       78.366    27729.505    16627.008     6141.265        8.581        2.525      347.724       80.089        0.053      335.967        6.950      857.636
03/29/2014  16:55:00     -279.649     -132.337       -2.518      207.509      126.032       70.687    43059.950    15883.996     4996.582        7.982        3.197      309.382       79.461        0.066      335.983        6.977      857.627
03/29/2014  16:56:00     -308.495     -169.318       12.468      276.946      193.289       92.489    76699.046    37360.470     8554.152       12.328        6.131      351.906      115.524        0.108      335.939        6.903      857.580
03/29/2014  16:57:00     -470.321      -37.258      -10.387      195.266      128.624       81.270    38128.699    16544.147     6604.795       14.198        3.064      471.795       96.830        0.042      335.839        6.737      857.592
03/29/2014  16:58:00     -419.540      -60.758      -15.942      181.329      133.108       85.340    32880.236    17717.613     7282.999       11.891        2.894      423.917       78.261        0.034      335.835        6.730      857.576
03/29/2014  16:59:00     -380.638     -151.554      -31.080      202.940      142.089       80.037    41184.502    20189.417     6405.914       11.829        3.389      409.700       60.636        0.022      335.886        6.815      857.576
03/29/2014  17:00:00     -317.569     -227.412        9.290      203.284      160.479       84.709    41324.389    25753.642     7175.577       11.344        3.713      390.597       99.860        0.065      335.808        6.686      857.540
03/29/2014  17:01:00     -234.950      -71.904      -14.353      121.830       95.889       55.489    14842.637     9194.754     3079.022        4.384        1.356      245.706       64.681        0.069      335.897        6.833      857.523
03/29/2014  17:02:00     -249.353      -80.355       -8.194      121.579       89.330       61.565    14781.491     7979.844     3790.298        4.762        1.328      261.980       57.805        0.049      335.895        6.830      857.531
03/29/2014  17:03:00     -414.032     -184.436      -32.024      226.507      161.858       96.109    51305.581    26198.122     9236.900       14.659        4.337      453.254       82.053        0.033      335.745        6.580      857.493
03/29/2014  17:04:00     -142.468      -36.128       19.460      176.664      122.324       71.228    31210.320    14963.047     5073.484        3.660        2.562      146.978       90.208        0.377      335.874        6.797      857.442
03/29/2014  17:05:00     -398.145      -22.159      -32.038      110.623      119.150       63.265    12237.376    14196.764     4002.519        9.523        1.522      398.761       55.692        0.020      335.779        6.637      857.432
03/29/2014  17:06:00     -235.028      -59.215        2.617      154.365      114.917       62.836    23828.583    13205.858     3948.382        4.986        2.049      242.373       56.731        0.055      335.872        6.791      857.411
03/29/2014  17:07:00     -104.920      -94.638       27.842      154.620      107.438       78.402    23907.391    11542.894     6146.889        3.116        2.080      141.296       85.384        0.365      335.925        6.881      857.398
03/29/2014  17:08:00     -301.796      -46.906      -14.382      219.327      109.234       74.388    48104.220    11931.979     5533.510        7.952        3.278      305.419       90.091        0.087      335.887        6.817      857.356
03/29/2014  17:09:00     -225.631      -31.395        5.476      219.926       88.576       64.001    48367.295     7845.717     4096.174        5.610        3.015      227.804       91.787        0.162      335.948        6.918      857.307
03/29/2014  17:10:00     -280.830     -163.593      -12.076      171.849      133.658       92.153    29531.986    17864.406     8492.242        8.082        2.794      325.005       83.013        0.065      335.927        6.884      857.264
03/29/2014  17:11:00     -406.829       -3.869      -21.890      199.428      160.875       70.360    39771.383    25880.887     4950.525       11.829        3.530      406.848       65.803        0.026      335.899        6.836      857.266
03/29/2014  17:12:00     -445.004     -219.249       -8.835      219.270      144.603       93.133    48079.367    20910.167     8673.722       16.190        3.883      496.084       89.511        0.033      335.878        6.801      857.239
03/29/2014  17:13:00     -354.437     -198.939       -6.956      187.014      144.117       83.381    34974.302    20769.628     6952.313       11.396        3.135      406.451       91.106        0.050      335.899        6.836      857.249
03/29/2014  17:14:00     -297.701      -14.802      -13.745      124.006      100.842       65.972    15377.414    10169.042     4352.346        5.946        1.495      298.069       70.931        0.057      335.916        6.864      857.296
03/29/2014  17:15:00     -206.741      -61.157        5.531      144.332      146.530       71.484    20831.598    21470.936     5109.916        4.695        2.371      215.597       76.349        0.125      335.947        6.916      857.283
03/29/2014  17:16:00     -466.158      -71.106      -15.682      193.610      149.221       71.007    37484.720    22266.994     5042.037       14.369        3.240      471.550       89.836        0.036      335.838        6.735      857.280
03/29/2014  17:17:00     -337.359      -69.624        1.218      186.622      125.768       70.764    34827.922    15817.485     5007.566        8.715        2.783      344.468       83.314        0.058      335.868        6.786      857.275
03/29/2014  17:18:00     -392.593      -48.534      -26.582      171.787      166.384       68.105    29510.914    27683.528     4638.279       10.950        3.092      395.581       77.930        0.039      335.814        6.695      857.266
03/29/2014  17:19:00     -381.560      -40.521      -39.082      117.914       98.845       58.561    13903.660     9770.355     3429.419        8.793        1.355      383.706       61.567        0.026      335.846        6.747      857.258
03/29/2014  17:20:00     -285.639      -14.946      -11.447      132.732      108.608       73.136    17617.822    11795.589     5348.836        5.835        1.738      286.029       57.865        0.041      335.875        6.796      857.257
03/29/2014  17:21:00     -196.414     -107.524       10.115      164.688      107.181       61.994    27121.976    11487.817     3843.227        4.634        2.123      223.919       71.704        0.103      335.933        6.895      857.253
03/29/2014  17:22:00     -168.510       13.502       10.991      113.247       92.570       59.797    12824.826     8569.142     3575.722        2.683        1.248      169.050       62.771        0.138      335.950        6.923      857.259
03/29/2014  17:23:00     -309.858      -77.782      -15.807       76.162       98.012       48.771     5800.705     9606.378     2378.655        6.005        0.889      319.472       31.195        0.010      335.867        6.783      857.257
03/29/2014  17:24:00     -251.089      -50.275       -3.167      108.587       90.846       54.358    11791.078     8253.020     2954.819        4.429        1.150      256.073       55.249        0.047      335.918        6.868      857.255
03/29/2014  17:25:00     -340.618       26.055      -24.932      126.995      115.917       52.599    16127.741    13436.862     2766.704        7.482        1.617      341.613       60.295        0.031      335.836        6.734      857.269
03/29/2014  17:26:00     -251.417      -74.358      -17.928       96.180      121.710       51.743     9250.637    14813.257     2677.343        4.790        1.337      262.183       47.175        0.032      335.848        6.752      857.241
03/29/2014  17:27:00     -289.428     -109.562      -23.510      117.100       97.465       46.497    13712.456     9499.434     2161.974        6.084        1.269      309.471       38.321        0.015      335.853        6.760      857.230
03/29/2014  17:28:00     -273.233      -23.498      -20.803      113.103      102.105       50.517    12792.296    10425.396     2551.948        5.070        1.288      274.241       53.762        0.038      335.815        6.696      857.216
03/29/2014  17:29:00     -271.345       -5.557      -29.830      122.753       66.935       47.047    15068.262     4480.333     2213.398        4.815        1.088      271.402       54.257        0.040      335.767        6.617      857.189
03/29/2014  17:30:00     -166.974      -55.344       -3.924       77.863       60.131       43.927     6062.719     3615.722     1929.625        2.128        0.580      175.907       42.099        0.057      335.830        6.723      857.165
03/29/2014  17:31:00      -79.763      -17.815       14.899       93.812       63.715       58.521     8800.743     4059.541     3424.688        1.159        0.814       81.728       54.889        0.451      335.933        6.896      857.142
03/29/2014  17:32:00     -230.175      -57.002       -9.590       72.424       54.702       40.812     5245.261     2992.293     1665.600        3.311        0.495      237.128       37.108        0.024      335.788        6.652      857.135
03/29/2014  17:33:00     -302.272       12.559      -19.308      119.659      100.487       57.065    14318.174    10097.663     3256.401        5.978        1.384      302.532       54.837        0.033      335.833        6.728      857.154
03/29/2014  17:34:00     -393.183     -147.451      -23.206      149.451      109.665       61.342    22335.635    12026.453     3762.877       10.749        1.906      419.922       62.650        0.022      335.785        6.646      857.153
03/29/2014  17:35:00     -303.672       89.317      -36.152       86.434      116.469       56.022     7470.909    13564.931     3138.498        6.283        1.209      316.534       52.278        0.027      335.755        6.596      857.167
03/29/2014  17:36:00     -117.070       15.906        3.906      121.644       54.368       47.066    14797.153     2955.931     2215.211        1.697        0.998      118.145       55.280        0.219      335.864        6.781      857.128
03/29/2014  17:37:00     -236.645      -66.519      -21.480       90.405       80.317       46.481     8173.043     6450.815     2160.466        3.883        0.839      245.816       37.575        0.023      335.837        6.733      857.124
03/29/2014  17:38:00     -145.776      -95.080       23.104      112.311      105.145       65.418    12613.849    11055.405     4279.530        2.938        1.397      174.043       66.793        0.147      335.933        6.894      857.087
03/29/2014  17:39:00     -268.778      -72.178        6.194      172.266      104.317       52.908    29675.493    10881.942     2799.246        6.041        2.168      278.301       57.433        0.043      335.836        6.732      857.055
03/29/2014  17:40:00     -376.683     -158.187      -18.591      121.409       86.160       58.909    14740.260     7423.608     3470.213        9.644        1.282      408.550       58.978        0.021      335.782        6.641      857.048
03/29/2014  17:41:00     -291.073     -122.049      -17.568      125.178       84.463       46.734    15669.421     7134.081     2184.042        6.245        1.249      315.626       39.436        0.016      335.829        6.720      857.072
03/29/2014  17:42:00     -220.863      -69.209        7.923      143.867       97.182       48.559    20697.615     9444.316     2357.967        4.306        1.625      231.452       53.901        0.054      335.829        6.721      857.092
03/29/2014  17:43:00     -238.428      -42.318      -16.711      138.292       98.432       48.353    19124.773     9688.851     2338.033        4.503        1.558      242.154       47.279        0.038      335.909        6.853      857.152
03/29/2014  17:44:00     -235.937     -102.817       23.934      168.652      149.822       82.032    28443.647    22446.649     6729.204        6.220        2.881      257.366       83.597        0.106      335.857        6.765      857.102
03/29/2014  17:45:00     -249.479     -142.597        0.002      168.459      139.640       80.163    28378.444    19499.315     6426.074        6.843        2.715      287.356       96.421        0.113      335.909        6.854      857.085
03/29/2014  17:46:00     -282.744      -56.844       -6.825      135.600      133.284       67.116    18387.278    17764.547     4504.598        6.193        2.033      288.402       59.803        0.043      335.842        6.742      857.089
03/29/2014  17:47:00     -284.835      -97.723        1.109      154.879      126.614       62.408    23987.427    16031.048     3894.733        6.729        2.196      301.132       64.143        0.045      335.834        6.729      857.071
03/29/2014  17:48:00     -462.451     -166.227      -16.238      197.999      138.804       80.804    39203.715    19266.479     6529.229       15.336        3.250      491.419       94.730        0.037      335.734        6.562      857.046
03/29/2014  17:49:00     -424.596     -101.227      -20.752      243.775      132.288       69.093    59426.036    17500.205     4773.801       13.631        4.085      436.496       86.913        0.040      335.724        6.547      857.014
03/29/2014  17:50:00     -309.873      -93.560      -16.660      116.356      100.011       65.180    13538.672    10002.135     4248.489        6.642        1.389      323.690       64.806        0.040      335.769        6.619      857.055
03/29/2014  17:51:00     -326.129     -167.771       -5.797      139.894      122.507       73.810    19570.206    15007.862     5447.844        8.728        2.001      366.752       69.566        0.036      335.756        6.600      857.072
03/29/2014  17:52:00     -415.740     -143.288        9.742      245.484      159.419       85.917    60262.219    25414.361     7381.702       14.324        4.653      439.740      108.360        0.061      335.710        6.522      857.078
03/29/2014  17:53:00     -255.866      -67.779        8.120      161.348      161.739       68.574    26033.256    26159.410     4702.421        6.350        2.845      264.691       63.292        0.057      335.761        6.607      857.081
03/29/2014  17:54:00     -217.955     -121.402      -11.675      114.904       78.823       49.849    13202.836     6213.110     2484.927        4.214        1.095      249.485       42.216        0.029      335.778        6.635      857.082
03/29/2014  17:55:00     -228.445     -120.863        5.174      145.973      105.602       62.993    21308.164    11151.845     3968.119        5.162        1.821      258.447       62.920        0.059      335.695        6.498      857.065
03/29/2014  17:56:00     -148.784     -116.060       -9.508      132.275       77.815       56.905    17496.770     6055.222     3238.155        3.124        1.340      188.697       63.907        0.115      335.734        6.563      857.082
03/29/2014  17:57:00     -325.001     -228.872       -4.262      203.312      142.851       83.454    41335.648    20406.340     6964.608       11.335        3.435      397.502       87.359        0.048      335.675        6.464      857.095
03/29/2014  17:58:00     -211.023      -78.694       -7.955      152.260      117.142       59.219    23183.034    13722.134     3506.850        4.559        2.021      225.219       68.489        0.092      335.693        6.494      857.117
03/29/2014  17:59:00     -146.915      -42.833        6.505      120.990       90.226       56.915    14638.634     8140.821     3239.316        2.473        1.301      153.032       58.420        0.146      335.722        6.543      857.105
03/29/2014  18:00:00     -286.756     -181.408       -8.421      154.070      145.780       70.837    23737.545    21251.938     5017.827        8.260        2.500      339.319       84.459        0.062      335.663        6.443      857.103
03/29/2014  18:01:00     -260.422     -180.650      -19.759      124.706      121.641       67.645    15551.547    14796.623     4575.893        6.788        1.746      316.945       65.612        0.043      335.643        6.410      857.079
03/29/2014  18:02:00     -409.914     -113.038      -31.253      151.859      132.023       77.202    23061.244    17430.084     5960.187       11.411        2.323      425.215       80.774        0.036      335.597        6.335      857.049
03/29/2014  18:03:00     -242.839      -60.954        4.693      135.824      106.128       66.038    18448.069    11263.201     4360.991        4.838        1.704      250.372       71.418        0.081      335.681        6.474      857.043
03/29/2014  18:04:00     -328.688     -149.650       -2.183      203.551      127.073       85.129    41432.871    16147.656     7247.020        9.762        3.241      361.152       93.994        0.068      335.635        6.396      857.004
03/29/2014  18:05:00     -285.063     -147.837       -0.252      148.921      117.706       80.697    22177.580    13854.624     6511.973        7.282        2.127      321.118       83.506        0.068      335.636        6.398      856.986
03/29/2014  18:06:00     -184.155     -140.953        3.132      153.031      104.237       72.216    23418.429    10865.440     5215.140        4.664        1.975      231.907       71.331        0.095      335.710        6.524      856.963
03/29/2014  18:07:00     -248.014     -153.881       -5.707      190.955      141.912       90.886    36463.868    20139.122     8260.194        7.503        3.243      291.873       99.969        0.117      335.687        6.485      856.955
03/29/2014  18:08:00     -333.325      -74.383       -5.467      177.228      167.859       65.553    31409.612    28176.557     4297.178        9.026        3.194      341.523       63.900        0.035      335.670        6.455      856.994
03/29/2014  18:09:00     -506.996     -159.744      -23.872      217.393      161.099       91.306    47259.769    25952.914     8336.851       18.232        4.077      531.567       98.708        0.034      335.590        6.320      856.982
03/29/2014  18:10:00     -384.801     -163.389      -17.566      191.539      172.615      102.087    36687.272    29795.991    10421.779       12.598        3.845      418.052       93.495        0.050      335.640        6.405      856.942
03/29/2014  18:11:00     -380.295     -242.672       -4.832      186.500      208.543      104.003    34782.360    43490.341    10816.650       14.630        4.454      451.126      104.360        0.054      335.605        6.346      856.882
03/29/2014  18:12:00     -466.476     -201.365       -3.807      231.301      192.379      101.982    53500.262    37009.813    10400.254       17.952        5.046      508.082      108.031        0.045      335.580        6.306      856.839
03/29/2014  18:13:00     -318.661     -110.002       12.372      232.452      164.465      104.167    54033.991    27048.670    10850.748       10.285        4.597      337.113      123.647        0.135      335.592        6.326      856.782
03/29/2014  18:14:00     -505.260     -247.652      -18.143      308.362      210.871      109.643    95087.062    44466.583    12021.483       23.423        7.579      562.689      149.226        0.070      335.570        6.288      856.782
03/29/2014  18:15:00     -414.705     -114.197      -15.073      213.414      137.385       81.783    45545.349    18874.595     6688.531       12.816        3.555      430.141       80.751        0.035      335.549        6.254      856.773
03/29/2014  18:16:00     -364.361     -175.366       -3.004      264.076      180.414      103.934    69736.105    32549.388    10802.188       13.828        5.654      404.367      114.245        0.080      335.494        6.162      856.716
03/29/2014  18:17:00     -298.236     -162.083       -4.028      218.094      171.862      115.381    47564.976    29536.440    13312.774       10.281        4.521      339.435      133.836        0.155      335.508        6.186      856.705
03/29/2014  18:18:00     -312.368     -177.020        0.769      261.832      186.365      108.230    68555.796    34732.026    11713.794       12.193        5.750      359.040      124.777        0.121      335.482        6.142      856.712
03/29/2014  18:19:00     -513.286      -84.036      -28.477      224.992      177.113       84.981    50621.540    31368.894     7221.777       18.026        4.461      520.120       91.043        0.031      335.435        6.064      856.726
03/29/2014  18:20:00     -391.731      -97.650       -8.738      210.762      202.907       85.302    44420.410    41171.351     7276.465       12.795        4.643      403.719       94.431        0.055      335.425        6.048      856.678
03/29/2014  18:21:00     -200.318      -76.928       10.904      183.331      125.738       75.888    33610.379    15810.151     5758.950        5.066        2.759      214.581       86.621        0.163      335.516        6.199      856.641
03/29/2014  18:22:00     -388.358     -110.285      -20.987      158.390      127.622       77.513    25087.470    16287.475     6008.315       10.539        2.369      403.714       85.538        0.045      335.379        5.971      856.600
03/29/2014  18:23:00     -409.056     -136.767       -8.980      172.254      154.236       78.950    29671.507    23788.621     6233.048       12.289        2.985      431.314       84.717        0.039      335.391        5.988      856.553
03/29/2014  18:24:00     -387.575      -59.454      -16.360      153.383      147.713       66.397    23526.474    21819.001     4408.536       10.188        2.488      392.108       65.184        0.028      335.376        5.966      856.491
03/29/2014  18:25:00     -628.248      -68.342      -37.656      206.418      186.549       94.143    42608.518    34800.519     8862.882       24.351        4.314      631.954      102.497        0.026      335.310        5.855      856.399
03/29/2014  18:26:00     -514.348      -41.311      -26.376      250.735      159.761       85.906    62867.870    25523.680     7379.925       18.134        4.789      516.004      112.586        0.048      335.314        5.863      856.319
03/29/2014  18:27:00     -473.961      -76.154      -20.437      198.509      166.853       94.193    39405.783    27839.811     8872.350       15.347        3.806      480.040      100.221        0.044      335.311        5.857      856.231
03/29/2014  18:28:00     -499.263      -36.968      -30.544      245.602      174.308       90.159    60320.391    30383.180     8128.607       17.518        4.942      500.630      112.004        0.050      335.324        5.879      856.195
03/29/2014  18:29:00     -435.119       45.892      -33.808      147.198      113.837       83.489    21667.221    12958.940     6970.422       11.708        2.080      437.533       69.506        0.025      335.342        5.909      856.171
03/29/2014  18:30:00     -308.518      -67.913        1.349      188.261      162.354       80.212    35442.336    26358.892     6433.958        8.400        3.412      315.904       85.536        0.073      335.391        5.991      856.184
03/29/2014  18:31:00     -388.884      -83.227       -8.763      201.904      144.756       86.581    40765.175    20954.352     7496.213       11.371        3.461      397.690       86.701        0.048      335.359        5.937      856.197
03/29/2014  18:32:00     -403.503     -100.995      -11.069      200.195      147.795       87.693    40077.924    21843.266     7690.021       12.136        3.481      415.950       99.587        0.057      335.364        5.946      856.215
03/29/2014  18:33:00     -270.473      -65.589        0.749      149.703      132.362       83.819    22410.874    17519.636     7025.589        6.220        2.348      278.312       93.034        0.112      335.389        5.988      856.225
03/29/2014  18:34:00     -275.662     -116.294       -1.735      224.052      182.997       92.164    50199.331    33487.887     8494.157        9.083        4.609      299.189      108.408        0.131      335.380        5.973      856.252
03/29/2014  18:35:00     -347.891     -120.933      -21.900      194.159      169.556       75.911    37697.838    28749.392     5762.520       10.416        3.610      368.311       89.091        0.059      335.372        5.959      856.276
03/29/2014  18:36:00     -500.293        3.655      -32.513      251.227      163.125       90.765    63115.252    26609.635     8238.362       17.464        4.898      500.307      109.277        0.048      335.326        5.882      856.312
03/29/2014  18:37:00     -354.990      -70.944      -14.231      182.844      105.782       78.129    33431.879    11189.872     6104.168        9.098        2.536      362.009       84.908        0.055      335.373        5.961      856.349
03/29/2014  18:38:00     -479.785      -68.725       -8.805      198.183      187.889       95.996    39276.584    35302.320     9215.305       15.938        4.190      484.682       97.573        0.041      335.310        5.855      856.371
03/29/2014  18:39:00     -465.307       39.186      -24.970      205.810      152.789       87.925    42357.833    23344.456     7730.855       14.604        3.672      466.954       96.826        0.043      335.308        5.852      856.408
03/29/2014  18:40:00     -628.744      -82.383      -47.696      282.001      150.123       96.954    79524.724    22536.789     9400.053       25.790        5.573      634.118      132.391        0.044      335.309        5.853      856.404
03/29/2014  18:41:00     -458.136      -84.897      -18.445      230.681      178.798       89.670    53213.560    31968.717     8040.671       15.531        4.661      465.935       97.374        0.044      335.309        5.853      856.408
03/29/2014  18:42:00     -310.706     -106.548        8.909      196.388      183.150       85.758    38568.351    33543.863     7354.419        9.370        3.973      328.467       83.277        0.064      335.366        5.948      856.387
03/29/2014  18:43:00     -458.342     -130.218      -22.611      257.385      201.682       92.465    66246.964    40675.429     8549.707       17.149        5.774      476.481      110.028        0.053      335.349        5.918      856.375
03/29/2014  18:44:00     -318.490     -136.031        0.710      199.078      149.131       86.341    39632.172    22240.197     7454.755        9.462        3.466      346.324       85.035        0.060      335.381        5.976      856.433
03/29/2014  18:45:00     -590.336     -103.722      -57.187      188.192      191.873       75.614    35416.414    36815.213     5717.533       22.022        3.897      599.379       71.255        0.014      335.334        5.895      856.444
03/29/2014  18:46:00     -537.622     -133.158      -16.817      238.828      166.458       79.858    57038.646    27708.360     6377.346       19.907        4.556      553.867       80.613        0.021      335.323        5.876      856.485
03/29/2014  18:47:00     -508.413      -54.983      -23.365      225.534      162.200       99.168    50865.547    26308.892     9834.266       17.451        4.350      511.378      117.343        0.053      335.330        5.889      856.513
03/29/2014  18:48:00     -462.738     -136.592       11.686      305.216      171.739       92.315    93156.763    29494.163     8522.070       18.202        6.559      482.477      131.183        0.074      335.369        5.955      856.536
03/29/2014  18:49:00     -429.958      -65.550      -12.539      220.450      149.327       89.105    48598.050    22298.493     7939.657       13.406        3.942      434.926      111.615        0.066      335.340        5.906      856.583
03/29/2014  18:50:00     -474.244     -217.292      -14.145      184.946      204.799       97.709    34204.900    41942.609     9547.070       17.899        4.285      521.655       91.926        0.031      335.327        5.883      856.619
03/29/2014  18:51:00     -461.410      -72.349      -27.612      184.407      135.439       80.679    34005.798    18343.757     6509.051       13.887        2.943      467.048       84.984        0.033      335.311        5.857      856.673
03/29/2014  18:52:00     -377.553       -9.659      -12.835      138.983      130.920       69.279    19316.268    17139.942     4799.609        9.202        2.063      377.677       67.704        0.032      335.313        5.860      856.709
03/29/2014  18:53:00     -492.283      -67.398      -41.106      216.483      152.403       90.803    46864.801    23226.555     8245.167       16.344        3.917      496.876      116.817        0.055      335.297        5.834      856.712
03/29/2014  18:54:00     -324.680      -98.477       -8.790      143.191      149.654       70.886    20503.761    22396.316     5024.850        8.155        2.396      339.286       65.262        0.037      335.322        5.876      856.701
03/29/2014  18:55:00     -250.137      -91.369       15.491      185.279      157.188       91.867    34328.234    24707.994     8439.568        6.930        3.374      266.302      103.719        0.152      335.370        5.956      856.721
03/29/2014  18:56:00     -509.783     -138.763      -32.328      192.826      140.904       86.133    37181.685    19853.971     7418.899       17.230        3.223      528.331       91.277        0.030      335.333        5.894      856.761
03/29/2014  18:57:00     -469.160     -140.495      -20.971      199.284      154.279       71.663    39714.258    23802.093     5135.546       15.446        3.433      489.745       78.601        0.026      335.325        5.880      856.810
03/29/2014  18:58:00     -315.642      -41.669      -16.728      107.840      103.872       68.428    11629.541    10789.398     4682.408        6.437        1.355      318.381       63.689        0.040      335.342        5.907      856.862
03/29/2014  18:59:00     -294.248      -36.748      -16.423      132.602      103.406       64.960    17583.295    10692.742     4219.791        6.034        1.625      296.533       62.598        0.045      335.406        6.016      856.871
03/29/2014  19:00:00     -487.996      -86.309      -28.726      189.103      157.919       80.721    35759.881    24938.391     6515.930       15.680        3.361      495.569       92.352        0.035      335.394        5.996      856.838
03/29/2014  19:01:00     -446.625      -75.360      -12.164      195.416      152.400       76.545    38187.283    23225.880     5859.076       13.627        3.364      452.938       84.219        0.035      335.421        6.041      856.847
03/29/2014  19:02:00     -423.356     -216.109       -5.694      175.470      147.915       90.270    30789.645    21878.840     8148.704       14.338        3.041      475.324       88.624        0.035      335.435        6.063      856.839
03/29/2014  19:03:00     -253.859      -43.633       14.386      139.721      124.576       70.776    19522.001    15519.062     5009.223        5.329        2.003      257.581       61.937        0.058      335.467        6.118      856.890
03/29/2014  19:04:00     -279.136      -56.162      -10.548      184.653      111.030       67.997    34096.642    12327.693     4623.618        6.611        2.552      284.730       83.546        0.086      335.465        6.114      856.923
03/29/2014  19:05:00     -440.002      -67.727      -24.988      116.801      118.691       70.711    13642.395    14087.542     5000.094       11.577        1.637      445.184       60.659        0.019      335.431        6.057      856.950
03/29/2014  19:06:00     -314.779     -108.243      -12.782      178.218      146.910       88.033    31761.585    21582.595     7749.801        8.602        3.055      332.869       79.098        0.056      335.456        6.098      856.959
03/29/2014  19:07:00     -484.428      -36.999      -55.963      129.263      150.215       66.950    16708.931    22564.613     4482.316       14.146        2.188      485.839       49.956        0.011      335.409        6.019      856.988
03/29/2014  19:08:00     -391.059      -38.767      -24.562      158.597      114.440       74.778    25153.163    13096.446     5591.717        9.943        2.192      392.975       72.507        0.034      335.411        6.024      857.003
03/29/2014  19:09:00     -377.851      -64.591      -18.665      144.466      145.181       80.544    20870.555    21077.404     6487.288        9.785        2.422      383.332       79.167        0.043      335.405        6.014      856.967
03/29/2014  19:10:00     -365.815       39.430      -13.930      182.044      152.000       76.609    33140.108    23103.878     5868.903        9.883        3.106      367.934       68.237        0.034      335.365        5.948      856.923
03/29/2014  19:11:00     -660.248       -6.548      -52.727      164.703      132.653       84.385    27127.103    17596.818     7120.900       24.529        2.592      660.281       77.734        0.014      335.351        5.924      856.879
03/29/2014  19:12:00     -357.946      -71.252      -17.922      135.555      140.363       74.502    18375.043    19701.636     5550.480        8.857        2.181      364.969       75.890        0.043      335.363        5.944      856.869
03/29/2014  19:13:00     -408.098      -65.189      -13.939      163.644      148.041       70.184    26779.514    21916.063     4925.750       11.229        2.681      413.272       74.293        0.032      335.366        5.949      856.843
03/29/2014  19:14:00     -414.954      -76.928      -25.562      176.866      122.604       61.718    31281.504    15031.734     3809.067       11.443        2.506      422.024       74.672        0.031      335.335        5.898      856.832
03/29/2014  19:15:00     -316.045     -161.052        6.502      116.194      120.679       77.777    13501.050    14563.331     6049.246        7.998        1.706      354.714       63.542        0.032      335.353        5.927      856.824
03/29/2014  19:16:00     -266.592      -73.085       -1.385      168.659      131.374       73.379    28445.839    17259.154     5384.426        6.374        2.554      276.429       79.218        0.082      335.364        5.945      856.789
03/29/2014  19:17:00     -303.598      -91.601       -8.988      175.743      151.293       71.287    30885.506    22889.602     5081.790        7.974        2.943      317.116       80.453        0.064      335.358        5.935      856.760
03/29/2014  19:18:00     -534.493     -103.823      -42.223      177.838      169.443       78.751    31626.198    28710.882     6201.718       18.238        3.327      544.483       86.223        0.025      335.296        5.833      856.736
03/29/2014  19:19:00     -446.113     -103.924      -21.556      148.850      151.685       73.700    22156.322    23008.223     5431.635       13.043        2.530      458.057       72.171        0.025      335.287        5.817      856.748
03/29/2014  19:20:00     -276.997       12.666      -26.627      127.194      120.322       73.536    16178.407    14477.288     5407.473        5.682        1.803      277.286       59.423        0.046      335.290        5.821      856.747
03/29/2014  19:21:00     -410.178     -134.346      -19.669      167.243      138.443       76.050    27970.297    19166.515     5783.622       11.979        2.646      431.619       78.672        0.033      335.253        5.760      856.730
03/29/2014  19:22:00     -386.941     -119.908      -26.894      136.850      106.514       42.775    18727.891    11345.173     1829.730        9.836        1.595      405.094       57.736        0.020      335.237        5.735      856.671
03/29/2014  19:23:00     -338.593     -100.782      -10.046      144.972      112.299       66.863    21016.892    12611.050     4470.696        8.149        1.905      353.274       57.651        0.027      335.254        5.762      856.595
03/29/2014  19:24:00     -540.519     -112.974      -38.254      193.749      154.061       87.664    37538.724    23734.857     7684.896       18.766        3.448      552.200       87.206        0.025      335.215        5.697      856.572
03/29/2014  19:25:00     -360.560     -151.629      -45.332      138.200      125.951       68.960    19099.125    15863.549     4755.418        9.738        1.986      391.146       59.988        0.024      335.225        5.714      856.557
03/29/2014  19:26:00     -338.544     -113.357      -38.746      123.369       99.609       62.118    15219.824     9921.876     3858.651        7.898        1.450      357.018       55.630        0.024      335.247        5.750      856.571
03/29/2014  19:27:00     -341.063      -37.113      -12.262      218.423      136.640       75.866    47708.397    18670.479     5755.626        9.498        3.607      343.076       97.090        0.080      335.247        5.750      856.560
03/29/2014  19:28:00     -313.877     -131.361       -9.840      176.698      140.434       76.008    31222.233    19721.751     5777.250        8.628        2.836      340.256       69.114        0.041      335.243        5.743      856.506
03/29/2014  19:29:00     -258.748      -61.944      -15.326      126.694      114.314       63.463    16051.350    13067.758     4027.498        5.208        1.657      266.060       70.743        0.071      335.219        5.704      856.521
03/29/2014  19:30:00     -377.101      -50.664      -37.434      101.814      112.153       56.962    10366.183    12578.388     3244.662        8.618        1.309      380.489       48.433        0.016      335.201        5.673      856.499
03/29/2014  19:31:00     -380.828      -32.685      -43.461      137.918       95.024       61.476    19021.364     9029.484     3779.307        8.990        1.592      382.228       50.040        0.017      335.240        5.739      856.452
03/29/2014  19:32:00     -336.133     -129.139      -20.045      116.614       91.559       55.089    13598.916     8383.022     3034.770        7.754        1.251      360.087       39.622        0.012      335.221        5.706      856.476
03/29/2014  19:33:00     -360.574     -187.994      -14.187      177.461      125.969       74.264    31492.534    15868.233     5515.149       10.921        2.644      406.639       81.460        0.040      335.241        5.739      856.491
03/29/2014  19:34:00     -415.692     -178.783      -19.794      159.707      154.148       83.980    25506.226    23761.737     7052.566       13.073        2.816      452.507       85.257        0.035      335.237        5.734      856.485
03/29/2014  19:35:00     -406.020      -52.318      -33.286      166.446      156.405       67.011    27704.389    24462.667     4490.458       11.267        2.833      409.377       71.914        0.031      335.225        5.713      856.490
03/29/2014  19:36:00     -415.165     -152.808      -18.786      131.559      111.379       58.548    17307.864    12405.239     3427.920       11.460        1.657      442.394       50.076        0.013      335.232        5.725      856.462
03/29/2014  19:37:00     -396.554      -31.173      -32.830      142.531      127.517       73.089    20315.015    16260.483     5341.993       10.060        2.096      397.778       75.767        0.036      335.216        5.699      856.461
03/29/2014  19:38:00     -420.156       -2.448      -36.339      219.059      123.271       70.211    47986.651    15195.740     4929.579       12.297        3.406      420.163       85.311        0.041      335.182        5.644      856.448
03/29/2014  19:39:00     -346.918      -74.328      -25.221      173.929      104.510       63.016    30251.446    10922.257     3971.072        8.582        2.257      354.791       54.356        0.023      335.180        5.640      856.450
03/29/2014  19:40:00     -357.805     -121.158       -7.125      145.980      118.139       81.875    21310.109    13956.913     6703.539        9.235        2.099      377.761       71.221        0.036      335.185        5.647      856.442
03/29/2014  19:41:00     -274.125      -52.429      -28.511      109.602       90.013       57.128    12012.625     8102.274     3263.566        5.104        1.169      279.094       47.467        0.029      335.196        5.667      856.456
03/29/2014  19:42:00     -202.189       77.040       -7.277      178.841      109.849       74.084    31984.091    12066.908     5488.490        4.819        2.477      216.369       79.641        0.135      335.205        5.683      856.424
03/29/2014  19:43:00     -220.101       54.565      -27.553      118.827      107.010       68.790    14119.839    11451.183     4732.109        4.124        1.515      226.764       66.594        0.086      335.194        5.663      856.430
03/29/2014  19:44:00     -192.740      126.817      -34.039      104.890      132.032       63.054    11001.867    17432.496     3975.824        4.339        1.621      230.719       61.896        0.072      335.160        5.608      856.417
03/29/2014  19:45:00     -161.132       16.341        5.282      165.840      119.042       92.430    27503.017    14170.928     8543.224        3.823        2.511      161.959      100.860        0.388      335.162        5.611      856.387
03/29/2014  19:46:00     -184.873       -9.450      -20.608       96.060       96.839       55.674     9227.494     9377.767     3099.607        2.819        1.085      185.115       57.409        0.096      335.168        5.622      856.411
03/29/2014  19:47:00     -164.757       45.555      -27.933       91.258      116.473       60.984     8327.957    13566.035     3719.055        2.780        1.281      170.939       47.249        0.076      335.150        5.591      856.398
03/29/2014  19:48:00     -295.088      -83.052      -14.590      152.555      132.715       58.964    23272.977    17613.302     3476.730        6.927        2.218      306.552       58.889        0.037      335.123        5.547      856.410
03/29/2014  19:49:00     -199.684        6.129      -27.264      121.469       82.136       56.094    14754.809     6746.262     3146.570        3.265        1.232      199.778       51.559        0.067      335.118        5.541      856.422
03/29/2014  19:50:00     -172.463       53.371      -22.560       84.684      135.926       48.602     7171.408    18475.905     2362.201        3.055        1.400      180.532       47.676        0.070      335.098        5.506      856.391
03/29/2014  19:51:00     -244.617       14.422      -27.212      167.019       93.480       69.687    27895.254     8738.434     4856.306        5.113        2.074      245.042       83.026        0.115      335.081        5.477      856.361
03/29/2014  19:52:00     -217.633       29.275      -36.463      131.294      148.278       54.205    17238.021    21986.238     2938.136        4.585        2.108      219.593       36.335        0.027      335.083        5.482      856.343
03/29/2014  19:53:00     -189.701       -5.065      -31.924       65.369      109.694       51.957     4273.082    12032.728     2699.559        2.801        0.950      189.768       28.452        0.022      335.097        5.503      856.376
03/29/2014  19:54:00     -130.039       52.455      -23.853       76.274       82.654       51.429     5817.706     6831.675     2644.938        1.776        0.765      140.220       31.177        0.049      335.095        5.501      856.397
03/29/2014  19:55:00     -111.030      -10.580      -20.544       81.325      106.091       50.921     6613.703    11255.348     2592.914        1.666        1.023      111.533       38.227        0.117      335.084        5.484      856.418
03/29/2014  19:56:00     -143.005       54.713      -41.439       79.272       77.917       38.001     6284.047     6070.994     1444.102        1.948        0.690      153.114       28.394        0.034      335.081        5.478      856.426
03/29/2014  19:57:00     -210.650      -13.158      -17.346       80.568      104.032       53.493     6491.177    10822.669     2861.540        3.251        1.009      211.061       35.081        0.028      335.093        5.496      856.448
03/29/2014  19:58:00     -252.627      -27.812      -11.123      179.246      133.997       66.304    32129.168    17955.091     4396.245        5.959        2.724      254.153       54.853        0.047      335.072        5.461      856.480
03/29/2014  19:59:00     -150.525       29.454      -25.023       68.578       96.665       49.050     4702.940     9344.204     2405.891        2.030        0.823      153.380       45.141        0.087      335.059        5.443      856.516
03/29/2014  20:00:00     -129.470       -1.100      -24.591       93.912       64.236       47.721     8819.384     4126.224     2277.287        1.629        0.761      129.474       46.727        0.130      335.059        5.442      856.525
03/29/2014  20:01:00     -275.321      -21.698      -19.864      223.024      126.558       62.000    49739.845    16016.821     3843.950        7.312        3.480      276.175       72.204        0.068      335.063        5.447      856.525
03/29/2014  20:02:00     -322.558      -55.072      -47.830       91.041      106.675       55.139     8288.436    11379.565     3040.314        6.603        1.135      327.225       39.053        0.014      335.032        5.395      856.571
03/29/2014  20:03:00     -251.834      -39.214      -16.829      110.123      108.234       66.637    12126.968    11714.621     4440.426        4.676        1.414      254.869       42.793        0.028      335.034        5.399      856.603
03/29/2014  20:04:00     -371.972        8.547      -12.692      184.076      143.595       75.786    33883.818    20619.445     5743.502        9.941        3.012      372.070       90.655        0.059      335.044        5.416      856.634
03/29/2014  20:05:00     -333.886     -125.348      -41.858      144.587       79.472       64.268    20905.443     6315.763     4130.408        8.014        1.568      356.640       20.950        0.003      335.033        5.397      856.669
03/29/2014  20:06:00     -305.091     -165.061      -19.877      156.305       94.173       65.026    24431.285     8868.518     4228.335        7.912        1.876      346.880       53.106        0.023      335.031        5.395      856.697
03/29/2014  20:07:00     -448.763      -91.298      -29.987      152.690      126.146       70.323    23314.181    15912.853     4945.255       12.739        2.209      457.956       74.523        0.026      334.997        5.337      856.705
03/29/2014  20:08:00     -197.705      -33.505      -15.588      175.560      127.215       66.887    30821.451    16183.620     4473.908        4.596        2.574      200.524       50.661        0.064      335.039        5.407      856.668
03/29/2014  20:09:00     -154.265      183.684      -16.944      109.541      177.558       66.239    11999.126    31526.751     4387.565        5.286        2.396      239.870       76.801        0.103      334.957        5.270      856.676
03/29/2014  20:10:00     -185.862      118.667      -26.822       81.676       79.004       55.167     6670.937     6241.629     3043.419        3.265        0.798      220.515       37.688        0.029      334.936        5.235      856.714
03/29/2014  20:11:00     -183.784      230.807      -31.372      101.491       87.773       52.819    10300.396     7704.050     2789.888        5.441        1.040      295.040       45.293        0.024      334.889        5.154      856.742
03/29/2014  20:12:00     -233.679       61.741      -28.560       94.664       92.899       50.189     8961.314     8630.271     2518.901        3.967        1.006      241.698       43.693        0.033      334.950        5.258      856.736
03/29/2014  20:13:00     -158.156       54.329       -6.856      151.106       79.793       62.051    22833.077     6366.927     3850.364        3.052        1.653      167.228       78.047        0.218      334.921        5.212      856.736
03/29/2014  20:14:00     -156.685       34.306      -11.033      124.447       73.860       46.919    15487.044     5455.288     2201.365        2.449        1.157      160.397       56.401        0.124      334.943        5.248      856.709
03/29/2014  20:15:00     -143.608       24.668      -19.460      118.658      101.592       58.310    14079.632    10321.009     3400.002        2.470        1.390      145.711       49.801        0.117      334.970        5.293      856.702
03/29/2014  20:16:00      -75.575       48.098      -17.209       65.770       65.432       38.882     4325.672     4281.345     1511.795        0.922        0.506       89.582       41.222        0.212      334.960        5.276      856.683
03/29/2014  20:17:00     -147.326      141.538      -34.864       80.311       75.829       52.433     6449.884     5750.079     2749.230        2.895        0.747      204.299       42.862        0.044      334.933        5.231      856.724
03/29/2014  20:18:00     -176.366      162.800      -40.666       66.621       65.043       43.453     4438.298     4230.542     1888.167        3.491        0.528      240.018       31.998        0.018      334.921        5.210      856.759
03/29/2014  20:19:00     -161.766      170.768      -22.518       99.038       85.967       61.357     9808.432     7390.388     3764.641        3.840        1.048      235.223       62.508        0.071      334.910        5.190      856.805
03/29/2014  20:20:00     -149.760      236.114      -35.636       95.837       95.519       53.512     9184.806     9123.823     2863.575        5.031        1.059      279.603       47.369        0.029      334.825        5.050      856.862
03/29/2014  20:21:00     -143.839      262.085      -31.026       90.693      102.608       54.459     8225.218    10528.417     2965.793        5.603        1.086      298.962       54.422        0.033      334.721        4.876      856.891
03/29/2014  20:22:00     -151.495      167.883      -32.894       81.125       93.937       46.742     6581.295     8824.250     2184.853        3.490        0.880      226.132       51.630        0.052      334.658        4.773      856.917
03/29/2014  20:23:00     -146.817      252.572      -28.266      104.817      136.697       60.484    10986.561    18686.198     3658.333        5.973        1.667      292.144       71.469        0.060      334.733        4.897      856.895
03/29/2014  20:24:00     -197.081      265.242      -41.230       96.208      168.158       71.168     9255.937    28276.988     5064.818        7.674        2.130      330.445       78.593        0.057      334.660        4.776      856.899
03/29/2014  20:25:00     -222.059      296.484      -51.803      103.577      113.136       70.933    10728.188    12799.846     5031.533        8.422        1.428      370.423       66.041        0.032      334.548        4.590      856.922
03/29/2014  20:26:00     -177.184      270.737      -36.810       98.074      103.529       53.412     9618.485    10718.229     2852.886        6.461        1.159      323.563       50.060        0.024      334.518        4.539      856.917
03/29/2014  20:27:00     -150.508      219.427      -29.039       93.741       87.185       56.451     8787.450     7601.142     3186.667        4.561        0.979      266.084       54.415        0.042      334.558        4.604      856.869
03/29/2014  20:28:00     -169.704      322.370      -39.321       97.160      140.893       66.104     9440.153    19850.795     4369.710        8.396        1.683      364.310       72.018        0.039      334.544        4.583      856.834
03/29/2014  20:29:00     -213.447      301.690      -51.089      123.847      116.237       72.540    15338.182    13510.929     5262.042        8.664        1.706      369.563       72.513        0.038      334.462        4.447      856.811
03/29/2014  20:30:00     -211.837      403.073      -52.816      108.388      122.109       69.431    11748.007    14910.564     4820.654       12.080        1.574      455.349       64.168        0.020      334.406        4.354      856.784
03/29/2014  20:31:00     -228.496      324.340      -57.342       96.427      106.325       68.812     9298.236    11304.976     4735.088        9.301        1.267      396.745       65.688        0.027      334.402        4.347      856.774
03/29/2014  20:32:00     -202.607      323.005      -45.578       94.162      117.059       71.971     8866.514    13702.893     5179.803        8.760        1.387      381.290       65.577        0.030      334.460        4.445      856.776
03/29/2014  20:33:00     -209.826      320.281      -47.430       95.301      125.904       63.666     9082.309    15851.797     4053.320        8.892        1.449      382.893       70.155        0.034      334.422        4.382      856.774
03/29/2014  20:34:00     -193.761      296.490      -50.159      127.820      145.999       79.651    16337.985    21315.803     6344.277        8.597        2.200      354.189       92.015        0.067      334.417        4.375      856.783
03/29/2014  20:35:00     -167.357      270.913      -38.017      105.105       98.279       51.861    11047.145     9658.697     2689.516        6.312        1.170      318.437       42.615        0.018      334.451        4.429      856.806
03/29/2014  20:36:00     -206.832      208.792      -34.388      107.255      128.649       63.471    11503.544    16550.495     4028.530        5.981        1.604      293.894       71.266        0.059      334.392        4.331      856.862
03/29/2014  20:37:00     -218.407      198.785      -48.517       92.883       85.092       53.501     8627.299     7240.679     2862.304        5.415        0.937      295.326       52.439        0.032      334.432        4.399      856.901
03/29/2014  20:38:00     -159.112      134.104      -10.033       99.135      120.184       57.424     9827.835    14444.077     3297.463        3.548        1.378      208.088       51.880        0.062      334.450        4.430      856.959
03/29/2014  20:39:00     -189.323      161.629      -36.861      108.356      109.304       68.531    11741.029    11947.305     4696.474        4.585        1.419      248.933       66.026        0.070      334.376        4.303      857.006
03/29/2014  20:40:00     -162.764      239.183      -48.687       84.509       98.531       54.772     7141.719     9708.290     2999.920        5.296        0.992      289.310       50.525        0.030      334.336        4.238      857.044
03/29/2014  20:41:00      -93.839      267.388      -33.780       84.629      112.192       63.447     7162.047    12587.120     4025.511        5.260        1.189      283.376       55.664        0.039      334.314        4.201      857.041
03/29/2014  20:42:00     -126.580      250.121      -26.432      113.711      135.687       60.138    12930.185    18410.866     3616.569        5.711        1.748      280.327       54.094        0.037      334.299        4.176      857.010
03/29/2014  20:43:00     -203.860      320.864      -42.059      119.518      135.874       83.744    14284.561    18461.646     7013.023        9.301        1.988      380.148       70.762        0.035      334.260        4.110      857.008
03/29/2014  20:44:00     -168.990      301.602      -38.939      109.157      129.719       68.872    11915.174    16827.074     4743.357        7.726        1.674      345.719       73.377        0.045      334.252        4.097      857.019
03/29/2014  20:45:00     -108.458      199.062       -8.606      110.473      139.918       64.881    12204.250    19576.918     4209.544        4.372        1.800      226.691       58.124        0.066      334.330        4.230      857.011
03/29/2014  20:46:00     -171.512      428.155      -48.255      119.088      150.403       79.701    14181.862    22621.054     6352.205       12.910        2.158      461.230       84.503        0.034      334.228        4.059      856.997
03/29/2014  20:47:00     -125.956      337.724      -44.452       90.232      137.028       62.059     8141.755    18776.538     3851.336        8.133        1.538      360.447       57.085        0.025      334.261        4.114      856.951
03/29/2014  20:48:00     -188.466      412.861      -66.263      112.691      232.550       77.081    12699.165    54079.669     5941.469       14.153        3.636      453.843       68.677        0.023      334.229        4.061      856.900
03/29/2014  20:49:00     -225.095      506.421      -65.258      125.127      140.813       69.602    15656.853    19828.403     4844.491       17.585        2.016      554.193       78.149        0.020      334.160        3.946      856.880
03/29/2014  20:50:00     -172.186      393.267      -52.268      108.359      150.953       71.913    11741.588    22786.771     5171.414       11.336        1.985      429.309       68.819        0.026      334.203        4.016      856.845
03/29/2014  20:51:00     -239.360      353.946      -56.357      112.908      104.694       69.346    12748.127    10960.901     4808.931       10.713        1.426      427.283       60.990        0.020      334.181        3.979      856.819
03/29/2014  20:52:00     -234.548      322.854      -48.310      110.296      138.438       79.066    12165.118    19165.151     6251.374        9.957        1.879      399.058       69.600        0.030      334.166        3.956      856.812
03/29/2014  20:53:00     -187.618      333.801      -54.075      132.772      172.838       82.107    17628.474    29873.056     6741.534       10.188        2.712      382.915       73.929        0.037      334.176        3.973      856.827
03/29/2014  20:54:00     -176.731      411.996      -52.003      115.637      143.954       69.955    13371.828    20722.688     4893.697       12.133        1.949      448.302       71.403        0.025      334.166        3.954      856.831
03/29/2014  20:55:00     -137.875      261.115      -21.407      103.201      156.428       67.900    10650.512    24469.840     4610.361        6.368        1.987      295.281       81.193        0.076      334.223        4.051      856.832
03/29/2014  20:56:00     -120.576      312.392      -17.025      117.987      124.935       64.833    13920.819    15608.805     4203.279        7.307        1.687      334.854       63.865        0.036      334.199        4.011      856.856
03/29/2014  20:57:00     -160.730      137.579      -28.075       82.426       98.931       59.949     6793.998     9787.411     3593.828        3.286        1.009      211.570       34.791        0.027      334.242        4.082      856.857
03/29/2014  20:58:00     -170.046      187.667      -34.378      106.684      155.662       74.741    11381.411    24230.508     5586.152        5.325        2.060      253.248       79.887        0.100      334.219        4.043      856.860
03/29/2014  20:59:00     -148.709      177.215      -22.996       89.448      109.532       57.137     8001.007    11997.191     3264.599        3.865        1.163      231.342       55.018        0.057      334.236        4.073      856.855
03/29/2014  21:00:00     -213.607      251.383      -46.548      103.160      108.884       69.904    10642.046    11855.705     4886.519        6.918        1.369      329.881       72.667        0.049      334.188        3.992      856.857
03/29/2014  21:01:00     -172.538      166.118      -31.230       96.775       86.411       58.766     9365.448     7466.881     3453.407        3.931        1.014      239.509       47.760        0.040      334.211        4.030      856.846
03/29/2014  21:02:00     -177.496      274.485      -46.390      106.974      118.455       67.424    11443.470    14031.692     4545.970        6.950        1.501      326.874       65.291        0.040      334.176        3.971      856.836
03/29/2014  21:03:00     -125.772      177.260      -27.813      114.985      119.671       69.581    13221.596    14321.098     4841.512        4.019        1.619      217.347       57.847        0.071      334.237        4.073      856.840
03/29/2014  21:04:00     -172.906      105.980      -17.167      101.626      101.629       66.189    10327.774    10328.389     4380.957        3.323        1.252      202.801       55.006        0.074      334.244        4.085      856.860
03/29/2014  21:05:00     -147.212      233.304      -24.353      106.077      119.869       58.124    11252.307    14368.597     3378.407        5.284        1.450      275.866       69.978        0.064      334.218        4.042      856.866
03/29/2014  21:06:00     -205.185      191.770      -44.124       90.472      143.564       56.724     8185.157    20610.494     3217.579        5.641        1.601      280.850       60.075        0.046      334.206        4.021      856.851
03/29/2014  21:07:00     -151.879      197.673      -23.197      100.046       88.800       62.138    10009.238     7885.521     3861.193        4.221        1.088      249.283       41.583        0.028      334.275        4.137      856.856
03/29/2014  21:08:00     -158.561      -10.660      -12.648      108.922      104.344       50.549    11864.061    10887.586     2555.227        2.536        1.265      158.919       41.100        0.067      334.368        4.293      856.871
03/29/2014  21:09:00     -219.045      -35.977      -17.089      111.860       82.686       43.508    12512.572     6836.951     1892.911        3.540        1.062      221.980       33.752        0.023      334.318        4.208      856.864
03/29/2014  21:10:00     -135.830      -12.100       -5.631      102.520       77.188       55.579    10510.334     5957.931     3088.998        1.909        0.978      136.368       34.143        0.063      334.311        4.199      856.848
03/29/2014  21:11:00      -96.854      -44.112       -7.109       96.738       57.657       49.542     9358.297     3324.370     2454.442        1.325        0.757      106.427       22.918        0.046      334.340        4.246      856.836
03/29/2014  21:12:00     -125.768      -37.784       -1.894       94.493       67.354       41.802     8928.848     4536.607     1747.428        1.623        0.761      131.321       42.097        0.103      334.306        4.192      856.845
03/29/2014  21:13:00     -185.766      -97.704        3.543      117.859       96.855       61.314    13890.696     9380.923     3759.419        3.554        1.352      209.893       62.515        0.089      334.296        4.171      856.825
03/29/2014  21:14:00     -278.933      -87.233      -17.428       72.548       82.640       48.481     5263.235     6829.410     2350.442        5.008        0.722      292.255       30.989        0.011      334.283        4.149      856.838
03/29/2014  21:15:00     -179.764       32.871      -17.103       75.619       75.455       47.291     5718.267     5693.436     2236.480        2.367        0.682      182.744       44.878        0.060      334.279        4.144      856.848
03/29/2014  21:16:00      -70.799      121.170      -12.630       76.232       74.205       48.278     5811.270     5506.342     2330.795        1.675        0.682      140.337       37.295        0.071      334.348        4.262      856.798
03/29/2014  21:17:00     -106.761      176.618      -23.470       55.620       64.504       43.759     3093.627     4160.720     1914.859        2.615        0.458      206.378       32.908        0.025      334.347        4.257      856.750
03/29/2014  21:18:00     -105.031      138.570      -16.527       58.945       81.273       39.215     3474.477     6605.318     1537.794        2.106        0.581      173.877       39.083        0.051      334.359        4.278      856.713
03/29/2014  21:19:00     -103.126      136.133      -26.847       76.052       81.037       41.472     5783.843     6567.054     1719.954        2.198        0.704      170.784       46.018        0.073      334.428        4.392      856.668
03/29/2014  21:20:00      -86.502      165.075       -9.280       97.462       92.501       62.734     9498.796     8556.505     3935.532        2.840        1.100      186.367       42.059        0.051      334.509        4.525      856.638
03/29/2014  21:21:00      -86.878      176.194      -11.282       46.670       69.942       39.342     2178.055     4891.865     1547.807        2.367        0.431      196.449       28.942        0.022      334.524        4.550      856.619
03/29/2014  21:22:00      -18.069      160.764       -7.628       46.340       61.643       43.977     2147.417     3799.892     1934.011        1.705        0.394      161.776       23.966        0.022      334.540        4.580      856.585
03/29/2014  21:23:00     -114.061      156.230      -10.003       71.525       91.512       67.044     5115.834     8374.499     4494.963        2.775        0.899      193.437       31.850        0.027      334.597        4.672      856.551
03/29/2014  21:24:00     -182.447      124.895      -23.754       82.746      113.747       50.954     6846.920    12938.322     2596.322        3.591        1.119      221.101       55.491        0.063      334.564        4.615      856.530
03/29/2014  21:25:00      -79.937       10.469      -17.119       68.621       79.107       35.453     4708.820     6257.984     1256.888        0.951        0.611       80.620       27.303        0.115      334.588        4.659      856.519
03/29/2014  21:26:00      -66.996       15.584        0.186       76.005       75.394       39.355     5776.783     5684.205     1548.779        0.887        0.650       68.785       44.063        0.410      334.656        4.772      856.463
03/29/2014  21:27:00      -91.443       29.296        4.585       68.642       66.297       47.211     4711.684     4395.317     2228.848        1.029        0.567       96.021       46.157        0.231      334.654        4.768      856.440
03/29/2014  21:28:00      -83.320      -39.926        2.610       78.238       71.971       37.495     6121.193     5179.775     1405.895        1.062        0.635       92.392       38.405        0.173      334.723        4.882      856.424
03/29/2014  21:29:00      -66.434      -15.176        1.888       96.691       56.017       40.709     9349.233     3137.953     1657.193        0.939        0.707       68.145       23.874        0.123      334.713        4.867      856.420
03/29/2014  21:30:00      -87.307      -35.968      -10.510      124.521       90.249       58.216    15505.539     8144.937     3389.148        1.803        1.352       94.426       56.013        0.352      334.681        4.811      856.411
03/29/2014  21:31:00     -206.902      -27.363      -17.471       73.016       97.801       40.642     5331.276     9565.013     1651.744        3.020        0.827      208.704       38.562        0.034      334.626        4.719      856.423
03/29/2014  21:32:00     -164.828      -93.240       13.601      137.354       85.967       61.144    18866.197     7390.332     3738.554        3.302        1.500      189.373       69.588        0.135      334.618        4.706      856.432
03/29/2014  21:33:00     -208.179      -80.422       -6.114       86.314       77.928       54.053     7450.070     6072.829     2921.733        3.314        0.822      223.173       31.236        0.020      334.616        4.703      856.438
03/29/2014  21:34:00     -247.577       -6.460      -32.823       94.390       68.517       40.511     8909.480     4694.551     1641.155        3.883        0.762      247.661       39.185        0.025      334.552        4.594      856.429
03/29/2014  21:35:00     -149.110      -26.989       -5.926       75.643       76.019       45.284     5721.928     5778.907     2050.663        1.827        0.678      151.533       42.787        0.080      334.610        4.694      856.439
03/29/2014  21:36:00     -252.300      -43.167      -31.765       75.382       80.820       44.724     5682.397     6531.936     2000.197        4.037        0.711      255.966       19.753        0.006      334.531        4.560      856.454
03/29/2014  21:37:00     -138.763      -30.252        3.564       93.937       90.557       57.740     8824.182     8200.577     3333.932        2.027        1.018      142.022       55.592        0.153      334.632        4.730      856.454
03/29/2014  21:38:00     -131.365      -24.472      -10.609       88.039       82.254       35.483     7750.778     6765.755     1259.049        1.687        0.789      133.625       35.169        0.069      334.592        4.665      856.457
03/29/2014  21:39:00      -88.295      -47.020        6.424      110.405       81.050       49.306    12189.265     6569.182     2431.078        1.561        1.059      100.034       60.130        0.361      334.621        4.712      856.422
03/29/2014  21:40:00     -236.530       50.047      -26.044       62.866       98.687       41.710     3952.172     9739.162     1739.763        3.728        0.772      241.767       32.371        0.018      334.501        4.511      856.401
03/29/2014  21:41:00     -154.714      -53.688       -2.276       97.111       78.976       47.317     9430.492     6237.249     2238.884        2.236        0.895      163.765       45.039        0.076      334.573        4.630      856.394
03/29/2014  21:42:00     -198.882      -63.879      -11.906      105.405       77.171       39.554    11110.235     5955.387     1564.510        3.120        0.932      208.888       38.905        0.035      334.518        4.540      856.423
03/29/2014  21:43:00     -143.792      -30.288      -13.024      101.666       75.183       43.910    10336.054     5652.548     1928.115        1.984        0.896      146.947       28.603        0.038      334.549        4.593      856.403
03/29/2014  21:44:00     -127.438      -29.806       -1.719      111.802      113.872       47.579    12499.674    12966.840     2263.797        2.243        1.387      130.877       42.219        0.104      334.547        4.589      856.361
03/29/2014  21:45:00     -323.329      -50.618      -13.325      186.999      107.250       60.442    34968.514    11502.471     3653.222        7.869        2.506      327.267       72.040        0.048      334.502        4.513      856.356
03/29/2014  21:46:00     -321.994      -66.319      -25.776      146.430      121.425       57.583    21441.630    14744.084     3315.859        7.411        1.975      328.753       60.234        0.034      334.469        4.460      856.354
03/29/2014  21:47:00     -379.427     -119.248      -22.153      154.709      139.945       70.007    23934.953    19584.718     4900.971       10.354        2.421      397.724       78.791        0.039      334.440        4.411      856.341
03/29/2014  21:48:00     -163.327      -52.090      -13.773      134.349      122.192       59.041    18049.739    14931.003     3485.865        3.302        1.823      171.432       57.104        0.111      334.496        4.505      856.327
03/29/2014  21:49:00     -302.191      -93.930       -9.018      138.810       92.602       57.323    19268.301     8575.048     3285.978        6.567        1.556      316.453       62.546        0.039      334.453        4.432      856.326
03/29/2014  21:50:00     -249.803       -3.386      -39.087      102.595      138.320       42.979    10525.658    19132.368     1847.192        4.772        1.575      249.826       39.920        0.026      334.444        4.417      856.312
03/29/2014  21:51:00     -131.024      -55.323        5.017      101.305       66.867       45.427    10262.639     4471.188     2063.568        1.852        0.840      142.225       48.843        0.118      334.493        4.500      856.303
03/29/2014  21:52:00     -119.526      -52.333        7.790       91.312       70.277       44.043     8337.962     4938.807     1939.821        1.615        0.761      130.481       43.202        0.110      334.524        4.553      856.293
03/29/2014  21:53:00     -139.782      -37.543       -7.150       75.006       68.335       38.569     5625.881     4669.660     1487.529        1.639        0.589      144.736       26.319        0.033      334.528        4.559      856.297
03/29/2014  21:54:00     -242.824      -47.332      -31.482       87.219       98.400       43.706     7607.212     9682.482     1910.215        4.069        0.960      247.394       28.906        0.014      334.494        4.499      856.299
03/29/2014  21:55:00     -131.897       33.890        0.741       78.073       63.925       45.310     6095.416     4086.451     2052.998        1.539        0.612      136.181       40.245        0.087      334.489        4.495      856.272
03/29/2014  21:56:00     -223.800      -53.733      -15.764       84.093       95.035       46.457     7071.576     9031.566     2158.264        3.574        0.913      230.160       32.552        0.020      334.485        4.485      856.250
03/29/2014  21:57:00     -213.272      -25.944      -16.753       84.264      111.377       42.097     7100.453    12404.937     1772.157        3.385        1.064      214.844       24.479        0.013      334.490        4.494      856.224
03/29/2014  21:58:00     -157.383      -17.275      -20.342       72.696       64.432       34.263     5284.659     4151.479     1173.924        1.804        0.531      158.328       19.611        0.015      334.506        4.520      856.219
03/29/2014  21:59:00     -180.668       -0.822      -21.457      113.993       70.431       37.915    12994.425     4960.524     1437.585        2.624        0.970      180.670       51.401        0.081      334.491        4.498      856.222
03/29/2014  22:00:00     -287.821      -76.954      -22.106       72.791       70.568       36.072     5298.528     4979.884     1301.215        5.041        0.579      297.931       27.825        0.009      334.467        4.455      856.245
03/29/2014  22:01:00      -36.263       39.310       15.897       84.081       90.150       50.201     7069.687     8127.092     2520.140        1.041        0.886       53.481       38.451        0.517      334.574        4.635      856.249
03/29/2014  22:02:00     -217.799      -67.115       -7.019       78.332       68.136       40.677     6135.962     4642.488     1654.586        3.221        0.622      227.905       33.814        0.022      334.463        4.448      856.262
03/29/2014  22:03:00      -65.380      -18.655        5.118       52.299       45.927       32.208     2735.192     2109.283     1037.381        0.526        0.294       67.990       28.935        0.181      334.588        4.660      856.246
03/29/2014  22:04:00     -170.813      -55.496      -11.301       88.179       81.754       44.462     7775.499     6683.761     1976.909        2.441        0.822      179.602       37.151        0.043      334.549        4.592      856.237
03/29/2014  22:05:00     -249.842      -35.926        2.752      120.996       70.829       48.305    14639.963     5016.796     2333.415        4.285        1.100      252.412       42.003        0.028      334.477        4.472      856.220
03/29/2014  22:06:00     -100.990       12.120      -14.969       49.493       47.652       30.273     2449.534     2270.721      916.465        0.810        0.282      101.714        7.543        0.006      334.513        4.532      856.227
03/29/2014  22:07:00     -232.596      -23.363      -12.628      148.159       93.959       48.112    21951.145     8828.385     2314.736        4.394        1.655      233.767       63.917        0.075      334.516        4.537      856.237
03/29/2014  22:08:00     -231.790       -3.322      -25.912       95.433       80.665       40.747     9107.371     6506.783     1660.315        3.584        0.864      231.814       42.273        0.033      334.507        4.523      856.259
03/29/2014  22:09:00     -282.205      -86.833       -7.932      126.229       84.731       54.675    15933.678     7179.327     2989.330        5.667        1.305      295.262       65.187        0.049      334.485        4.485      856.275
03/29/2014  22:10:00     -147.161      -32.349      -18.486       75.085       48.266       37.640     5637.830     2329.571     1416.747        1.621        0.469      150.674       28.269        0.035      334.523        4.549      856.293
03/29/2014  22:11:00     -150.206      -32.741      -14.344       99.872       84.462       48.796     9974.438     7133.809     2381.057        2.166        0.974      153.733       38.281        0.062      334.517        4.540      856.295
03/29/2014  22:12:00     -197.973     -113.310      -18.628      107.505       55.383       50.608    11557.334     3067.236     2561.144        3.478        0.859      228.106       45.041        0.039      334.549        4.591      856.293
03/29/2014  22:13:00     -225.172      -65.297      -26.189       72.164       64.665       33.561     5207.685     4181.539     1126.326        3.308        0.526      234.449       22.830        0.009      334.551        4.594      856.307
03/29/2014  22:14:00     -308.278      -18.929      -41.124       89.527       97.452       42.879     8015.029     9496.945     1838.573        5.821        0.968      308.858       45.271        0.021      334.507        4.522      856.326
03/29/2014  22:15:00     -196.858       -6.188      -21.513       59.314       87.964       43.666     3518.097     7737.720     1906.748        2.621        0.658      196.956       48.538        0.061      334.483        4.482      856.373
03/29/2014  22:16:00     -144.109       48.157      -18.779       74.344       71.825       45.103     5526.985     5158.835     2034.303        1.808        0.636      151.943       49.174        0.105      334.509        4.526      856.370
03/29/2014  22:17:00     -181.774       62.039      -22.312       95.165      120.310       52.161     9056.365    14474.445     2720.757        3.181        1.313      192.070       50.657        0.070      334.526        4.553      856.354
03/29/2014  22:18:00     -211.694       83.905      -36.599      112.825       96.988       47.704    12729.561     9406.713     2275.709        3.880        1.221      227.716       57.430        0.064      334.535        4.568      856.323
03/29/2014  22:19:00     -218.044       51.508      -29.473       64.319       85.074       44.988     4136.962     7237.517     2023.895        3.223        0.670      224.045       35.329        0.025      334.518        4.538      856.315
03/29/2014  22:20:00     -323.879      -22.226      -31.007      125.710      143.630       60.450    15803.010    20629.473     3654.167        7.321        2.004      324.640       54.205        0.028      334.554        4.599      856.291
03/29/2014  22:21:00     -280.998       26.692      -21.121       97.577      121.831       55.641     9521.257    14842.804     3095.883        5.378        1.373      282.263       54.043        0.037      334.552        4.594      856.259
03/29/2014  22:22:00     -172.394       -2.435       -5.122      153.864       73.055       48.890    23674.085     5337.048     2390.279        3.057        1.570      172.411       61.995        0.129      334.579        4.642      856.247
03/29/2014  22:23:00     -114.374       23.389      -15.400       61.827       67.309       40.937     3822.542     4530.448     1675.877        1.195        0.501      116.741       35.653        0.093      334.562        4.616      856.235
03/29/2014  22:24:00     -109.092       75.530      -19.899       62.370       72.680       39.361     3889.964     5282.354     1549.316        1.436        0.536      132.687       34.516        0.068      334.607        4.690      856.214
03/29/2014  22:25:00     -207.205       17.418      -24.438      103.596      136.185       52.680    10732.053    18546.349     2775.147        3.794        1.603      207.935       59.937        0.083      334.559        4.607      856.211
03/29/2014  22:26:00     -102.818        7.492       -6.263       62.132       68.947       39.655     3860.399     4753.703     1572.558        1.042        0.509      103.091       30.875        0.090      334.582        4.648      856.209
03/29/2014  22:27:00     -213.951      -41.658      -33.508       86.797       88.553       49.110     7533.744     7841.571     2411.840        3.321        0.889      217.969       31.689        0.021      334.588        4.654      856.210
03/29/2014  22:28:00     -203.027      -99.943      -29.628      108.085       74.316       51.010    11682.397     5522.879     2602.016        3.594        0.990      226.293       41.110        0.033      334.535        4.567      856.196
03/29/2014  22:29:00     -119.274      -44.052        1.172       92.398       67.598       50.093     8537.421     4569.552     2509.265        1.589        0.781      127.149       46.538        0.134      334.558        4.608      856.185
03/29/2014  22:30:00     -207.056      -93.712      -14.387       84.501       78.456       37.447     7140.342     6155.330     1402.241        3.328        0.735      227.276       31.174        0.019      334.550        4.591      856.157
03/29/2014  22:31:00     -226.370      -55.241      -15.785      106.839       70.174       55.005    11414.511     4924.386     3025.601        3.695        0.968      233.013       56.078        0.058      334.543        4.580      856.141
03/29/2014  22:32:00     -199.411      -34.472      -13.646       97.492      124.487       50.562     9504.610    15496.960     2556.536        3.434        1.378      202.369       52.541        0.067      334.565        4.616      856.124
03/29/2014  22:33:00     -158.387      -30.811      -10.853       93.116       74.519       38.792     8670.605     5553.154     1504.856        2.094        0.786      161.356       33.042        0.042      334.634        4.732      856.114
03/29/2014  22:34:00     -307.690      -75.321      -19.360       96.899       86.416       54.361     9389.511     7467.663     2955.109        6.026        0.991      316.775       49.965        0.025      334.561        4.610      856.121
03/29/2014  22:35:00     -250.584      -51.819      -14.829      110.823       70.136       46.095    12281.760     4919.016     2124.703        4.251        0.966      255.886       45.668        0.032      334.580        4.642      856.120
03/29/2014  22:36:00     -279.726      -31.132       -6.587      138.275      105.550       62.459    19119.976    11140.781     3901.127        5.670        1.708      281.453       71.456        0.064      334.604        4.682      856.112
03/29/2014  22:37:00     -214.251      -62.583      -16.815      102.780       84.735       48.035    10563.670     7180.036     2307.369        3.507        1.003      223.204       50.819        0.052      334.604        4.681      856.098
03/29/2014  22:38:00     -300.185      -62.957      -18.665      118.494       91.955       50.823    14040.789     8455.771     2582.998        5.975        1.254      306.716       60.905        0.039      334.593        4.662      856.089
03/29/2014  22:39:00     -364.826       15.169      -26.350      132.494       86.534       56.631    17554.628     7488.052     3207.127        8.113        1.412      365.141       64.397        0.031      334.605        4.684      856.065
03/29/2014  22:40:00     -149.709      -44.990        1.489       74.154       87.284       36.553     5498.860     7618.425     1336.154        1.944        0.723      156.323       35.332        0.051      334.642        4.748      856.047
03/29/2014  22:41:00     -256.667      -19.780      -14.277       99.485       88.171       55.069     9897.360     7774.062     3032.547        4.358        1.035      257.428       56.910        0.049      334.642        4.745      856.023
03/29/2014  22:42:00     -329.253      -95.768      -22.232       98.859       77.815       49.214     9773.098     6055.152     2422.028        6.816        0.913      342.898       38.877        0.013      334.639        4.738      856.014
03/29/2014  22:43:00     -224.917      -69.292       -6.011      125.880      100.007       61.909    15845.722    10001.453     3832.724        4.255        1.484      235.349       61.477        0.068      334.666        4.785      855.987
03/29/2014  22:44:00     -156.070      -80.900        2.054      123.548      102.695       70.175    15264.042    10546.323     4924.568        3.081        1.537      175.792       75.551        0.185      334.707        4.853      855.989
03/29/2014  22:45:00     -277.597     -131.893       -3.128      133.134       74.071       50.846    17724.778     5486.510     2585.349        6.013        1.290      307.336       52.582        0.029      334.665        4.783      855.990
03/29/2014  22:46:00     -188.542      -84.443      -10.721       58.502       62.426       37.378     3422.516     3897.009     1397.084        2.575        0.436      206.588       23.782        0.013      334.673        4.796      855.981
03/29/2014  22:47:00     -222.073       -6.627      -19.861       80.234       59.153       34.681     6437.529     3499.042     1202.765        3.044        0.557      222.172       35.763        0.026      334.660        4.773      855.955
03/29/2014  22:48:00     -165.293        8.607       -3.115       89.239       87.758       51.904     7963.593     7701.453     2694.070        2.288        0.918      165.517       53.499        0.104      334.695        4.833      855.928
03/29/2014  22:49:00     -224.855       65.179      -21.194       70.919       61.314       31.949     5029.552     3759.458     1020.718        3.253        0.490      234.111       27.350        0.014      334.659        4.771      855.920
03/29/2014  22:50:00     -153.866       33.394      -27.259       62.299       58.414       44.465     3881.110     3412.169     1977.130        1.740        0.464      157.448       37.680        0.057      334.669        4.791      855.911
03/29/2014  22:51:00     -137.447       24.052       -7.386       32.607       39.152       22.218     1063.207     1532.848      493.641        1.131        0.154      139.535       11.045        0.006      334.701        4.846      855.918
03/29/2014  22:52:00     -121.774       25.840      -11.164       37.580       40.222       23.075     1412.255     1617.807      532.469        0.959        0.178      124.486       12.715        0.010      334.675        4.801      855.938
03/29/2014  22:53:00     -100.461      118.365      -19.381       63.910       82.541       40.409     4084.545     6813.021     1632.876        1.850        0.627      155.250       29.896        0.037      334.679        4.807      855.939
03/29/2014  22:54:00     -142.529      118.636      -18.863       65.500       75.047       45.121     4290.266     5632.069     2035.948        2.335        0.598      185.443       40.055        0.047      334.675        4.802      855.931
03/29/2014  22:55:00     -140.365       82.945      -23.067       73.797       63.495       38.535     5446.061     4031.648     1484.953        1.904        0.548      163.040       32.881        0.041      334.685        4.819      855.921
03/29/2014  22:56:00      -72.523       76.566      -11.391       50.887       67.423       35.538     2589.508     4545.904     1262.979        0.982        0.420      105.460       28.949        0.075      334.713        4.867      855.919
03/29/2014  22:57:00     -163.025       94.447      -34.559       90.130       95.798       49.045     8123.407     9177.191     2405.427        2.819        0.985      188.407       42.667        0.051      334.677        4.804      855.936
03/29/2014  22:58:00      -59.740       74.854        1.716       77.290       92.154       49.399     5973.805     8492.426     2440.264        1.304        0.845       95.770       36.292        0.144      334.756        4.938      855.929
03/29/2014  22:59:00     -122.991      130.281      -19.633       65.037       74.560       43.418     4229.760     5559.227     1885.122        2.208        0.584      179.165       30.911        0.030      334.677        4.806      855.937
03/29/2014  23:00:00     -133.740      123.489      -14.877       78.998       66.723       38.591     6240.678     4452.007     1489.292        2.277        0.609      182.032       39.886        0.048      334.717        4.871      855.943
03/29/2014  23:01:00     -118.448       80.148      -16.739       86.996       85.698       46.027     7568.353     7344.158     2118.489        1.888        0.852      143.017       50.466        0.125      334.711        4.863      855.965
03/29/2014  23:02:00     -147.481       22.931      -10.459       81.604       81.753       35.890     6659.274     6683.545     1288.060        1.851        0.732      149.253       34.802        0.054      334.691        4.828      855.979
03/29/2014  23:03:00     -122.491       59.383      -10.776       57.288       63.811       39.008     3281.877     4071.891     1521.612        1.376        0.444      136.126       30.087        0.049      334.719        4.876      855.995
03/29/2014  23:04:00     -127.247       35.963      -19.452       83.185       52.862       39.900     6919.671     2794.407     1591.979        1.458        0.565      132.231       49.814        0.142      334.673        4.800      856.008
03/29/2014  23:05:00     -194.427       46.067      -29.532       79.538       57.800       35.261     6326.235     3340.795     1243.373        2.585        0.546      199.810       32.859        0.027      334.616        4.702      856.018
03/29/2014  23:06:00      -89.219      110.576      -15.357       48.515       59.491       35.727     2353.752     3539.236     1276.383        1.379        0.358      142.082       27.469        0.037      334.691        4.829      856.018
03/29/2014  23:07:00      -80.916       39.906       -0.024       41.974       81.348       29.657     1761.821     6617.447      879.530        0.870        0.463       90.221       14.790        0.027      334.743        4.917      856.002
03/29/2014  23:08:00      -82.542       31.625        5.657       60.783       78.673       50.574     3694.623     6189.475     2557.774        1.014        0.622       88.393       40.629        0.211      334.688        4.825      855.997
03/29/2014  23:09:00      -91.650       12.065       -8.304       50.037       56.767       26.243     2503.692     3222.548      688.681        0.751        0.321       92.440       18.256        0.039      334.687        4.825      855.988
03/29/2014  23:10:00     -122.460        5.778       -8.151       57.413       76.694       36.396     3296.308     5881.933     1324.677        1.280        0.525      122.596       28.714        0.055      334.660        4.779      855.972
03/29/2014  23:11:00     -167.084       59.354      -24.980       55.247       76.875       41.904     3052.226     5909.766     1755.944        2.139        0.536      177.314       33.136        0.035      334.659        4.775      855.938
03/29/2014  23:12:00     -193.810       71.365      -35.595       95.776       66.005       51.084     9172.957     4356.600     2609.553        3.003        0.807      206.532       54.090        0.069      334.629        4.723      855.912
03/29/2014  23:13:00     -159.403      133.794      -24.283       72.742       90.304       37.174     5291.397     8154.817     1381.881        2.936        0.741      208.111       26.061        0.016      334.671        4.795      855.879
03/29/2014  23:14:00     -105.721      139.694      -13.203       60.352       71.970       41.813     3642.370     5179.733     1748.347        2.072        0.529      175.189       33.172        0.036      334.741        4.910      855.856
03/29/2014  23:15:00     -183.839       64.219      -12.283       91.318       99.530       44.494     8339.029     9906.137     1979.712        2.914        1.011      194.733       43.373        0.050      334.701        4.843      855.839
03/29/2014  23:16:00     -166.345       82.204      -32.630       88.924       70.980       46.658     7907.524     5038.095     2176.953        2.530        0.756      185.548       52.471        0.080      334.700        4.844      855.843
03/29/2014  23:17:00     -128.728       72.202       -8.645       84.230       71.812       58.352     7094.708     5157.026     3404.959        1.875        0.783      147.594       57.832        0.154      334.706        4.853      855.872
03/29/2014  23:18:00     -161.956       41.790      -25.061       75.700       80.745       42.277     5730.533     6519.835     1787.378        2.132        0.702      167.261       45.442        0.074      334.649        4.759      855.898
03/29/2014  23:19:00     -134.788        9.447      -27.329       71.231       70.069       42.045     5073.925     4909.696     1767.761        1.538        0.588      135.119       29.411        0.047      334.619        4.709      855.916
03/29/2014  23:20:00     -104.525       94.836      -22.853       55.360       61.298       39.789     3064.735     3757.496     1583.175        1.442        0.420      141.136       29.541        0.044      334.706        4.854      855.929
03/29/2014  23:21:00     -148.537      111.185      -29.340       60.071      107.518       43.164     3608.497    11560.151     1863.171        2.616        0.852      185.541       48.309        0.068      334.662        4.780      855.947
03/29/2014  23:22:00     -149.277      114.650      -33.342       52.416       77.335       40.934     2747.408     5980.707     1675.564        2.347        0.520      188.224       42.592        0.051      334.620        4.711      855.941
03/29/2014  23:23:00     -108.300      194.543      -30.170       50.477       72.323       38.805     2547.917     5230.598     1505.826        2.988        0.464      222.657       32.720        0.022      334.611        4.694      855.924
03/29/2014  23:24:00     -142.661      177.024      -41.638       60.812       57.909       38.107     3698.044     3353.494     1452.138        3.096        0.425      227.354       42.246        0.035      334.586        4.652      855.897
03/29/2014  23:25:00      -71.664      227.671      -35.920       56.142       68.514       23.411     3151.945     4694.105      548.077        3.333        0.420      238.684       20.166        0.007      334.624        4.713      855.914
03/29/2014  23:26:00      -29.000      238.986      -22.572       31.660       56.034       24.918     1002.341     3139.827      620.895        3.161        0.238      240.739       25.944        0.012      334.634        4.731      855.950
03/29/2014  23:27:00       -2.786      145.511       -8.568       58.944       60.338       44.115     3474.384     3640.659     1946.127        1.516        0.453      145.538       40.181        0.076      334.656        4.771      855.960
03/29/2014  23:28:00       22.168      187.902      -24.511       38.408       56.555       35.213     1475.189     3198.518     1239.978        2.116        0.296      189.205       33.003        0.030      334.584        4.649      855.954
03/29/2014  23:29:00       23.247      203.173      -23.128       37.427       50.823       34.184     1400.793     2583.017     1168.577        2.375        0.258      204.499       29.513        0.021      334.565        4.617      855.956
03/29/2014  23:30:00       47.921       96.397        1.940       47.878       59.125       38.186     2292.320     3495.801     1458.171        0.942        0.362      107.652       36.727        0.116      334.554        4.602      855.972
03/29/2014  23:31:00       15.745      128.054       -6.650       39.952       68.009       38.566     1596.164     4625.268     1487.329        1.220        0.385      129.018       40.947        0.101      334.548        4.591      855.996
03/29/2014  23:32:00       13.012       82.702        1.030       67.243       86.389       42.580     4521.562     7463.034     1813.090        1.040        0.690       83.719       35.328        0.178      334.646        4.754      856.013
03/29/2014  23:33:00      -24.758      155.811      -16.668       26.290       28.598       15.860      691.176      817.834      251.525        1.346        0.088      157.766       10.333        0.004      334.572        4.631      856.022
03/29/2014  23:34:00      -11.280      134.377      -16.600       30.305       53.323       22.647      918.398     2843.356      512.898        1.137        0.214      134.850       28.874        0.046      334.629        4.727      856.035
03/29/2014  23:35:00      -29.309      223.878      -35.589       44.780       42.801       23.958     2005.268     1831.933      574.000        2.833        0.221      225.788       15.701        0.005      334.528        4.556      856.042
03/29/2014  23:36:00       38.817       53.546       15.460       57.849       53.841       37.250     3346.468     2898.833     1387.531        0.612        0.382       66.136       30.068        0.207      334.596        4.671      856.044
03/29/2014  23:37:00       26.124      145.324      -21.798       63.764       58.254       36.299     4065.851     3393.515     1317.629        1.553        0.439      147.653       19.460        0.017      334.550        4.595      856.027
03/29/2014  23:38:00      -66.592       76.087      -14.137       67.646       90.960       34.499     4575.969     8273.674     1190.189        1.223        0.702      101.113       40.904        0.164      334.642        4.749      856.017
03/29/2014  23:39:00      -27.282       82.312       -6.231       29.253       60.190       28.328      855.728     3622.872      802.481        0.642        0.264       86.715       28.945        0.111      334.651        4.764      856.019
03/29/2014  23:40:00      -82.325       75.508      -18.974       33.505       47.524       21.929     1122.604     2258.510      480.885        0.835        0.193      111.709       10.244        0.008      334.632        4.734      856.024
03/29/2014  23:41:00      -56.867       46.989       -0.548       29.198       48.198       25.468      852.495     2323.026      648.638        0.463        0.191       73.769       19.344        0.069      334.679        4.809      856.039
03/29/2014  23:42:00      -57.022       86.896       -9.141       64.119       70.115       36.645     4111.301     4916.124     1342.845        1.063        0.519      103.935       39.457        0.144      334.701        4.847      856.058
03/29/2014  23:43:00      -39.203      142.938      -11.729       39.616       57.996       29.732     1569.402     3363.486      884.016        1.396        0.291      148.217       23.879        0.026      334.679        4.809      856.072
03/29/2014  23:44:00      -58.475       61.727      -12.406       45.624       44.543       22.648     2081.518     1984.058      512.922        0.598        0.229       85.027       20.437        0.058      334.620        4.712      856.062
03/29/2014  23:45:00       -2.793       55.392        1.038       49.476       36.725       24.561     2447.887     1348.706      603.267        0.374        0.220       55.462       26.057        0.221      334.604        4.686      856.036
03/29/2014  23:46:00       25.846      148.441      -20.803       39.557       53.636       34.634     1564.748     2876.794     1199.500        1.439        0.282      150.674       21.040        0.019      334.553        4.600      856.027
03/29/2014  23:47:00      -13.339      107.445       -5.321       25.187       60.106       26.034      634.366     3612.736      677.753        0.834        0.246      108.270       31.954        0.087      334.608        4.692      856.053
03/29/2014  23:48:00       23.071      103.823      -13.192       37.244       45.392       29.803     1387.127     2060.437      888.208        0.791        0.217      106.356       23.164        0.047      334.595        4.671      856.094
03/29/2014  23:49:00      -29.387      169.937      -16.940       71.027       84.465       31.387     5044.775     7134.336      985.153        2.159        0.658      172.459       31.123        0.033      334.582        4.647      856.117
03/29/2014  23:50:00       19.138      126.497      -20.991       66.387       66.850       40.415     4407.272     4468.889     1633.390        1.366        0.525      127.936       42.516        0.110      334.593        4.666      856.119
03/29/2014  23:51:00      -11.165      230.638      -34.601       47.993       85.035       30.100     2303.339     7230.967      905.987        3.248        0.522      230.908       34.939        0.023      334.558        4.606      856.149
03/29/2014  23:52:00      -45.348      132.036      -14.985       50.690       63.474       31.086     2569.450     4028.939      966.330        1.364        0.378      139.607       30.134        0.047      334.606        4.687      856.168
03/29/2014  23:53:00      -67.998       74.387      -17.876       32.751       46.473       21.935     1072.631     2159.750      481.128        0.709        0.186      100.783       22.440        0.050      334.606        4.689      856.185
03/29/2014  23:54:00      -46.021      111.595       -2.894       46.066       58.581       28.515     2122.078     3431.739      813.132        1.047        0.318      120.712       29.755        0.061      334.628        4.726      856.205
03/29/2014  23:55:00      -18.021       80.622      -10.939       46.267       65.677       29.412     2140.662     4313.416      865.046        0.713        0.366       82.612       33.791        0.167      334.612        4.698      856.227
03/29/2014  23:56:00      -38.315      161.604      -20.800       50.682       61.580       37.143     2568.638     3792.152     1379.586        1.788        0.387      166.084       31.629        0.036      334.591        4.663      856.219
03/29/2014  23:57:00      -29.640      285.689      -34.589       88.860       64.966       45.502     7896.078     4220.638     2070.476        4.894        0.709      287.222       41.180        0.021      334.484        4.483      856.196
03/29/2014  23:58:00       15.198      221.419      -26.083       67.279       81.072       41.703     4526.499     6572.604     1739.157        3.139        0.642      221.940       42.125        0.036      334.473        4.466      856.193
03/29/2014  23:59:00      -60.389      181.757      -18.020       84.695      110.061       50.913     7173.309    12113.496     2592.097        2.944        1.094      191.527       50.796        0.070      334.585        4.652      856.201
